<?xml version="1.0" encoding="UTF-8"?>
<gpx version="1.1" creator="2bulu-scraper" xmlns="http://www.topografix.com/GPX/1/1">
  <metadata><name>古蔺红龙湖环湖徒步（山脊线）</name><desc>source: 2bulu.com trackId=84750418; exported 2026-09-01T14:35:26.207Z</desc>
    <bounds minlat="28.1145036" minlon="105.7584501" maxlat="28.1391227" maxlon="105.7933501"/>
    <link href="https://www.2bulu.com/track/t-e%252BSwQt5PD6Tp%252FR2KBg5Tzw%253D%253D.htm"><text>2bulu 源页面</text></link>
  </metadata>
  <wpt lat="28.1184271" lon="105.7834795"><ele>1568</ele><name>
        </name></wpt>
  <wpt lat="28.1183928" lon="105.7825755"><ele>1554</ele><name>
        </name></wpt>
  <wpt lat="28.1186834" lon="105.782594"><ele>1555</ele><name>
        </name></wpt>
  <wpt lat="28.1190273" lon="105.7716012"><ele>1688</ele><name>
        </name></wpt>
  <wpt lat="28.1193664" lon="105.7713244"><ele>1690</ele><name>
        </name></wpt>
  <wpt lat="28.1195441" lon="105.7710299"><ele>1698</ele><name>悬崖
        </name></wpt>
  <wpt lat="28.1198152" lon="105.7709955"><ele>1693</ele><name>
        </name></wpt>
  <wpt lat="28.1201229" lon="105.7704791"><ele>1703</ele><name>
        </name></wpt>
  <wpt lat="28.1202751" lon="105.7704089"><ele>1706</ele><name>
        </name></wpt>
  <wpt lat="28.1202534" lon="105.7695306"><ele>1723</ele><name>远眺虎头山
        </name></wpt>
  <wpt lat="28.1190777" lon="105.768843"><ele>1731</ele><name>
        </name></wpt>
  <wpt lat="28.1184282" lon="105.7677139"><ele>1738</ele><name>
        </name></wpt>
  <wpt lat="28.1180389" lon="105.767384"><ele>1727</ele><name>
        </name></wpt>
  <wpt lat="28.1176898" lon="105.76703"><ele>1723</ele><name>
        </name></wpt>
  <wpt lat="28.1171436" lon="105.7662979"><ele>1706</ele><name>右转向下
        </name></wpt>
  <wpt lat="28.1179946" lon="105.7664634"><ele>1682</ele><name>
        </name></wpt>
  <wpt lat="28.1186117" lon="105.7665804"><ele>1663</ele><name>
        </name></wpt>
  <wpt lat="28.1159896" lon="105.7653884"><ele>1703</ele><name>映山红
        </name></wpt>
  <wpt lat="28.1155418" lon="105.7650575"><ele>1700</ele><name>
        </name></wpt>
  <wpt lat="28.1171362" lon="105.7663297"><ele>1704</ele><name>
        </name></wpt>
  <wpt lat="28.1171737" lon="105.7662433"><ele>1702</ele><name>
        </name></wpt>
  <wpt lat="28.117467" lon="105.7660703"><ele>1701</ele><name>走中间横向路（三条路）木桩
        </name></wpt>
  <wpt lat="28.1176997" lon="105.7661387"><ele>1688</ele><name>注意标志
        </name></wpt>
  <wpt lat="28.1187572" lon="105.7652146"><ele>1691</ele><name>路标
        </name></wpt>
  <wpt lat="28.1191495" lon="105.763794"><ele>1702</ele><name>绝望坡
        </name></wpt>
  <wpt lat="28.1218595" lon="105.7623278"><ele>1755</ele><name>
        </name></wpt>
  <wpt lat="28.1250554" lon="105.7592816"><ele>1734</ele><name>向右
        </name></wpt>
  <wpt lat="28.1254538" lon="105.7591654"><ele>1726</ele><name>
        </name></wpt>
  <wpt lat="28.1351092" lon="105.7608306"><ele>1768</ele><name>
        </name></wpt>
  <wpt lat="28.1352088" lon="105.7612045"><ele>1771</ele><name>水晶兰
        </name></wpt>
  <wpt lat="28.139082" lon="105.7625016"><ele>1781</ele><name>
        </name></wpt>
  <wpt lat="28.1330808" lon="105.7729601"><ele>1533</ele><name>石板滩
        </name></wpt>
  <wpt lat="28.1333365" lon="105.773788"><ele>1529</ele><name>过河
        </name></wpt>
  <wpt lat="28.1331595" lon="105.7747386"><ele>1530</ele><name>
        </name></wpt>
  <wpt lat="28.1334792" lon="105.7779553"><ele>1520</ele><name>
        </name></wpt>
  <wpt lat="28.1334976" lon="105.7779077"><ele>1518</ele><name>
        </name></wpt>
  <wpt lat="28.1344222" lon="105.7786259"><ele>1518</ele><name>堰沟
        </name></wpt>
  <wpt lat="28.1342067" lon="105.7791888"><ele>1513</ele><name>
        </name></wpt>
  <wpt lat="28.1341541" lon="105.780144"><ele>1505</ele><name>绝壁

        </name></wpt>
  <wpt lat="28.135029" lon="105.7826016"><ele>1598</ele><name>竹林

        </name></wpt>
  <wpt lat="28.118057" lon="105.7841264"><ele>1547</ele><name>终点
        </name></wpt>
  <trk><name>古蔺红龙湖环湖徒步（山脊线）</name>
      <trkseg>
        <trkpt lat="28.1183426" lon="105.7836409"><ele>1548.06</ele><time>2026-05-23T16:15:53.000Z</time></trkpt>
        <trkpt lat="28.1183426" lon="105.7836409"><ele>1548.06</ele><time>2026-05-23T16:16:02.000Z</time></trkpt>
      </trkseg>
      <trkseg>
        <trkpt lat="28.1184271" lon="105.7834795"><ele>1548.06</ele><time>2026-05-23T16:20:01.000Z</time></trkpt>
        <trkpt lat="28.1184271" lon="105.7834795"><ele>1548.06</ele><time>2026-05-23T16:20:01.000Z</time></trkpt>
        <trkpt lat="28.1185191" lon="105.7834902"><ele>1556.82</ele><time>2026-05-23T16:20:19.000Z</time></trkpt>
        <trkpt lat="28.1185785" lon="105.7834121"><ele>1555.19</ele><time>2026-05-23T16:20:31.000Z</time></trkpt>
        <trkpt lat="28.1185692" lon="105.7833098"><ele>1554.4</ele><time>2026-05-23T16:20:59.000Z</time></trkpt>
        <trkpt lat="28.1185601" lon="105.78328"><ele>1553.95</ele><time>2026-05-23T16:21:01.000Z</time></trkpt>
        <trkpt lat="28.1185118" lon="105.783206"><ele>1553.61</ele><time>2026-05-23T16:21:17.000Z</time></trkpt>
        <trkpt lat="28.1184616" lon="105.7831155"><ele>1553.13</ele><time>2026-05-23T16:21:27.000Z</time></trkpt>
        <trkpt lat="28.1184349" lon="105.7830007"><ele>1553.32</ele><time>2026-05-23T16:21:41.000Z</time></trkpt>
        <trkpt lat="28.1184296" lon="105.7829475"><ele>1554.22</ele><time>2026-05-23T16:21:49.000Z</time></trkpt>
        <trkpt lat="28.1183747" lon="105.7828782"><ele>1554.84</ele><time>2026-05-23T16:22:23.000Z</time></trkpt>
        <trkpt lat="28.1182938" lon="105.7828246"><ele>1555.74</ele><time>2026-05-23T16:22:31.000Z</time></trkpt>
        <trkpt lat="28.1182166" lon="105.782749"><ele>1557.72</ele><time>2026-05-23T16:22:43.000Z</time></trkpt>
        <trkpt lat="28.1181358" lon="105.7826847"><ele>1558.77</ele><time>2026-05-23T16:22:53.000Z</time></trkpt>
        <trkpt lat="28.1180632" lon="105.7826075"><ele>1559.03</ele><time>2026-05-23T16:23:05.000Z</time></trkpt>
        <trkpt lat="28.1180239" lon="105.7825111"><ele>1559.45</ele><time>2026-05-23T16:23:15.000Z</time></trkpt>
        <trkpt lat="28.118088" lon="105.7824808"><ele>1558.32</ele><time>2026-05-23T16:23:27.000Z</time></trkpt>
        <trkpt lat="28.1181851" lon="105.7825003"><ele>1556.84</ele><time>2026-05-23T16:23:37.000Z</time></trkpt>
        <trkpt lat="28.1182807" lon="105.7825497"><ele>1555.89</ele><time>2026-05-23T16:23:47.000Z</time></trkpt>
        <trkpt lat="28.1183928" lon="105.7825755"><ele>1555.67</ele><time>2026-05-23T16:23:57.000Z</time></trkpt>
        <trkpt lat="28.1184953" lon="105.7826276"><ele>1555.08</ele><time>2026-05-23T16:24:09.000Z</time></trkpt>
        <trkpt lat="28.118604" lon="105.7826549"><ele>1554.81</ele><time>2026-05-23T16:24:21.000Z</time></trkpt>
        <trkpt lat="28.1186834" lon="105.782594"><ele>1555.54</ele><time>2026-05-23T16:24:31.000Z</time></trkpt>
        <trkpt lat="28.1187122" lon="105.782491"><ele>1555.32</ele><time>2026-05-23T16:24:39.000Z</time></trkpt>
        <trkpt lat="28.1187077" lon="105.782364"><ele>1555.22</ele><time>2026-05-23T16:24:49.000Z</time></trkpt>
        <trkpt lat="28.1186698" lon="105.7822448"><ele>1556.2</ele><time>2026-05-23T16:24:57.000Z</time></trkpt>
        <trkpt lat="28.1186254" lon="105.7821358"><ele>1556.19</ele><time>2026-05-23T16:25:09.000Z</time></trkpt>
        <trkpt lat="28.1186115" lon="105.7820302"><ele>1557.68</ele><time>2026-05-23T16:25:19.000Z</time></trkpt>
        <trkpt lat="28.1185774" lon="105.7819195"><ele>1557.98</ele><time>2026-05-23T16:25:31.000Z</time></trkpt>
        <trkpt lat="28.1185577" lon="105.7818058"><ele>1555.41</ele><time>2026-05-23T16:25:41.000Z</time></trkpt>
        <trkpt lat="28.1186261" lon="105.7817707"><ele>1554.8</ele><time>2026-05-23T16:25:55.000Z</time></trkpt>
        <trkpt lat="28.118712" lon="105.7817178"><ele>1555.36</ele><time>2026-05-23T16:26:05.000Z</time></trkpt>
        <trkpt lat="28.1187758" lon="105.7816351"><ele>1555.63</ele><time>2026-05-23T16:26:13.000Z</time></trkpt>
        <trkpt lat="28.1188414" lon="105.7815565"><ele>1555.67</ele><time>2026-05-23T16:26:21.000Z</time></trkpt>
        <trkpt lat="28.1188845" lon="105.7814567"><ele>1556.38</ele><time>2026-05-23T16:26:31.000Z</time></trkpt>
        <trkpt lat="28.1189224" lon="105.7813407"><ele>1558.3</ele><time>2026-05-23T16:26:43.000Z</time></trkpt>
        <trkpt lat="28.1189847" lon="105.7812493"><ele>1558.48</ele><time>2026-05-23T16:26:55.000Z</time></trkpt>
        <trkpt lat="28.1190606" lon="105.7811742"><ele>1558.74</ele><time>2026-05-23T16:27:15.000Z</time></trkpt>
        <trkpt lat="28.119096" lon="105.7811405"><ele>1558.06</ele><time>2026-05-23T16:27:21.000Z</time></trkpt>
        <trkpt lat="28.119137" lon="105.7810727"><ele>1557.61</ele><time>2026-05-23T16:27:37.000Z</time></trkpt>
        <trkpt lat="28.1191291" lon="105.7809801"><ele>1556.94</ele><time>2026-05-23T16:27:55.000Z</time></trkpt>
        <trkpt lat="28.1191207" lon="105.780874"><ele>1557.42</ele><time>2026-05-23T16:28:05.000Z</time></trkpt>
        <trkpt lat="28.1191543" lon="105.7808009"><ele>1558.05</ele><time>2026-05-23T16:28:17.000Z</time></trkpt>
        <trkpt lat="28.1191681" lon="105.7807029"><ele>1557.97</ele><time>2026-05-23T16:28:32.000Z</time></trkpt>
        <trkpt lat="28.119191" lon="105.7805952"><ele>1559.85</ele><time>2026-05-23T16:28:48.000Z</time></trkpt>
        <trkpt lat="28.119207" lon="105.7805224"><ele>1558.37</ele><time>2026-05-23T16:28:58.000Z</time></trkpt>
        <trkpt lat="28.1192275" lon="105.7804311"><ele>1559.3</ele><time>2026-05-23T16:29:22.000Z</time></trkpt>
        <trkpt lat="28.1191967" lon="105.7803279"><ele>1561.04</ele><time>2026-05-23T16:29:40.000Z</time></trkpt>
        <trkpt lat="28.1191964" lon="105.7802225"><ele>1561.53</ele><time>2026-05-23T16:29:50.000Z</time></trkpt>
        <trkpt lat="28.1192501" lon="105.7801204"><ele>1562.56</ele><time>2026-05-23T16:30:00.000Z</time></trkpt>
        <trkpt lat="28.1192971" lon="105.7800224"><ele>1562.06</ele><time>2026-05-23T16:30:12.000Z</time></trkpt>
        <trkpt lat="28.1193268" lon="105.7799112"><ele>1562.38</ele><time>2026-05-23T16:30:24.000Z</time></trkpt>
        <trkpt lat="28.1193384" lon="105.7797893"><ele>1562.72</ele><time>2026-05-23T16:30:34.000Z</time></trkpt>
        <trkpt lat="28.1193497" lon="105.7796995"><ele>1564.41</ele><time>2026-05-23T16:30:41.000Z</time></trkpt>
        <trkpt lat="28.1193474" lon="105.7795972"><ele>1566.62</ele><time>2026-05-23T16:30:55.000Z</time></trkpt>
        <trkpt lat="28.1193469" lon="105.7794921"><ele>1567.32</ele><time>2026-05-23T16:31:03.000Z</time></trkpt>
        <trkpt lat="28.1193056" lon="105.7794027"><ele>1569</ele><time>2026-05-23T16:31:17.000Z</time></trkpt>
        <trkpt lat="28.1192783" lon="105.7793042"><ele>1568.71</ele><time>2026-05-23T16:31:27.000Z</time></trkpt>
        <trkpt lat="28.1192703" lon="105.7791894"><ele>1569.99</ele><time>2026-05-23T16:31:39.000Z</time></trkpt>
        <trkpt lat="28.1192872" lon="105.7790735"><ele>1571.33</ele><time>2026-05-23T16:31:49.000Z</time></trkpt>
        <trkpt lat="28.1192856" lon="105.7789651"><ele>1573.37</ele><time>2026-05-23T16:32:01.000Z</time></trkpt>
        <trkpt lat="28.119237" lon="105.7788682"><ele>1574.1</ele><time>2026-05-23T16:32:15.000Z</time></trkpt>
        <trkpt lat="28.1191991" lon="105.7787659"><ele>1575.57</ele><time>2026-05-23T16:32:27.000Z</time></trkpt>
        <trkpt lat="28.1191888" lon="105.778656"><ele>1576.7</ele><time>2026-05-23T16:32:39.000Z</time></trkpt>
        <trkpt lat="28.1191998" lon="105.7785405"><ele>1576.84</ele><time>2026-05-23T16:32:51.000Z</time></trkpt>
        <trkpt lat="28.1192493" lon="105.7784386"><ele>1577.58</ele><time>2026-05-23T16:33:05.000Z</time></trkpt>
        <trkpt lat="28.1192841" lon="105.7783251"><ele>1578.47</ele><time>2026-05-23T16:33:25.000Z</time></trkpt>
        <trkpt lat="28.1193194" lon="105.7782146"><ele>1580.23</ele><time>2026-05-23T16:33:39.000Z</time></trkpt>
        <trkpt lat="28.1193304" lon="105.7781019"><ele>1581.52</ele><time>2026-05-23T16:33:53.000Z</time></trkpt>
        <trkpt lat="28.1192999" lon="105.7779973"><ele>1582.73</ele><time>2026-05-23T16:34:07.000Z</time></trkpt>
        <trkpt lat="28.1192732" lon="105.7778854"><ele>1585.23</ele><time>2026-05-23T16:34:23.000Z</time></trkpt>
        <trkpt lat="28.119233" lon="105.7777877"><ele>1587.48</ele><time>2026-05-23T16:34:35.000Z</time></trkpt>
        <trkpt lat="28.1192153" lon="105.7776705"><ele>1589.9</ele><time>2026-05-23T16:34:47.000Z</time></trkpt>
        <trkpt lat="28.1192165" lon="105.7775612"><ele>1592.06</ele><time>2026-05-23T16:34:59.000Z</time></trkpt>
        <trkpt lat="28.1191997" lon="105.777457"><ele>1592.12</ele><time>2026-05-23T16:35:29.000Z</time></trkpt>
        <trkpt lat="28.1191987" lon="105.7773454"><ele>1591.29</ele><time>2026-05-23T16:35:39.000Z</time></trkpt>
        <trkpt lat="28.1192432" lon="105.7772572"><ele>1591.61</ele><time>2026-05-23T16:35:47.000Z</time></trkpt>
        <trkpt lat="28.1192986" lon="105.7771669"><ele>1592.97</ele><time>2026-05-23T16:35:57.000Z</time></trkpt>
        <trkpt lat="28.1193521" lon="105.7770731"><ele>1593.69</ele><time>2026-05-23T16:36:09.000Z</time></trkpt>
        <trkpt lat="28.1194169" lon="105.7769828"><ele>1595.21</ele><time>2026-05-23T16:36:23.000Z</time></trkpt>
        <trkpt lat="28.1194728" lon="105.7768951"><ele>1597.04</ele><time>2026-05-23T16:36:39.000Z</time></trkpt>
        <trkpt lat="28.1195017" lon="105.7767979"><ele>1599.61</ele><time>2026-05-23T16:36:49.000Z</time></trkpt>
        <trkpt lat="28.119467" lon="105.7766981"><ele>1601.83</ele><time>2026-05-23T16:37:01.000Z</time></trkpt>
        <trkpt lat="28.1194445" lon="105.7765934"><ele>1605.72</ele><time>2026-05-23T16:37:25.000Z</time></trkpt>
        <trkpt lat="28.1194685" lon="105.7764961"><ele>1605.57</ele><time>2026-05-23T16:37:39.000Z</time></trkpt>
        <trkpt lat="28.1194996" lon="105.7763969"><ele>1606.76</ele><time>2026-05-23T16:37:53.000Z</time></trkpt>
        <trkpt lat="28.1195158" lon="105.7762946"><ele>1607.52</ele><time>2026-05-23T16:38:05.000Z</time></trkpt>
        <trkpt lat="28.1195233" lon="105.7761922"><ele>1608.27</ele><time>2026-05-23T16:38:15.000Z</time></trkpt>
        <trkpt lat="28.1195474" lon="105.776164"><ele>1607.06</ele><time>2026-05-23T16:38:19.000Z</time></trkpt>
        <trkpt lat="28.1195438" lon="105.7760844"><ele>1606.71</ele><time>2026-05-23T16:39:01.000Z</time></trkpt>
        <trkpt lat="28.119551" lon="105.7759872"><ele>1608.49</ele><time>2026-05-23T16:39:15.000Z</time></trkpt>
        <trkpt lat="28.1195646" lon="105.7758789"><ele>1610.07</ele><time>2026-05-23T16:39:31.000Z</time></trkpt>
        <trkpt lat="28.1196334" lon="105.7757958"><ele>1609.91</ele><time>2026-05-23T16:39:39.000Z</time></trkpt>
        <trkpt lat="28.1197026" lon="105.7757167"><ele>1609.27</ele><time>2026-05-23T16:39:49.000Z</time></trkpt>
        <trkpt lat="28.1197423" lon="105.7756239"><ele>1608.69</ele><time>2026-05-23T16:40:03.000Z</time></trkpt>
        <trkpt lat="28.1198083" lon="105.7755409"><ele>1609.63</ele><time>2026-05-23T16:40:17.000Z</time></trkpt>
        <trkpt lat="28.1198517" lon="105.775442"><ele>1610</ele><time>2026-05-23T16:40:35.000Z</time></trkpt>
        <trkpt lat="28.1198731" lon="105.775333"><ele>1611.74</ele><time>2026-05-23T16:40:49.000Z</time></trkpt>
        <trkpt lat="28.1198807" lon="105.7752167"><ele>1613.54</ele><time>2026-05-23T16:41:05.000Z</time></trkpt>
        <trkpt lat="28.1199054" lon="105.7751056"><ele>1617.27</ele><time>2026-05-23T16:41:19.000Z</time></trkpt>
        <trkpt lat="28.1199107" lon="105.7750002"><ele>1619.66</ele><time>2026-05-23T16:41:31.000Z</time></trkpt>
        <trkpt lat="28.1199296" lon="105.7748967"><ele>1620.78</ele><time>2026-05-23T16:41:43.000Z</time></trkpt>
        <trkpt lat="28.1199558" lon="105.7747879"><ele>1622.1</ele><time>2026-05-23T16:42:03.000Z</time></trkpt>
        <trkpt lat="28.1199643" lon="105.7746755"><ele>1622.76</ele><time>2026-05-23T16:42:19.000Z</time></trkpt>
        <trkpt lat="28.1199842" lon="105.7745607"><ele>1622.72</ele><time>2026-05-23T16:42:35.000Z</time></trkpt>
        <trkpt lat="28.119994" lon="105.7744542"><ele>1623.77</ele><time>2026-05-23T16:42:47.000Z</time></trkpt>
        <trkpt lat="28.1199574" lon="105.7743641"><ele>1625.02</ele><time>2026-05-23T16:42:57.000Z</time></trkpt>
        <trkpt lat="28.1198974" lon="105.774268"><ele>1626.48</ele><time>2026-05-23T16:43:15.000Z</time></trkpt>
        <trkpt lat="28.119876" lon="105.7741554"><ele>1627.41</ele><time>2026-05-23T16:43:33.000Z</time></trkpt>
        <trkpt lat="28.1198104" lon="105.7740862"><ele>1631.37</ele><time>2026-05-23T16:43:51.000Z</time></trkpt>
        <trkpt lat="28.1197588" lon="105.7739946"><ele>1636.34</ele><time>2026-05-23T16:44:03.000Z</time></trkpt>
        <trkpt lat="28.1197477" lon="105.7738898"><ele>1639.12</ele><time>2026-05-23T16:44:19.000Z</time></trkpt>
        <trkpt lat="28.1197082" lon="105.7737947"><ele>1640.51</ele><time>2026-05-23T16:44:37.000Z</time></trkpt>
        <trkpt lat="28.1196778" lon="105.7736979"><ele>1643.45</ele><time>2026-05-23T16:44:43.000Z</time></trkpt>
        <trkpt lat="28.119649" lon="105.7735989"><ele>1645.31</ele><time>2026-05-23T16:44:55.000Z</time></trkpt>
        <trkpt lat="28.1195931" lon="105.7735198"><ele>1648.8</ele><time>2026-05-23T16:45:13.000Z</time></trkpt>
        <trkpt lat="28.11954" lon="105.773433"><ele>1651.69</ele><time>2026-05-23T16:45:33.000Z</time></trkpt>
        <trkpt lat="28.1194634" lon="105.7733666"><ele>1651.69</ele><time>2026-05-23T16:45:51.000Z</time></trkpt>
        <trkpt lat="28.1194028" lon="105.7732837"><ele>1654.67</ele><time>2026-05-23T16:46:13.000Z</time></trkpt>
        <trkpt lat="28.1193232" lon="105.7732249"><ele>1658.98</ele><time>2026-05-23T16:46:29.000Z</time></trkpt>
        <trkpt lat="28.1192877" lon="105.7731368"><ele>1662.76</ele><time>2026-05-23T16:46:43.000Z</time></trkpt>
        <trkpt lat="28.1192318" lon="105.7730453"><ele>1665.08</ele><time>2026-05-23T16:46:55.000Z</time></trkpt>
        <trkpt lat="28.1191756" lon="105.7729531"><ele>1668.05</ele><time>2026-05-23T16:47:09.000Z</time></trkpt>
        <trkpt lat="28.1191223" lon="105.7728477"><ele>1669.06</ele><time>2026-05-23T16:47:21.000Z</time></trkpt>
        <trkpt lat="28.1190707" lon="105.7727483"><ele>1669.65</ele><time>2026-05-23T16:47:33.000Z</time></trkpt>
        <trkpt lat="28.1190749" lon="105.7726406"><ele>1670.51</ele><time>2026-05-23T16:47:45.000Z</time></trkpt>
        <trkpt lat="28.1190426" lon="105.7725431"><ele>1672.09</ele><time>2026-05-23T16:47:59.000Z</time></trkpt>
        <trkpt lat="28.1190253" lon="105.7724385"><ele>1673.96</ele><time>2026-05-23T16:48:13.000Z</time></trkpt>
        <trkpt lat="28.1190455" lon="105.7723701"><ele>1674.02</ele><time>2026-05-23T16:48:27.000Z</time></trkpt>
        <trkpt lat="28.1190334" lon="105.7722814"><ele>1673.84</ele><time>2026-05-23T16:48:55.000Z</time></trkpt>
        <trkpt lat="28.1190359" lon="105.7721817"><ele>1675.43</ele><time>2026-05-23T16:49:13.000Z</time></trkpt>
        <trkpt lat="28.1190491" lon="105.7720701"><ele>1675.58</ele><time>2026-05-23T16:49:27.000Z</time></trkpt>
        <trkpt lat="28.119041" lon="105.7719633"><ele>1676.24</ele><time>2026-05-23T16:49:39.000Z</time></trkpt>
        <trkpt lat="28.119047" lon="105.7718602"><ele>1678.04</ele><time>2026-05-23T16:49:53.000Z</time></trkpt>
        <trkpt lat="28.1189922" lon="105.771784"><ele>1679.53</ele><time>2026-05-23T16:50:05.000Z</time></trkpt>
        <trkpt lat="28.1189885" lon="105.7716938"><ele>1681.19</ele><time>2026-05-23T16:50:19.000Z</time></trkpt>
        <trkpt lat="28.1190273" lon="105.7716012"><ele>1683.64</ele><time>2026-05-23T16:50:31.000Z</time></trkpt>
        <trkpt lat="28.1191315" lon="105.7715073"><ele>1685.57</ele><time>2026-05-23T16:51:51.000Z</time></trkpt>
        <trkpt lat="28.1192088" lon="105.7714481"><ele>1686.8</ele><time>2026-05-23T16:51:59.000Z</time></trkpt>
        <trkpt lat="28.1192873" lon="105.7713961"><ele>1686.67</ele><time>2026-05-23T16:52:19.000Z</time></trkpt>
        <trkpt lat="28.1193664" lon="105.7713244"><ele>1687.43</ele><time>2026-05-23T16:52:27.000Z</time></trkpt>
        <trkpt lat="28.119452" lon="105.7712585"><ele>1688.48</ele><time>2026-05-23T16:52:45.000Z</time></trkpt>
        <trkpt lat="28.1195184" lon="105.7711757"><ele>1689.15</ele><time>2026-05-23T16:52:57.000Z</time></trkpt>
        <trkpt lat="28.1195378" lon="105.7710622"><ele>1690.21</ele><time>2026-05-23T16:53:19.000Z</time></trkpt>
        <trkpt lat="28.1195441" lon="105.7710299"><ele>1693.63</ele><time>2026-05-23T16:53:23.000Z</time></trkpt>
        <trkpt lat="28.1196257" lon="105.7710166"><ele>1695.7</ele><time>2026-05-23T16:53:47.000Z</time></trkpt>
        <trkpt lat="28.1196542" lon="105.7710231"><ele>1695.99</ele><time>2026-05-23T16:53:49.000Z</time></trkpt>
        <trkpt lat="28.1197248" lon="105.7710028"><ele>1696.31</ele><time>2026-05-23T16:54:01.000Z</time></trkpt>
        <trkpt lat="28.1198152" lon="105.7709955"><ele>1695.76</ele><time>2026-05-23T16:54:11.000Z</time></trkpt>
        <trkpt lat="28.1198751" lon="105.7709187"><ele>1694.41</ele><time>2026-05-23T16:54:29.000Z</time></trkpt>
        <trkpt lat="28.1199387" lon="105.7708335"><ele>1695.06</ele><time>2026-05-23T16:54:53.000Z</time></trkpt>
        <trkpt lat="28.1199877" lon="105.7707398"><ele>1697.72</ele><time>2026-05-23T16:55:11.000Z</time></trkpt>
        <trkpt lat="28.1200775" lon="105.7706946"><ele>1700.01</ele><time>2026-05-23T16:55:29.000Z</time></trkpt>
        <trkpt lat="28.120133" lon="105.770666"><ele>1699.79</ele><time>2026-05-23T16:55:39.000Z</time></trkpt>
        <trkpt lat="28.1201241" lon="105.770582"><ele>1698.49</ele><time>2026-05-23T16:55:59.000Z</time></trkpt>
        <trkpt lat="28.1201229" lon="105.7704791"><ele>1698.4</ele><time>2026-05-23T16:56:15.000Z</time></trkpt>
        <trkpt lat="28.1201229" lon="105.7704791"><ele>1698.4</ele><time>2026-05-23T16:56:23.000Z</time></trkpt>
      </trkseg>
      <trkseg>
        <trkpt lat="28.1201893" lon="105.7704421"><ele>1700.45</ele><time>2026-05-23T16:56:25.000Z</time></trkpt>
        <trkpt lat="28.1201893" lon="105.7704421"><ele>1700.45</ele><time>2026-05-23T16:56:27.000Z</time></trkpt>
        <trkpt lat="28.1202751" lon="105.7704089"><ele>1702.59</ele><time>2026-05-23T16:56:41.000Z</time></trkpt>
        <trkpt lat="28.1203564" lon="105.7703548"><ele>1703.9</ele><time>2026-05-23T16:57:03.000Z</time></trkpt>
        <trkpt lat="28.1204092" lon="105.7702623"><ele>1704.63</ele><time>2026-05-23T16:57:36.000Z</time></trkpt>
        <trkpt lat="28.1204338" lon="105.7702201"><ele>1706.78</ele><time>2026-05-23T16:57:40.000Z</time></trkpt>
        <trkpt lat="28.1204465" lon="105.7701355"><ele>1707.97</ele><time>2026-05-23T16:57:56.000Z</time></trkpt>
        <trkpt lat="28.1204488" lon="105.7700308"><ele>1709.59</ele><time>2026-05-23T16:58:17.000Z</time></trkpt>
        <trkpt lat="28.1204118" lon="105.7699237"><ele>1710.64</ele><time>2026-05-23T16:58:39.000Z</time></trkpt>
        <trkpt lat="28.1204054" lon="105.7697956"><ele>1712.5</ele><time>2026-05-23T16:59:45.000Z</time></trkpt>
        <trkpt lat="28.1203115" lon="105.7697433"><ele>1714.76</ele><time>2026-05-23T16:59:57.000Z</time></trkpt>
        <trkpt lat="28.1203265" lon="105.7696475"><ele>1716.9</ele><time>2026-05-23T17:00:07.000Z</time></trkpt>
        <trkpt lat="28.1203191" lon="105.7695737"><ele>1716.95</ele><time>2026-05-23T17:00:23.000Z</time></trkpt>
        <trkpt lat="28.1202534" lon="105.7695306"><ele>1716.91</ele><time>2026-05-23T17:01:01.000Z</time></trkpt>
        <trkpt lat="28.1201782" lon="105.769472"><ele>1719.65</ele><time>2026-05-23T17:01:37.000Z</time></trkpt>
        <trkpt lat="28.1200931" lon="105.7694"><ele>1720.36</ele><time>2026-05-23T17:01:49.000Z</time></trkpt>
        <trkpt lat="28.1200068" lon="105.7693387"><ele>1720.63</ele><time>2026-05-23T17:01:59.000Z</time></trkpt>
        <trkpt lat="28.1199161" lon="105.769316"><ele>1721.84</ele><time>2026-05-23T17:02:19.000Z</time></trkpt>
        <trkpt lat="28.1198178" lon="105.769293"><ele>1723.7</ele><time>2026-05-23T17:02:41.000Z</time></trkpt>
        <trkpt lat="28.1197688" lon="105.7692153"><ele>1724.63</ele><time>2026-05-23T17:02:51.000Z</time></trkpt>
        <trkpt lat="28.1196936" lon="105.7691838"><ele>1725.44</ele><time>2026-05-23T17:03:03.000Z</time></trkpt>
        <trkpt lat="28.1196002" lon="105.7691551"><ele>1727.37</ele><time>2026-05-23T17:03:15.000Z</time></trkpt>
        <trkpt lat="28.1195065" lon="105.7691408"><ele>1728.97</ele><time>2026-05-23T17:03:33.000Z</time></trkpt>
        <trkpt lat="28.1194738" lon="105.7691347"><ele>1730.75</ele><time>2026-05-23T17:03:35.000Z</time></trkpt>
        <trkpt lat="28.1193997" lon="105.7691149"><ele>1731.64</ele><time>2026-05-23T17:03:53.000Z</time></trkpt>
        <trkpt lat="28.1193918" lon="105.7690281"><ele>1734.09</ele><time>2026-05-23T17:04:07.000Z</time></trkpt>
        <trkpt lat="28.1193411" lon="105.7689328"><ele>1733.99</ele><time>2026-05-23T17:04:27.000Z</time></trkpt>
        <trkpt lat="28.1192612" lon="105.7688848"><ele>1733.89</ele><time>2026-05-23T17:05:03.000Z</time></trkpt>
        <trkpt lat="28.1191732" lon="105.7688429"><ele>1733.17</ele><time>2026-05-23T17:05:39.000Z</time></trkpt>
        <trkpt lat="28.1190777" lon="105.768843"><ele>1732.09</ele><time>2026-05-23T17:05:51.000Z</time></trkpt>
        <trkpt lat="28.1189897" lon="105.768816"><ele>1731.79</ele><time>2026-05-23T17:06:27.000Z</time></trkpt>
        <trkpt lat="28.1189938" lon="105.7687374"><ele>1732.65</ele><time>2026-05-23T17:06:53.000Z</time></trkpt>
        <trkpt lat="28.1190117" lon="105.7686302"><ele>1731.33</ele><time>2026-05-23T17:07:23.000Z</time></trkpt>
        <trkpt lat="28.1190536" lon="105.7685269"><ele>1730.21</ele><time>2026-05-23T17:07:53.000Z</time></trkpt>
        <trkpt lat="28.1190307" lon="105.7684197"><ele>1728.77</ele><time>2026-05-23T17:08:25.000Z</time></trkpt>
        <trkpt lat="28.1190204" lon="105.7683087"><ele>1730.13</ele><time>2026-05-23T17:08:54.000Z</time></trkpt>
        <trkpt lat="28.1189792" lon="105.7682095"><ele>1730.99</ele><time>2026-05-23T17:09:37.000Z</time></trkpt>
        <trkpt lat="28.1189134" lon="105.7681312"><ele>1732.22</ele><time>2026-05-23T17:09:57.000Z</time></trkpt>
        <trkpt lat="28.1188311" lon="105.768072"><ele>1734.05</ele><time>2026-05-23T17:10:21.000Z</time></trkpt>
        <trkpt lat="28.1187456" lon="105.7680222"><ele>1736.29</ele><time>2026-05-23T17:10:53.000Z</time></trkpt>
        <trkpt lat="28.1186726" lon="105.7679579"><ele>1736.72</ele><time>2026-05-23T17:11:05.000Z</time></trkpt>
        <trkpt lat="28.1186179" lon="105.767849"><ele>1737.33</ele><time>2026-05-23T17:11:17.000Z</time></trkpt>
        <trkpt lat="28.1185397" lon="105.7677831"><ele>1737.98</ele><time>2026-05-23T17:11:29.000Z</time></trkpt>
        <trkpt lat="28.1184528" lon="105.7677268"><ele>1738.21</ele><time>2026-05-23T17:11:41.000Z</time></trkpt>
        <trkpt lat="28.1184282" lon="105.7677139"><ele>1738.05</ele><time>2026-05-23T17:11:43.000Z</time></trkpt>
        <trkpt lat="28.1183513" lon="105.767675"><ele>1738.14</ele><time>2026-05-23T17:12:27.000Z</time></trkpt>
        <trkpt lat="28.1182651" lon="105.7676168"><ele>1737.55</ele><time>2026-05-23T17:13:12.000Z</time></trkpt>
        <trkpt lat="28.1181842" lon="105.7675421"><ele>1735.07</ele><time>2026-05-23T17:13:24.000Z</time></trkpt>
        <trkpt lat="28.1181082" lon="105.7674713"><ele>1733.06</ele><time>2026-05-23T17:14:20.000Z</time></trkpt>
        <trkpt lat="28.1180389" lon="105.767384"><ele>1730.52</ele><time>2026-05-23T17:14:32.000Z</time></trkpt>
        <trkpt lat="28.1179842" lon="105.7672951"><ele>1728.86</ele><time>2026-05-23T17:14:53.000Z</time></trkpt>
        <trkpt lat="28.117913" lon="105.7672283"><ele>1728.93</ele><time>2026-05-23T17:15:13.000Z</time></trkpt>
        <trkpt lat="28.1178435" lon="105.7671507"><ele>1728.02</ele><time>2026-05-23T17:15:29.000Z</time></trkpt>
        <trkpt lat="28.1177674" lon="105.7670925"><ele>1726.72</ele><time>2026-05-23T17:15:47.000Z</time></trkpt>
        <trkpt lat="28.1176898" lon="105.76703"><ele>1726.13</ele><time>2026-05-23T17:16:13.000Z</time></trkpt>
        <trkpt lat="28.1176158" lon="105.7669616"><ele>1724.89</ele><time>2026-05-23T17:16:27.000Z</time></trkpt>
        <trkpt lat="28.1175316" lon="105.7668889"><ele>1723.65</ele><time>2026-05-23T17:16:45.000Z</time></trkpt>
        <trkpt lat="28.1174671" lon="105.7668075"><ele>1722.29</ele><time>2026-05-23T17:16:55.000Z</time></trkpt>
        <trkpt lat="28.117387" lon="105.7667591"><ele>1722.57</ele><time>2026-05-23T17:17:05.000Z</time></trkpt>
        <trkpt lat="28.1173231" lon="105.7666649"><ele>1723.11</ele><time>2026-05-23T17:17:15.000Z</time></trkpt>
        <trkpt lat="28.1172694" lon="105.7665787"><ele>1721.76</ele><time>2026-05-23T17:17:34.000Z</time></trkpt>
        <trkpt lat="28.1172374" lon="105.7664795"><ele>1720.38</ele><time>2026-05-23T17:17:58.000Z</time></trkpt>
        <trkpt lat="28.1171896" lon="105.7663894"><ele>1718.19</ele><time>2026-05-23T17:18:26.000Z</time></trkpt>
        <trkpt lat="28.1171436" lon="105.7662979"><ele>1714.55</ele><time>2026-05-23T17:18:51.000Z</time></trkpt>
        <trkpt lat="28.117198" lon="105.7662519"><ele>1711.02</ele><time>2026-05-23T17:19:19.000Z</time></trkpt>
        <trkpt lat="28.1172245" lon="105.7662233"><ele>1708.2</ele><time>2026-05-23T17:19:23.000Z</time></trkpt>
        <trkpt lat="28.1173127" lon="105.7662194"><ele>1705.65</ele><time>2026-05-23T17:19:47.000Z</time></trkpt>
        <trkpt lat="28.1173577" lon="105.7662281"><ele>1703.78</ele><time>2026-05-23T17:19:50.000Z</time></trkpt>
        <trkpt lat="28.1174309" lon="105.7662697"><ele>1702.43</ele><time>2026-05-23T17:20:34.000Z</time></trkpt>
        <trkpt lat="28.117519" lon="105.7662994"><ele>1700.05</ele><time>2026-05-23T17:20:44.000Z</time></trkpt>
        <trkpt lat="28.1176147" lon="105.7663233"><ele>1698.59</ele><time>2026-05-23T17:20:52.000Z</time></trkpt>
        <trkpt lat="28.1177103" lon="105.7663255"><ele>1697.75</ele><time>2026-05-23T17:21:07.000Z</time></trkpt>
        <trkpt lat="28.117784" lon="105.7663662"><ele>1693.41</ele><time>2026-05-23T17:21:15.000Z</time></trkpt>
        <trkpt lat="28.1178737" lon="105.7664272"><ele>1690.99</ele><time>2026-05-23T17:21:27.000Z</time></trkpt>
        <trkpt lat="28.1179627" lon="105.7664638"><ele>1687.99</ele><time>2026-05-23T17:21:39.000Z</time></trkpt>
        <trkpt lat="28.1179946" lon="105.7664634"><ele>1686.31</ele><time>2026-05-23T17:21:45.000Z</time></trkpt>
        <trkpt lat="28.1180582" lon="105.7664922"><ele>1684.62</ele><time>2026-05-23T17:22:03.000Z</time></trkpt>
        <trkpt lat="28.1181421" lon="105.7665214"><ele>1681.06</ele><time>2026-05-23T17:22:29.000Z</time></trkpt>
        <trkpt lat="28.1182375" lon="105.7665606"><ele>1676.41</ele><time>2026-05-23T17:23:07.000Z</time></trkpt>
        <trkpt lat="28.1183348" lon="105.7665742"><ele>1672.09</ele><time>2026-05-23T17:23:17.000Z</time></trkpt>
        <trkpt lat="28.1184284" lon="105.7665612"><ele>1670.89</ele><time>2026-05-23T17:23:29.000Z</time></trkpt>
        <trkpt lat="28.1185207" lon="105.7665886"><ele>1669.08</ele><time>2026-05-23T17:23:39.000Z</time></trkpt>
        <trkpt lat="28.1186117" lon="105.7665804"><ele>1666.33</ele><time>2026-05-23T17:23:53.000Z</time></trkpt>
        <trkpt lat="28.1187021" lon="105.7665602"><ele>1664.8</ele><time>2026-05-23T17:24:09.000Z</time></trkpt>
        <trkpt lat="28.1188159" lon="105.7665393"><ele>1662.87</ele><time>2026-05-23T17:24:38.000Z</time></trkpt>
        <trkpt lat="28.118876" lon="105.7665266"><ele>1662.03</ele><time>2026-05-23T17:24:46.000Z</time></trkpt>
        <trkpt lat="28.1187685" lon="105.7665504"><ele>1660.13</ele><time>2026-05-23T17:27:44.000Z</time></trkpt>
        <trkpt lat="28.1187579" lon="105.7665365"><ele>1657.02</ele><time>2026-05-23T17:27:46.000Z</time></trkpt>
        <trkpt lat="28.118682" lon="105.7665817"><ele>1655.51</ele><time>2026-05-23T17:27:54.000Z</time></trkpt>
        <trkpt lat="28.1185896" lon="105.7665967"><ele>1655.06</ele><time>2026-05-23T17:28:10.000Z</time></trkpt>
        <trkpt lat="28.1185389" lon="105.766577"><ele>1656.79</ele><time>2026-05-23T17:28:18.000Z</time></trkpt>
        <trkpt lat="28.1184519" lon="105.7665447"><ele>1658.84</ele><time>2026-05-23T17:28:32.000Z</time></trkpt>
        <trkpt lat="28.1183383" lon="105.7665364"><ele>1660.85</ele><time>2026-05-23T17:28:40.000Z</time></trkpt>
        <trkpt lat="28.1182232" lon="105.7665155"><ele>1661.75</ele><time>2026-05-23T17:29:50.000Z</time></trkpt>
        <trkpt lat="28.1181307" lon="105.7665359"><ele>1661.96</ele><time>2026-05-23T17:30:04.000Z</time></trkpt>
        <trkpt lat="28.1180459" lon="105.7664755"><ele>1661.95</ele><time>2026-05-23T17:30:31.000Z</time></trkpt>
        <trkpt lat="28.1179549" lon="105.766446"><ele>1661.21</ele><time>2026-05-23T17:30:43.000Z</time></trkpt>
        <trkpt lat="28.1178556" lon="105.7664398"><ele>1660.87</ele><time>2026-05-23T17:31:00.000Z</time></trkpt>
        <trkpt lat="28.1177836" lon="105.7663844"><ele>1663.44</ele><time>2026-05-23T17:31:13.000Z</time></trkpt>
        <trkpt lat="28.1177046" lon="105.7663282"><ele>1666.05</ele><time>2026-05-23T17:31:32.000Z</time></trkpt>
        <trkpt lat="28.1176126" lon="105.7663146"><ele>1669.32</ele><time>2026-05-23T17:31:46.000Z</time></trkpt>
        <trkpt lat="28.1175211" lon="105.7663022"><ele>1671.61</ele><time>2026-05-23T17:32:02.000Z</time></trkpt>
        <trkpt lat="28.1174368" lon="105.7662599"><ele>1674.21</ele><time>2026-05-23T17:32:22.000Z</time></trkpt>
        <trkpt lat="28.1173493" lon="105.7662569"><ele>1677.08</ele><time>2026-05-23T17:32:38.000Z</time></trkpt>
        <trkpt lat="28.1172574" lon="105.7662389"><ele>1678.71</ele><time>2026-05-23T17:33:02.000Z</time></trkpt>
        <trkpt lat="28.117165" lon="105.7662505"><ele>1681.49</ele><time>2026-05-23T17:33:48.000Z</time></trkpt>
        <trkpt lat="28.1170725" lon="105.766258"><ele>1687.87</ele><time>2026-05-23T17:34:18.000Z</time></trkpt>
        <trkpt lat="28.1169693" lon="105.7662542"><ele>1694.57</ele><time>2026-05-23T17:34:30.000Z</time></trkpt>
        <trkpt lat="28.1168735" lon="105.766203"><ele>1698.89</ele><time>2026-05-23T17:34:44.000Z</time></trkpt>
        <trkpt lat="28.1167783" lon="105.7661574"><ele>1699.92</ele><time>2026-05-23T17:34:54.000Z</time></trkpt>
        <trkpt lat="28.1166921" lon="105.7661006"><ele>1701.28</ele><time>2026-05-23T17:35:04.000Z</time></trkpt>
        <trkpt lat="28.1166037" lon="105.7660384"><ele>1701.76</ele><time>2026-05-23T17:35:14.000Z</time></trkpt>
        <trkpt lat="28.1165534" lon="105.765942"><ele>1701.76</ele><time>2026-05-23T17:35:20.000Z</time></trkpt>
        <trkpt lat="28.1165207" lon="105.7658489"><ele>1701.89</ele><time>2026-05-23T17:35:34.000Z</time></trkpt>
        <trkpt lat="28.1164545" lon="105.7657705"><ele>1702.72</ele><time>2026-05-23T17:35:46.000Z</time></trkpt>
        <trkpt lat="28.1163697" lon="105.765701"><ele>1702.97</ele><time>2026-05-23T17:35:56.000Z</time></trkpt>
        <trkpt lat="28.1163101" lon="105.7656105"><ele>1703.68</ele><time>2026-05-23T17:36:12.000Z</time></trkpt>
        <trkpt lat="28.1162347" lon="105.7655469"><ele>1703.48</ele><time>2026-05-23T17:36:22.000Z</time></trkpt>
        <trkpt lat="28.1162027" lon="105.7655218"><ele>1703.01</ele><time>2026-05-23T17:36:29.000Z</time></trkpt>
        <trkpt lat="28.1161544" lon="105.7654623"><ele>1703.11</ele><time>2026-05-23T17:36:54.000Z</time></trkpt>
        <trkpt lat="28.1160744" lon="105.7654372"><ele>1701.79</ele><time>2026-05-23T17:37:02.000Z</time></trkpt>
        <trkpt lat="28.1159896" lon="105.7653884"><ele>1703.11</ele><time>2026-05-23T17:37:12.000Z</time></trkpt>
        <trkpt lat="28.1158833" lon="105.7653641"><ele>1702.91</ele><time>2026-05-23T17:37:34.000Z</time></trkpt>
        <trkpt lat="28.1158071" lon="105.7653049"><ele>1702.66</ele><time>2026-05-23T17:37:44.000Z</time></trkpt>
        <trkpt lat="28.1157462" lon="105.7652247"><ele>1702.68</ele><time>2026-05-23T17:37:57.000Z</time></trkpt>
        <trkpt lat="28.1156617" lon="105.7651707"><ele>1701.96</ele><time>2026-05-23T17:38:56.000Z</time></trkpt>
        <trkpt lat="28.115578" lon="105.765091"><ele>1701.58</ele><time>2026-05-23T17:39:07.000Z</time></trkpt>
        <trkpt lat="28.1155418" lon="105.7650575"><ele>1701.12</ele><time>2026-05-23T17:39:12.000Z</time></trkpt>
        <trkpt lat="28.1154951" lon="105.7649907"><ele>1700.82</ele><time>2026-05-23T17:40:13.000Z</time></trkpt>
        <trkpt lat="28.1154452" lon="105.7649021"><ele>1700.26</ele><time>2026-05-23T17:41:26.000Z</time></trkpt>
        <trkpt lat="28.1153629" lon="105.7648437"><ele>1696.76</ele><time>2026-05-23T17:42:04.000Z</time></trkpt>
        <trkpt lat="28.1152875" lon="105.7647812"><ele>1692.01</ele><time>2026-05-23T17:42:34.000Z</time></trkpt>
        <trkpt lat="28.1151995" lon="105.7647262"><ele>1687.88</ele><time>2026-05-23T17:42:44.000Z</time></trkpt>
        <trkpt lat="28.1151175" lon="105.764654"><ele>1685.37</ele><time>2026-05-23T17:42:52.000Z</time></trkpt>
        <trkpt lat="28.115061" lon="105.7645821"><ele>1682.94</ele><time>2026-05-23T17:43:07.000Z</time></trkpt>
        <trkpt lat="28.1150046" lon="105.7644912"><ele>1680.77</ele><time>2026-05-23T17:43:26.000Z</time></trkpt>
        <trkpt lat="28.1149577" lon="105.7643866"><ele>1678.53</ele><time>2026-05-23T17:43:48.000Z</time></trkpt>
        <trkpt lat="28.1149367" lon="105.7643388"><ele>1676.94</ele><time>2026-05-23T17:43:52.000Z</time></trkpt>
        <trkpt lat="28.1149079" lon="105.7642585"><ele>1676.56</ele><time>2026-05-23T17:44:59.000Z</time></trkpt>
        <trkpt lat="28.1149264" lon="105.7641427"><ele>1677.73</ele><time>2026-05-23T17:45:17.000Z</time></trkpt>
        <trkpt lat="28.1149551" lon="105.7640402"><ele>1677.53</ele><time>2026-05-23T17:45:33.000Z</time></trkpt>
        <trkpt lat="28.1149379" lon="105.7639422"><ele>1678.62</ele><time>2026-05-23T17:45:49.000Z</time></trkpt>
        <trkpt lat="28.1148797" lon="105.763867"><ele>1678</ele><time>2026-05-23T17:46:05.000Z</time></trkpt>
        <trkpt lat="28.1148502" lon="105.7638458"><ele>1676.83</ele><time>2026-05-23T17:46:09.000Z</time></trkpt>
        <trkpt lat="28.1148169" lon="105.7637725"><ele>1676.72</ele><time>2026-05-23T17:46:51.000Z</time></trkpt>
        <trkpt lat="28.1147898" lon="105.7637284"><ele>1676.11</ele><time>2026-05-23T17:47:01.000Z</time></trkpt>
        <trkpt lat="28.1147497" lon="105.7636534"><ele>1675</ele><time>2026-05-23T17:47:39.000Z</time></trkpt>
        <trkpt lat="28.1146917" lon="105.7635685"><ele>1673.01</ele><time>2026-05-23T17:47:51.000Z</time></trkpt>
        <trkpt lat="28.1146225" lon="105.7634879"><ele>1670.01</ele><time>2026-05-23T17:48:09.000Z</time></trkpt>
        <trkpt lat="28.1145699" lon="105.7633955"><ele>1667.25</ele><time>2026-05-23T17:49:57.000Z</time></trkpt>
        <trkpt lat="28.1145348" lon="105.7632983"><ele>1664.4</ele><time>2026-05-23T17:54:05.000Z</time></trkpt>
        <trkpt lat="28.1145036" lon="105.7632013"><ele>1662.1</ele><time>2026-05-23T17:58:33.000Z</time></trkpt>
        <trkpt lat="28.1145427" lon="105.7633036"><ele>1662.59</ele><time>2026-05-23T18:14:28.000Z</time></trkpt>
        <trkpt lat="28.1145887" lon="105.7634059"><ele>1661.55</ele><time>2026-05-23T18:14:44.000Z</time></trkpt>
        <trkpt lat="28.1146324" lon="105.7635"><ele>1660.23</ele><time>2026-05-23T18:14:54.000Z</time></trkpt>
        <trkpt lat="28.1146902" lon="105.7635825"><ele>1660.43</ele><time>2026-05-23T18:15:06.000Z</time></trkpt>
        <trkpt lat="28.1147533" lon="105.7636608"><ele>1661.39</ele><time>2026-05-23T18:15:27.000Z</time></trkpt>
        <trkpt lat="28.1148123" lon="105.7637433"><ele>1663.5</ele><time>2026-05-23T18:15:57.000Z</time></trkpt>
        <trkpt lat="28.1148579" lon="105.7638282"><ele>1666.09</ele><time>2026-05-23T18:16:11.000Z</time></trkpt>
        <trkpt lat="28.1149163" lon="105.7639113"><ele>1668.83</ele><time>2026-05-23T18:16:39.000Z</time></trkpt>
        <trkpt lat="28.1149578" lon="105.7640087"><ele>1672.47</ele><time>2026-05-23T18:16:53.000Z</time></trkpt>
        <trkpt lat="28.1149554" lon="105.7641142"><ele>1674.2</ele><time>2026-05-23T18:17:01.000Z</time></trkpt>
        <trkpt lat="28.1149321" lon="105.7642299"><ele>1674.85</ele><time>2026-05-23T18:17:11.000Z</time></trkpt>
        <trkpt lat="28.1149449" lon="105.7643349"><ele>1675.72</ele><time>2026-05-23T18:17:21.000Z</time></trkpt>
        <trkpt lat="28.1149882" lon="105.7644282"><ele>1675</ele><time>2026-05-23T18:17:29.000Z</time></trkpt>
        <trkpt lat="28.1150548" lon="105.764525"><ele>1673.2</ele><time>2026-05-23T18:17:39.000Z</time></trkpt>
        <trkpt lat="28.1151079" lon="105.7646255"><ele>1673.43</ele><time>2026-05-23T18:17:49.000Z</time></trkpt>
        <trkpt lat="28.1151715" lon="105.7647067"><ele>1675.98</ele><time>2026-05-23T18:17:57.000Z</time></trkpt>
        <trkpt lat="28.1152387" lon="105.7647871"><ele>1676.75</ele><time>2026-05-23T18:18:05.000Z</time></trkpt>
        <trkpt lat="28.1153224" lon="105.7648439"><ele>1677.16</ele><time>2026-05-23T18:18:13.000Z</time></trkpt>
        <trkpt lat="28.1154035" lon="105.7649039"><ele>1677.22</ele><time>2026-05-23T18:18:25.000Z</time></trkpt>
        <trkpt lat="28.1154801" lon="105.7649647"><ele>1677.25</ele><time>2026-05-23T18:18:41.000Z</time></trkpt>
        <trkpt lat="28.1155292" lon="105.7650525"><ele>1678.03</ele><time>2026-05-23T18:19:01.000Z</time></trkpt>
        <trkpt lat="28.1155465" lon="105.7650736"><ele>1680.06</ele><time>2026-05-23T18:19:03.000Z</time></trkpt>
        <trkpt lat="28.1155911" lon="105.7651312"><ele>1680.92</ele><time>2026-05-23T18:19:37.000Z</time></trkpt>
        <trkpt lat="28.115668" lon="105.7651735"><ele>1686.36</ele><time>2026-05-23T18:19:51.000Z</time></trkpt>
        <trkpt lat="28.1157402" lon="105.7652392"><ele>1689.81</ele><time>2026-05-23T18:20:07.000Z</time></trkpt>
        <trkpt lat="28.115833" lon="105.7652885"><ele>1693.5</ele><time>2026-05-23T18:20:25.000Z</time></trkpt>
        <trkpt lat="28.1159023" lon="105.7653672"><ele>1695.58</ele><time>2026-05-23T18:20:43.000Z</time></trkpt>
        <trkpt lat="28.1159859" lon="105.7654361"><ele>1696.77</ele><time>2026-05-23T18:21:01.000Z</time></trkpt>
        <trkpt lat="28.1160751" lon="105.7654917"><ele>1698.73</ele><time>2026-05-23T18:21:13.000Z</time></trkpt>
        <trkpt lat="28.1161681" lon="105.7655472"><ele>1699.74</ele><time>2026-05-23T18:21:27.000Z</time></trkpt>
        <trkpt lat="28.1162586" lon="105.7656072"><ele>1701.24</ele><time>2026-05-23T18:21:39.000Z</time></trkpt>
        <trkpt lat="28.1163329" lon="105.7656719"><ele>1701.38</ele><time>2026-05-23T18:21:51.000Z</time></trkpt>
        <trkpt lat="28.1164105" lon="105.7657391"><ele>1701.28</ele><time>2026-05-23T18:22:03.000Z</time></trkpt>
        <trkpt lat="28.1164879" lon="105.7657948"><ele>1700.97</ele><time>2026-05-23T18:22:13.000Z</time></trkpt>
        <trkpt lat="28.1165677" lon="105.7658504"><ele>1700.16</ele><time>2026-05-23T18:22:25.000Z</time></trkpt>
        <trkpt lat="28.1166417" lon="105.765918"><ele>1699.47</ele><time>2026-05-23T18:22:37.000Z</time></trkpt>
        <trkpt lat="28.1167182" lon="105.7659916"><ele>1699.29</ele><time>2026-05-23T18:22:51.000Z</time></trkpt>
        <trkpt lat="28.1167986" lon="105.7660688"><ele>1699.68</ele><time>2026-05-23T18:23:05.000Z</time></trkpt>
        <trkpt lat="28.1168278" lon="105.76613"><ele>1701.06</ele><time>2026-05-23T18:23:15.000Z</time></trkpt>
        <trkpt lat="28.116897" lon="105.7661402"><ele>1701.13</ele><time>2026-05-23T18:23:41.000Z</time></trkpt>
        <trkpt lat="28.1169144" lon="105.7662276"><ele>1702.1</ele><time>2026-05-23T18:26:01.000Z</time></trkpt>
        <trkpt lat="28.116971" lon="105.7662404"><ele>1701.95</ele><time>2026-05-23T18:28:41.000Z</time></trkpt>
        <trkpt lat="28.1169744" lon="105.7663034"><ele>1701.36</ele><time>2026-05-23T18:28:47.000Z</time></trkpt>
        <trkpt lat="28.1169674" lon="105.7662882"><ele>1701.17</ele><time>2026-05-23T18:28:49.000Z</time></trkpt>
        <trkpt lat="28.1169948" lon="105.7663182"><ele>1700.5</ele><time>2026-05-23T18:28:57.000Z</time></trkpt>
        <trkpt lat="28.1170456" lon="105.766332"><ele>1701.57</ele><time>2026-05-23T18:29:03.000Z</time></trkpt>
        <trkpt lat="28.1170858" lon="105.7663345"><ele>1702.55</ele><time>2026-05-23T18:29:09.000Z</time></trkpt>
        <trkpt lat="28.1171362" lon="105.7663297"><ele>1703.04</ele><time>2026-05-23T18:29:19.000Z</time></trkpt>
        <trkpt lat="28.1171532" lon="105.7662592"><ele>1703.45</ele><time>2026-05-23T18:30:37.000Z</time></trkpt>
        <trkpt lat="28.1171737" lon="105.7662433"><ele>1702.29</ele><time>2026-05-23T18:30:41.000Z</time></trkpt>
        <trkpt lat="28.1171982" lon="105.7661927"><ele>1702.17</ele><time>2026-05-23T18:30:49.000Z</time></trkpt>
        <trkpt lat="28.1172335" lon="105.7661484"><ele>1702.38</ele><time>2026-05-23T18:31:09.000Z</time></trkpt>
        <trkpt lat="28.117267" lon="105.7661014"><ele>1702.38</ele><time>2026-05-23T18:31:13.000Z</time></trkpt>
        <trkpt lat="28.1173065" lon="105.7660498"><ele>1702.1</ele><time>2026-05-23T18:31:25.000Z</time></trkpt>
        <trkpt lat="28.1173623" lon="105.7660335"><ele>1702.59</ele><time>2026-05-23T18:31:31.000Z</time></trkpt>
        <trkpt lat="28.1174181" lon="105.7660418"><ele>1702.69</ele><time>2026-05-23T18:31:37.000Z</time></trkpt>
        <trkpt lat="28.117467" lon="105.7660703"><ele>1702.65</ele><time>2026-05-23T18:31:53.000Z</time></trkpt>
        <trkpt lat="28.1174962" lon="105.7660849"><ele>1701.89</ele><time>2026-05-23T18:31:57.000Z</time></trkpt>
        <trkpt lat="28.1175408" lon="105.7660793"><ele>1701.71</ele><time>2026-05-23T18:32:29.000Z</time></trkpt>
        <trkpt lat="28.1175936" lon="105.7660787"><ele>1700.81</ele><time>2026-05-23T18:32:35.000Z</time></trkpt>
        <trkpt lat="28.1176388" lon="105.766105"><ele>1699.46</ele><time>2026-05-23T18:32:39.000Z</time></trkpt>
        <trkpt lat="28.1176915" lon="105.7661254"><ele>1697.97</ele><time>2026-05-23T18:32:49.000Z</time></trkpt>
        <trkpt lat="28.1176997" lon="105.7661387"><ele>1694.23</ele><time>2026-05-23T18:32:51.000Z</time></trkpt>
        <trkpt lat="28.1177346" lon="105.766169"><ele>1691.59</ele><time>2026-05-23T18:33:07.000Z</time></trkpt>
        <trkpt lat="28.117782" lon="105.7661935"><ele>1689.15</ele><time>2026-05-23T18:33:11.000Z</time></trkpt>
        <trkpt lat="28.1178405" lon="105.7661971"><ele>1687.86</ele><time>2026-05-23T18:33:15.000Z</time></trkpt>
        <trkpt lat="28.1178992" lon="105.7662026"><ele>1687.89</ele><time>2026-05-23T18:33:19.000Z</time></trkpt>
        <trkpt lat="28.1179629" lon="105.7661843"><ele>1687.81</ele><time>2026-05-23T18:33:23.000Z</time></trkpt>
        <trkpt lat="28.1180169" lon="105.7661698"><ele>1686.77</ele><time>2026-05-23T18:33:27.000Z</time></trkpt>
        <trkpt lat="28.1180723" lon="105.7661534"><ele>1686.64</ele><time>2026-05-23T18:33:33.000Z</time></trkpt>
        <trkpt lat="28.118121" lon="105.7661289"><ele>1687.28</ele><time>2026-05-23T18:33:39.000Z</time></trkpt>
        <trkpt lat="28.1181713" lon="105.7661231"><ele>1687.27</ele><time>2026-05-23T18:33:51.000Z</time></trkpt>
        <trkpt lat="28.1182325" lon="105.7661061"><ele>1686.51</ele><time>2026-05-23T18:33:55.000Z</time></trkpt>
        <trkpt lat="28.1182794" lon="105.7660729"><ele>1686.1</ele><time>2026-05-23T18:33:59.000Z</time></trkpt>
        <trkpt lat="28.1183349" lon="105.7660464"><ele>1686.12</ele><time>2026-05-23T18:34:05.000Z</time></trkpt>
        <trkpt lat="28.1183773" lon="105.7660048"><ele>1685.53</ele><time>2026-05-23T18:34:11.000Z</time></trkpt>
        <trkpt lat="28.1183872" lon="105.7659967"><ele>1685.18</ele><time>2026-05-23T18:34:13.000Z</time></trkpt>
        <trkpt lat="28.1184135" lon="105.7659507"><ele>1685.63</ele><time>2026-05-23T18:34:23.000Z</time></trkpt>
        <trkpt lat="28.1184263" lon="105.7658928"><ele>1685.83</ele><time>2026-05-23T18:34:27.000Z</time></trkpt>
        <trkpt lat="28.1184385" lon="105.7658387"><ele>1685.43</ele><time>2026-05-23T18:34:31.000Z</time></trkpt>
        <trkpt lat="28.1184503" lon="105.7658197"><ele>1685.32</ele><time>2026-05-23T18:34:33.000Z</time></trkpt>
        <trkpt lat="28.1184772" lon="105.7657853"><ele>1685.49</ele><time>2026-05-23T18:34:39.000Z</time></trkpt>
        <trkpt lat="28.1185119" lon="105.765751"><ele>1685.88</ele><time>2026-05-23T18:34:45.000Z</time></trkpt>
        <trkpt lat="28.1185549" lon="105.7657274"><ele>1687.25</ele><time>2026-05-23T18:34:51.000Z</time></trkpt>
        <trkpt lat="28.1185855" lon="105.7656806"><ele>1689.12</ele><time>2026-05-23T18:35:01.000Z</time></trkpt>
        <trkpt lat="28.1186057" lon="105.7656286"><ele>1691.52</ele><time>2026-05-23T18:35:11.000Z</time></trkpt>
        <trkpt lat="28.1186209" lon="105.765578"><ele>1693.19</ele><time>2026-05-23T18:35:19.000Z</time></trkpt>
        <trkpt lat="28.1186485" lon="105.7655314"><ele>1694.62</ele><time>2026-05-23T18:35:31.000Z</time></trkpt>
        <trkpt lat="28.1186847" lon="105.7654856"><ele>1696.3</ele><time>2026-05-23T18:35:39.000Z</time></trkpt>
        <trkpt lat="28.1187005" lon="105.7654276"><ele>1697.42</ele><time>2026-05-23T18:35:45.000Z</time></trkpt>
        <trkpt lat="28.1187177" lon="105.7653763"><ele>1698.1</ele><time>2026-05-23T18:35:51.000Z</time></trkpt>
        <trkpt lat="28.1187367" lon="105.7653262"><ele>1696.9</ele><time>2026-05-23T18:35:59.000Z</time></trkpt>
        <trkpt lat="28.1187475" lon="105.7652757"><ele>1696.03</ele><time>2026-05-23T18:36:07.000Z</time></trkpt>
        <trkpt lat="28.1187572" lon="105.7652146"><ele>1694.96</ele><time>2026-05-23T18:36:15.000Z</time></trkpt>
        <trkpt lat="28.1187188" lon="105.7651825"><ele>1693.16</ele><time>2026-05-23T18:36:27.000Z</time></trkpt>
        <trkpt lat="28.1186743" lon="105.7651445"><ele>1692.07</ele><time>2026-05-23T18:36:35.000Z</time></trkpt>
        <trkpt lat="28.1186432" lon="105.76509"><ele>1690.25</ele><time>2026-05-23T18:36:41.000Z</time></trkpt>
        <trkpt lat="28.1186172" lon="105.7650299"><ele>1689.01</ele><time>2026-05-23T18:36:47.000Z</time></trkpt>
        <trkpt lat="28.1185986" lon="105.7649746"><ele>1687.91</ele><time>2026-05-23T18:36:51.000Z</time></trkpt>
        <trkpt lat="28.1185872" lon="105.7649117"><ele>1687.27</ele><time>2026-05-23T18:36:59.000Z</time></trkpt>
        <trkpt lat="28.1185718" lon="105.7648581"><ele>1686.79</ele><time>2026-05-23T18:37:03.000Z</time></trkpt>
        <trkpt lat="28.1185699" lon="105.764798"><ele>1686.56</ele><time>2026-05-23T18:37:09.000Z</time></trkpt>
        <trkpt lat="28.1185678" lon="105.7647233"><ele>1686.54</ele><time>2026-05-23T18:37:15.000Z</time></trkpt>
        <trkpt lat="28.1185643" lon="105.7646431"><ele>1686.86</ele><time>2026-05-23T18:37:21.000Z</time></trkpt>
        <trkpt lat="28.1185612" lon="105.7646167"><ele>1686.43</ele><time>2026-05-23T18:37:23.000Z</time></trkpt>
        <trkpt lat="28.1185492" lon="105.7645661"><ele>1685.48</ele><time>2026-05-23T18:37:29.000Z</time></trkpt>
        <trkpt lat="28.1185544" lon="105.7645042"><ele>1685.73</ele><time>2026-05-23T18:37:35.000Z</time></trkpt>
        <trkpt lat="28.1185617" lon="105.7644426"><ele>1686.38</ele><time>2026-05-23T18:37:41.000Z</time></trkpt>
        <trkpt lat="28.1185563" lon="105.7643748"><ele>1686.19</ele><time>2026-05-23T18:37:47.000Z</time></trkpt>
        <trkpt lat="28.1185616" lon="105.7643108"><ele>1685.57</ele><time>2026-05-23T18:37:54.000Z</time></trkpt>
        <trkpt lat="28.1185873" lon="105.7642518"><ele>1684.47</ele><time>2026-05-23T18:38:00.000Z</time></trkpt>
        <trkpt lat="28.118631" lon="105.7642074"><ele>1683.33</ele><time>2026-05-23T18:38:06.000Z</time></trkpt>
        <trkpt lat="28.1186776" lon="105.7641805"><ele>1682.54</ele><time>2026-05-23T18:38:10.000Z</time></trkpt>
        <trkpt lat="28.1187119" lon="105.7641423"><ele>1682.55</ele><time>2026-05-23T18:38:18.000Z</time></trkpt>
        <trkpt lat="28.1187521" lon="105.7641163"><ele>1682.75</ele><time>2026-05-23T18:38:22.000Z</time></trkpt>
        <trkpt lat="28.1187865" lon="105.7640729"><ele>1683.77</ele><time>2026-05-23T18:38:28.000Z</time></trkpt>
        <trkpt lat="28.1188323" lon="105.7640864"><ele>1684.99</ele><time>2026-05-23T18:38:34.000Z</time></trkpt>
        <trkpt lat="28.1188746" lon="105.7640765"><ele>1686.03</ele><time>2026-05-23T18:38:40.000Z</time></trkpt>
        <trkpt lat="28.1189112" lon="105.7640491"><ele>1686.16</ele><time>2026-05-23T18:38:52.000Z</time></trkpt>
        <trkpt lat="28.1189537" lon="105.7640367"><ele>1687.22</ele><time>2026-05-23T18:39:12.000Z</time></trkpt>
        <trkpt lat="28.1189983" lon="105.7640284"><ele>1688.73</ele><time>2026-05-23T18:39:52.000Z</time></trkpt>
        <trkpt lat="28.1190458" lon="105.7640211"><ele>1690.73</ele><time>2026-05-23T18:40:14.000Z</time></trkpt>
        <trkpt lat="28.1190865" lon="105.7639962"><ele>1693.49</ele><time>2026-05-23T18:40:18.000Z</time></trkpt>
        <trkpt lat="28.1190991" lon="105.7639833"><ele>1695.34</ele><time>2026-05-23T18:40:20.000Z</time></trkpt>
        <trkpt lat="28.1190631" lon="105.7639861"><ele>1696.19</ele><time>2026-05-23T18:40:32.000Z</time></trkpt>
        <trkpt lat="28.1190628" lon="105.7639445"><ele>1698.45</ele><time>2026-05-23T18:40:36.000Z</time></trkpt>
        <trkpt lat="28.1190931" lon="105.7638926"><ele>1698.79</ele><time>2026-05-23T18:40:46.000Z</time></trkpt>
        <trkpt lat="28.1191321" lon="105.7638318"><ele>1698.99</ele><time>2026-05-23T18:40:52.000Z</time></trkpt>
        <trkpt lat="28.1191495" lon="105.763794"><ele>1699.9</ele><time>2026-05-23T18:40:58.000Z</time></trkpt>
        <trkpt lat="28.1191872" lon="105.7637857"><ele>1700.93</ele><time>2026-05-23T18:41:14.000Z</time></trkpt>
        <trkpt lat="28.1192398" lon="105.7637779"><ele>1702.39</ele><time>2026-05-23T18:41:26.000Z</time></trkpt>
        <trkpt lat="28.1192543" lon="105.7637395"><ele>1704.96</ele><time>2026-05-23T18:41:32.000Z</time></trkpt>
        <trkpt lat="28.1192685" lon="105.763687"><ele>1706.69</ele><time>2026-05-23T18:41:48.000Z</time></trkpt>
        <trkpt lat="28.1192749" lon="105.7636264"><ele>1708.51</ele><time>2026-05-23T18:41:56.000Z</time></trkpt>
        <trkpt lat="28.1193026" lon="105.7635856"><ele>1711.03</ele><time>2026-05-23T18:42:02.000Z</time></trkpt>
        <trkpt lat="28.1193063" lon="105.7635337"><ele>1713.36</ele><time>2026-05-23T18:42:10.000Z</time></trkpt>
        <trkpt lat="28.1192894" lon="105.7634687"><ele>1716.18</ele><time>2026-05-23T18:42:18.000Z</time></trkpt>
        <trkpt lat="28.1192722" lon="105.7634122"><ele>1717.77</ele><time>2026-05-23T18:42:24.000Z</time></trkpt>
        <trkpt lat="28.1192483" lon="105.7633507"><ele>1719.23</ele><time>2026-05-23T18:42:30.000Z</time></trkpt>
        <trkpt lat="28.1192676" lon="105.7632962"><ele>1721.52</ele><time>2026-05-23T18:42:36.000Z</time></trkpt>
        <trkpt lat="28.1192974" lon="105.763248"><ele>1722.35</ele><time>2026-05-23T18:42:42.000Z</time></trkpt>
        <trkpt lat="28.1193388" lon="105.7632082"><ele>1723.21</ele><time>2026-05-23T18:42:48.000Z</time></trkpt>
        <trkpt lat="28.1193864" lon="105.763194"><ele>1722.54</ele><time>2026-05-23T18:42:52.000Z</time></trkpt>
        <trkpt lat="28.1194208" lon="105.7631583"><ele>1722.42</ele><time>2026-05-23T18:43:00.000Z</time></trkpt>
        <trkpt lat="28.1194531" lon="105.7631158"><ele>1722.53</ele><time>2026-05-23T18:43:12.000Z</time></trkpt>
        <trkpt lat="28.1194701" lon="105.7630659"><ele>1723.59</ele><time>2026-05-23T18:43:20.000Z</time></trkpt>
        <trkpt lat="28.1194698" lon="105.7630483"><ele>1725.49</ele><time>2026-05-23T18:43:22.000Z</time></trkpt>
        <trkpt lat="28.1194628" lon="105.7630075"><ele>1726.74</ele><time>2026-05-23T18:43:34.000Z</time></trkpt>
        <trkpt lat="28.1194866" lon="105.762969"><ele>1729.97</ele><time>2026-05-23T18:43:40.000Z</time></trkpt>
        <trkpt lat="28.1195292" lon="105.7629429"><ele>1731.99</ele><time>2026-05-23T18:43:50.000Z</time></trkpt>
        <trkpt lat="28.1195822" lon="105.7629141"><ele>1734.07</ele><time>2026-05-23T18:44:00.000Z</time></trkpt>
        <trkpt lat="28.1196156" lon="105.76286"><ele>1736.43</ele><time>2026-05-23T18:44:06.000Z</time></trkpt>
        <trkpt lat="28.1196556" lon="105.7628075"><ele>1738.64</ele><time>2026-05-23T18:44:14.000Z</time></trkpt>
        <trkpt lat="28.119703" lon="105.7627758"><ele>1739.67</ele><time>2026-05-23T18:44:20.000Z</time></trkpt>
        <trkpt lat="28.1197597" lon="105.762771"><ele>1740.71</ele><time>2026-05-23T18:44:25.000Z</time></trkpt>
        <trkpt lat="28.1198166" lon="105.7627679"><ele>1740.99</ele><time>2026-05-23T18:44:31.000Z</time></trkpt>
        <trkpt lat="28.119872" lon="105.7627717"><ele>1740.62</ele><time>2026-05-23T18:44:39.000Z</time></trkpt>
        <trkpt lat="28.1199208" lon="105.762769"><ele>1739.87</ele><time>2026-05-23T18:44:45.000Z</time></trkpt>
        <trkpt lat="28.1199405" lon="105.7628133"><ele>1739.74</ele><time>2026-05-23T18:44:55.000Z</time></trkpt>
        <trkpt lat="28.1199538" lon="105.7628696"><ele>1738.4</ele><time>2026-05-23T18:45:05.000Z</time></trkpt>
        <trkpt lat="28.1199896" lon="105.7629049"><ele>1738.3</ele><time>2026-05-23T18:45:15.000Z</time></trkpt>
        <trkpt lat="28.1200397" lon="105.7629236"><ele>1739.96</ele><time>2026-05-23T18:45:23.000Z</time></trkpt>
        <trkpt lat="28.1201026" lon="105.7629422"><ele>1741.13</ele><time>2026-05-23T18:45:29.000Z</time></trkpt>
        <trkpt lat="28.1201588" lon="105.7629331"><ele>1741.57</ele><time>2026-05-23T18:45:35.000Z</time></trkpt>
        <trkpt lat="28.1202104" lon="105.7629246"><ele>1741.86</ele><time>2026-05-23T18:45:41.000Z</time></trkpt>
        <trkpt lat="28.1202644" lon="105.7629225"><ele>1741.27</ele><time>2026-05-23T18:45:47.000Z</time></trkpt>
        <trkpt lat="28.1203283" lon="105.7629074"><ele>1740.44</ele><time>2026-05-23T18:45:53.000Z</time></trkpt>
        <trkpt lat="28.1203819" lon="105.7629015"><ele>1739.56</ele><time>2026-05-23T18:45:57.000Z</time></trkpt>
        <trkpt lat="28.1204356" lon="105.762887"><ele>1738.67</ele><time>2026-05-23T18:46:01.000Z</time></trkpt>
        <trkpt lat="28.1204724" lon="105.7628538"><ele>1738.41</ele><time>2026-05-23T18:46:05.000Z</time></trkpt>
        <trkpt lat="28.1204896" lon="105.7628813"><ele>1737.87</ele><time>2026-05-23T18:46:07.000Z</time></trkpt>
        <trkpt lat="28.1204777" lon="105.7629066"><ele>1737.42</ele><time>2026-05-23T18:46:09.000Z</time></trkpt>
        <trkpt lat="28.1204958" lon="105.7628894"><ele>1737.3</ele><time>2026-05-23T18:46:15.000Z</time></trkpt>
        <trkpt lat="28.1205414" lon="105.7628616"><ele>1737.12</ele><time>2026-05-23T18:46:21.000Z</time></trkpt>
        <trkpt lat="28.1205916" lon="105.7628615"><ele>1737.03</ele><time>2026-05-23T18:46:33.000Z</time></trkpt>
        <trkpt lat="28.1206427" lon="105.7628815"><ele>1738.29</ele><time>2026-05-23T18:46:41.000Z</time></trkpt>
        <trkpt lat="28.1206765" lon="105.762853"><ele>1739.62</ele><time>2026-05-23T18:46:47.000Z</time></trkpt>
        <trkpt lat="28.120707" lon="105.7628096"><ele>1740.63</ele><time>2026-05-23T18:46:53.000Z</time></trkpt>
        <trkpt lat="28.1207456" lon="105.7627668"><ele>1741.49</ele><time>2026-05-23T18:46:59.000Z</time></trkpt>
        <trkpt lat="28.1208025" lon="105.7627459"><ele>1742.44</ele><time>2026-05-23T18:47:07.000Z</time></trkpt>
        <trkpt lat="28.120853" lon="105.7627302"><ele>1744.66</ele><time>2026-05-23T18:47:12.000Z</time></trkpt>
        <trkpt lat="28.1209" lon="105.7627224"><ele>1746.46</ele><time>2026-05-23T18:47:18.000Z</time></trkpt>
        <trkpt lat="28.1209561" lon="105.762716"><ele>1746.74</ele><time>2026-05-23T18:47:24.000Z</time></trkpt>
        <trkpt lat="28.1210151" lon="105.7626949"><ele>1747.58</ele><time>2026-05-23T18:47:30.000Z</time></trkpt>
        <trkpt lat="28.1210587" lon="105.7626478"><ele>1748.29</ele><time>2026-05-23T18:47:36.000Z</time></trkpt>
        <trkpt lat="28.1210913" lon="105.7625979"><ele>1748.37</ele><time>2026-05-23T18:47:42.000Z</time></trkpt>
        <trkpt lat="28.1211126" lon="105.7625403"><ele>1748.09</ele><time>2026-05-23T18:47:46.000Z</time></trkpt>
        <trkpt lat="28.1211357" lon="105.7624914"><ele>1748.06</ele><time>2026-05-23T18:47:50.000Z</time></trkpt>
        <trkpt lat="28.12117" lon="105.7624442"><ele>1748.61</ele><time>2026-05-23T18:47:56.000Z</time></trkpt>
        <trkpt lat="28.1212151" lon="105.762444"><ele>1749.03</ele><time>2026-05-23T18:48:12.000Z</time></trkpt>
        <trkpt lat="28.1212692" lon="105.7624664"><ele>1748.83</ele><time>2026-05-23T18:48:18.000Z</time></trkpt>
        <trkpt lat="28.1212847" lon="105.7624816"><ele>1748.32</ele><time>2026-05-23T18:48:22.000Z</time></trkpt>
        <trkpt lat="28.1213317" lon="105.762497"><ele>1747.37</ele><time>2026-05-23T18:48:44.000Z</time></trkpt>
        <trkpt lat="28.121384" lon="105.7625052"><ele>1748.45</ele><time>2026-05-23T18:49:13.000Z</time></trkpt>
        <trkpt lat="28.1213655" lon="105.7624969"><ele>1749.45</ele><time>2026-05-23T18:49:31.000Z</time></trkpt>
        <trkpt lat="28.1213655" lon="105.7624969"><ele>1749.45</ele><time>2026-05-23T18:50:01.000Z</time></trkpt>
      </trkseg>
      <trkseg>
        <trkpt lat="28.1213656" lon="105.762496"><ele>1748.21</ele><time>2026-05-23T18:50:30.000Z</time></trkpt>
        <trkpt lat="28.1214016" lon="105.7624948"><ele>1748.21</ele><time>2026-05-23T18:51:17.000Z</time></trkpt>
        <trkpt lat="28.121438" lon="105.762467"><ele>1747.62</ele><time>2026-05-23T18:51:21.000Z</time></trkpt>
        <trkpt lat="28.1214819" lon="105.7624196"><ele>1747.54</ele><time>2026-05-23T18:51:27.000Z</time></trkpt>
        <trkpt lat="28.1215175" lon="105.7623714"><ele>1746.47</ele><time>2026-05-23T18:51:31.000Z</time></trkpt>
        <trkpt lat="28.1215504" lon="105.7623121"><ele>1745.8</ele><time>2026-05-23T18:51:37.000Z</time></trkpt>
        <trkpt lat="28.121576" lon="105.7623057"><ele>1746.36</ele><time>2026-05-23T18:51:43.000Z</time></trkpt>
        <trkpt lat="28.1216125" lon="105.7622862"><ele>1747.25</ele><time>2026-05-23T18:51:49.000Z</time></trkpt>
        <trkpt lat="28.1216666" lon="105.7622619"><ele>1748.06</ele><time>2026-05-23T18:51:59.000Z</time></trkpt>
        <trkpt lat="28.1216873" lon="105.7622631"><ele>1746.97</ele><time>2026-05-23T18:52:03.000Z</time></trkpt>
        <trkpt lat="28.1217154" lon="105.7622964"><ele>1745.85</ele><time>2026-05-23T18:52:09.000Z</time></trkpt>
        <trkpt lat="28.1217581" lon="105.762301"><ele>1744.3</ele><time>2026-05-23T18:52:17.000Z</time></trkpt>
        <trkpt lat="28.1218086" lon="105.7623161"><ele>1745.26</ele><time>2026-05-23T18:52:27.000Z</time></trkpt>
        <trkpt lat="28.1218595" lon="105.7623278"><ele>1747.75</ele><time>2026-05-23T18:52:35.000Z</time></trkpt>
        <trkpt lat="28.121917" lon="105.762345"><ele>1750.97</ele><time>2026-05-23T18:52:45.000Z</time></trkpt>
        <trkpt lat="28.1219761" lon="105.7623501"><ele>1753.46</ele><time>2026-05-23T18:52:53.000Z</time></trkpt>
        <trkpt lat="28.1220265" lon="105.7623514"><ele>1754.75</ele><time>2026-05-23T18:52:57.000Z</time></trkpt>
        <trkpt lat="28.1220808" lon="105.7623594"><ele>1755.37</ele><time>2026-05-23T18:53:03.000Z</time></trkpt>
        <trkpt lat="28.122073" lon="105.7623741"><ele>1756.9</ele><time>2026-05-23T18:53:05.000Z</time></trkpt>
        <trkpt lat="28.1221069" lon="105.7623717"><ele>1757.46</ele><time>2026-05-23T18:53:21.000Z</time></trkpt>
        <trkpt lat="28.1221553" lon="105.7623559"><ele>1758</ele><time>2026-05-23T18:53:27.000Z</time></trkpt>
        <trkpt lat="28.1222067" lon="105.7623238"><ele>1758.2</ele><time>2026-05-23T18:53:41.000Z</time></trkpt>
        <trkpt lat="28.1222385" lon="105.7622699"><ele>1758.24</ele><time>2026-05-23T18:53:47.000Z</time></trkpt>
        <trkpt lat="28.1222397" lon="105.7622353"><ele>1757.99</ele><time>2026-05-23T18:53:53.000Z</time></trkpt>
        <trkpt lat="28.1222503" lon="105.7621898"><ele>1758.46</ele><time>2026-05-23T18:54:15.000Z</time></trkpt>
        <trkpt lat="28.1222796" lon="105.762138"><ele>1757.59</ele><time>2026-05-23T18:54:27.000Z</time></trkpt>
        <trkpt lat="28.1223216" lon="105.7621081"><ele>1756.4</ele><time>2026-05-23T18:54:35.000Z</time></trkpt>
        <trkpt lat="28.1223649" lon="105.7620729"><ele>1756.45</ele><time>2026-05-23T18:54:47.000Z</time></trkpt>
        <trkpt lat="28.1224107" lon="105.7620498"><ele>1757.31</ele><time>2026-05-23T18:55:01.000Z</time></trkpt>
        <trkpt lat="28.1224624" lon="105.7620316"><ele>1759.02</ele><time>2026-05-23T18:55:13.000Z</time></trkpt>
        <trkpt lat="28.1225115" lon="105.7620125"><ele>1758.98</ele><time>2026-05-23T18:55:21.000Z</time></trkpt>
        <trkpt lat="28.1225512" lon="105.761984"><ele>1758.54</ele><time>2026-05-23T18:55:37.000Z</time></trkpt>
        <trkpt lat="28.1225964" lon="105.7619536"><ele>1756.87</ele><time>2026-05-23T18:55:43.000Z</time></trkpt>
        <trkpt lat="28.1226495" lon="105.7619235"><ele>1755.3</ele><time>2026-05-23T18:55:49.000Z</time></trkpt>
        <trkpt lat="28.1227014" lon="105.7619021"><ele>1754.58</ele><time>2026-05-23T18:56:07.000Z</time></trkpt>
        <trkpt lat="28.1227557" lon="105.7619063"><ele>1756.15</ele><time>2026-05-23T18:56:15.000Z</time></trkpt>
        <trkpt lat="28.1228093" lon="105.7619017"><ele>1757.8</ele><time>2026-05-23T18:56:29.000Z</time></trkpt>
        <trkpt lat="28.1228608" lon="105.7618957"><ele>1761.18</ele><time>2026-05-23T18:56:37.000Z</time></trkpt>
        <trkpt lat="28.1228995" lon="105.7618586"><ele>1763.21</ele><time>2026-05-23T18:56:59.000Z</time></trkpt>
        <trkpt lat="28.1229203" lon="105.7618099"><ele>1764.37</ele><time>2026-05-23T18:57:08.000Z</time></trkpt>
        <trkpt lat="28.1229291" lon="105.7617489"><ele>1766.02</ele><time>2026-05-23T18:57:18.000Z</time></trkpt>
        <trkpt lat="28.1229381" lon="105.7616883"><ele>1765.49</ele><time>2026-05-23T18:57:24.000Z</time></trkpt>
        <trkpt lat="28.1229485" lon="105.7616295"><ele>1765.12</ele><time>2026-05-23T18:57:36.000Z</time></trkpt>
        <trkpt lat="28.1229729" lon="105.7615781"><ele>1764.56</ele><time>2026-05-23T18:57:44.000Z</time></trkpt>
        <trkpt lat="28.1230036" lon="105.7615221"><ele>1764.5</ele><time>2026-05-23T18:57:52.000Z</time></trkpt>
        <trkpt lat="28.1230324" lon="105.7614718"><ele>1764.1</ele><time>2026-05-23T18:58:00.000Z</time></trkpt>
        <trkpt lat="28.123064" lon="105.7614228"><ele>1763.55</ele><time>2026-05-23T18:58:10.000Z</time></trkpt>
        <trkpt lat="28.1230929" lon="105.7613665"><ele>1762.37</ele><time>2026-05-23T18:58:16.000Z</time></trkpt>
        <trkpt lat="28.1230944" lon="105.7613125"><ele>1761.02</ele><time>2026-05-23T18:58:22.000Z</time></trkpt>
        <trkpt lat="28.1230871" lon="105.7612469"><ele>1760.12</ele><time>2026-05-23T18:58:30.000Z</time></trkpt>
        <trkpt lat="28.1230938" lon="105.7611849"><ele>1758.27</ele><time>2026-05-23T18:58:36.000Z</time></trkpt>
        <trkpt lat="28.1231205" lon="105.7611394"><ele>1756.73</ele><time>2026-05-23T18:58:50.000Z</time></trkpt>
        <trkpt lat="28.1231616" lon="105.7611012"><ele>1757.19</ele><time>2026-05-23T18:59:00.000Z</time></trkpt>
        <trkpt lat="28.1232156" lon="105.7610874"><ele>1757.3</ele><time>2026-05-23T18:59:14.000Z</time></trkpt>
        <trkpt lat="28.1232344" lon="105.7610951"><ele>1758.91</ele><time>2026-05-23T18:59:20.000Z</time></trkpt>
        <trkpt lat="28.1232767" lon="105.7610813"><ele>1760.72</ele><time>2026-05-23T18:59:53.000Z</time></trkpt>
        <trkpt lat="28.123322" lon="105.7610405"><ele>1762.27</ele><time>2026-05-23T19:01:11.000Z</time></trkpt>
        <trkpt lat="28.1233523" lon="105.7610382"><ele>1764.61</ele><time>2026-05-23T19:01:17.000Z</time></trkpt>
        <trkpt lat="28.123395" lon="105.7610297"><ele>1766.75</ele><time>2026-05-23T19:01:37.000Z</time></trkpt>
        <trkpt lat="28.1234416" lon="105.7609861"><ele>1769.58</ele><time>2026-05-23T19:02:21.000Z</time></trkpt>
        <trkpt lat="28.1234539" lon="105.7609265"><ele>1772.61</ele><time>2026-05-23T19:02:27.000Z</time></trkpt>
        <trkpt lat="28.1234724" lon="105.7608716"><ele>1774.99</ele><time>2026-05-23T19:02:45.000Z</time></trkpt>
        <trkpt lat="28.1234571" lon="105.7608233"><ele>1775.47</ele><time>2026-05-23T19:02:51.000Z</time></trkpt>
        <trkpt lat="28.1234368" lon="105.7607723"><ele>1776.24</ele><time>2026-05-23T19:03:05.000Z</time></trkpt>
        <trkpt lat="28.1234247" lon="105.760744"><ele>1775.32</ele><time>2026-05-23T19:03:09.000Z</time></trkpt>
        <trkpt lat="28.1234047" lon="105.7606995"><ele>1775.09</ele><time>2026-05-23T19:03:21.000Z</time></trkpt>
        <trkpt lat="28.1233671" lon="105.7606677"><ele>1774.07</ele><time>2026-05-23T19:04:03.000Z</time></trkpt>
        <trkpt lat="28.1233462" lon="105.7606232"><ele>1774.24</ele><time>2026-05-23T19:04:13.000Z</time></trkpt>
        <trkpt lat="28.123331" lon="105.7605749"><ele>1775.17</ele><time>2026-05-23T19:04:21.000Z</time></trkpt>
        <trkpt lat="28.1233233" lon="105.7605203"><ele>1776.57</ele><time>2026-05-23T19:04:29.000Z</time></trkpt>
        <trkpt lat="28.1233384" lon="105.7604661"><ele>1777.57</ele><time>2026-05-23T19:04:37.000Z</time></trkpt>
        <trkpt lat="28.123371" lon="105.7604255"><ele>1778.16</ele><time>2026-05-23T19:05:27.000Z</time></trkpt>
        <trkpt lat="28.1234144" lon="105.7603839"><ele>1774.77</ele><time>2026-05-23T19:05:39.000Z</time></trkpt>
        <trkpt lat="28.1234638" lon="105.7603739"><ele>1771.58</ele><time>2026-05-23T19:06:17.000Z</time></trkpt>
        <trkpt lat="28.1234505" lon="105.7603475"><ele>1766.5</ele><time>2026-05-23T19:06:31.000Z</time></trkpt>
        <trkpt lat="28.1234406" lon="105.7602878"><ele>1762.91</ele><time>2026-05-23T19:07:45.000Z</time></trkpt>
        <trkpt lat="28.1234907" lon="105.7602809"><ele>1760.56</ele><time>2026-05-23T19:08:07.000Z</time></trkpt>
        <trkpt lat="28.1234983" lon="105.7602249"><ele>1756.7</ele><time>2026-05-23T19:08:19.000Z</time></trkpt>
        <trkpt lat="28.1234827" lon="105.7601655"><ele>1754.26</ele><time>2026-05-23T19:08:33.000Z</time></trkpt>
        <trkpt lat="28.1234594" lon="105.7601125"><ele>1752.79</ele><time>2026-05-23T19:08:53.000Z</time></trkpt>
        <trkpt lat="28.1234835" lon="105.7600818"><ele>1749.75</ele><time>2026-05-23T19:09:09.000Z</time></trkpt>
        <trkpt lat="28.1235083" lon="105.7600401"><ele>1747.82</ele><time>2026-05-23T19:09:33.000Z</time></trkpt>
        <trkpt lat="28.1235344" lon="105.7600189"><ele>1744.23</ele><time>2026-05-23T19:09:41.000Z</time></trkpt>
        <trkpt lat="28.1235605" lon="105.7599744"><ele>1741.95</ele><time>2026-05-23T19:09:53.000Z</time></trkpt>
        <trkpt lat="28.1235971" lon="105.759927"><ele>1739.44</ele><time>2026-05-23T19:10:05.000Z</time></trkpt>
        <trkpt lat="28.1236449" lon="105.7598895"><ele>1737.12</ele><time>2026-05-23T19:10:19.000Z</time></trkpt>
        <trkpt lat="28.1236772" lon="105.7598446"><ele>1733.33</ele><time>2026-05-23T19:10:29.000Z</time></trkpt>
        <trkpt lat="28.1237166" lon="105.7598182"><ele>1729.77</ele><time>2026-05-23T19:11:07.000Z</time></trkpt>
        <trkpt lat="28.1237531" lon="105.7597783"><ele>1725.24</ele><time>2026-05-23T19:11:27.000Z</time></trkpt>
        <trkpt lat="28.1238035" lon="105.7597376"><ele>1721.3</ele><time>2026-05-23T19:11:31.000Z</time></trkpt>
        <trkpt lat="28.1238572" lon="105.7597215"><ele>1718.88</ele><time>2026-05-23T19:11:37.000Z</time></trkpt>
        <trkpt lat="28.1239042" lon="105.7597048"><ele>1716.85</ele><time>2026-05-23T19:11:41.000Z</time></trkpt>
        <trkpt lat="28.1239537" lon="105.7596934"><ele>1715.48</ele><time>2026-05-23T19:11:47.000Z</time></trkpt>
        <trkpt lat="28.1240009" lon="105.7596888"><ele>1715.06</ele><time>2026-05-23T19:11:51.000Z</time></trkpt>
        <trkpt lat="28.124056" lon="105.7596972"><ele>1714.54</ele><time>2026-05-23T19:12:00.000Z</time></trkpt>
        <trkpt lat="28.1241239" lon="105.7597093"><ele>1714.21</ele><time>2026-05-23T19:12:06.000Z</time></trkpt>
        <trkpt lat="28.1241747" lon="105.7597379"><ele>1714.33</ele><time>2026-05-23T19:12:10.000Z</time></trkpt>
        <trkpt lat="28.12422" lon="105.7597683"><ele>1714.84</ele><time>2026-05-23T19:12:18.000Z</time></trkpt>
        <trkpt lat="28.1241682" lon="105.759773"><ele>1716.26</ele><time>2026-05-23T19:13:26.000Z</time></trkpt>
        <trkpt lat="28.124131" lon="105.7597317"><ele>1718.28</ele><time>2026-05-23T19:13:32.000Z</time></trkpt>
        <trkpt lat="28.1240833" lon="105.7597104"><ele>1718.21</ele><time>2026-05-23T19:13:38.000Z</time></trkpt>
        <trkpt lat="28.1240336" lon="105.7597039"><ele>1717.66</ele><time>2026-05-23T19:13:42.000Z</time></trkpt>
        <trkpt lat="28.1239849" lon="105.7597046"><ele>1716.81</ele><time>2026-05-23T19:13:46.000Z</time></trkpt>
        <trkpt lat="28.123934" lon="105.7597123"><ele>1715.64</ele><time>2026-05-23T19:13:50.000Z</time></trkpt>
        <trkpt lat="28.1238864" lon="105.7597293"><ele>1715.58</ele><time>2026-05-23T19:13:54.000Z</time></trkpt>
        <trkpt lat="28.1238395" lon="105.7597623"><ele>1715.51</ele><time>2026-05-23T19:13:58.000Z</time></trkpt>
        <trkpt lat="28.1237877" lon="105.7597891"><ele>1715.65</ele><time>2026-05-23T19:14:06.000Z</time></trkpt>
        <trkpt lat="28.1237463" lon="105.7598189"><ele>1714.95</ele><time>2026-05-23T19:14:12.000Z</time></trkpt>
        <trkpt lat="28.1237013" lon="105.7598353"><ele>1714.52</ele><time>2026-05-23T19:14:18.000Z</time></trkpt>
        <trkpt lat="28.1236608" lon="105.7598575"><ele>1715.76</ele><time>2026-05-23T19:14:24.000Z</time></trkpt>
        <trkpt lat="28.1236404" lon="105.7599009"><ele>1716.78</ele><time>2026-05-23T19:14:54.000Z</time></trkpt>
        <trkpt lat="28.1236769" lon="105.7598627"><ele>1719.63</ele><time>2026-05-23T19:17:54.000Z</time></trkpt>
        <trkpt lat="28.123721" lon="105.7598379"><ele>1720.1</ele><time>2026-05-23T19:18:26.000Z</time></trkpt>
        <trkpt lat="28.1237608" lon="105.759812"><ele>1719.94</ele><time>2026-05-23T19:18:36.000Z</time></trkpt>
        <trkpt lat="28.1238006" lon="105.7597599"><ele>1719.29</ele><time>2026-05-23T19:18:44.000Z</time></trkpt>
        <trkpt lat="28.1238348" lon="105.7597103"><ele>1718.76</ele><time>2026-05-23T19:18:54.000Z</time></trkpt>
        <trkpt lat="28.1238798" lon="105.759693"><ele>1717.21</ele><time>2026-05-23T19:19:00.000Z</time></trkpt>
        <trkpt lat="28.1239274" lon="105.7596941"><ele>1716.12</ele><time>2026-05-23T19:19:06.000Z</time></trkpt>
        <trkpt lat="28.1239778" lon="105.7596985"><ele>1716.14</ele><time>2026-05-23T19:19:14.000Z</time></trkpt>
        <trkpt lat="28.1240307" lon="105.7597057"><ele>1716</ele><time>2026-05-23T19:19:21.000Z</time></trkpt>
        <trkpt lat="28.1240865" lon="105.7597107"><ele>1715.25</ele><time>2026-05-23T19:19:27.000Z</time></trkpt>
        <trkpt lat="28.1241401" lon="105.7597101"><ele>1715.76</ele><time>2026-05-23T19:19:35.000Z</time></trkpt>
        <trkpt lat="28.1241839" lon="105.7597307"><ele>1716.1</ele><time>2026-05-23T19:19:43.000Z</time></trkpt>
        <trkpt lat="28.1242367" lon="105.7597495"><ele>1716.96</ele><time>2026-05-23T19:19:51.000Z</time></trkpt>
        <trkpt lat="28.1242785" lon="105.7597241"><ele>1718.12</ele><time>2026-05-23T19:20:01.000Z</time></trkpt>
        <trkpt lat="28.1243227" lon="105.7596957"><ele>1719.73</ele><time>2026-05-23T19:20:09.000Z</time></trkpt>
        <trkpt lat="28.1243674" lon="105.7596624"><ele>1720.29</ele><time>2026-05-23T19:20:15.000Z</time></trkpt>
        <trkpt lat="28.1244084" lon="105.7596209"><ele>1720.66</ele><time>2026-05-23T19:20:23.000Z</time></trkpt>
        <trkpt lat="28.1244531" lon="105.7595914"><ele>1720.77</ele><time>2026-05-23T19:20:31.000Z</time></trkpt>
        <trkpt lat="28.1245053" lon="105.759568"><ele>1721.35</ele><time>2026-05-23T19:20:39.000Z</time></trkpt>
        <trkpt lat="28.1245577" lon="105.759544"><ele>1721.7</ele><time>2026-05-23T19:20:47.000Z</time></trkpt>
        <trkpt lat="28.1246122" lon="105.7595333"><ele>1721.96</ele><time>2026-05-23T19:20:55.000Z</time></trkpt>
        <trkpt lat="28.1246597" lon="105.759521"><ele>1722.52</ele><time>2026-05-23T19:21:03.000Z</time></trkpt>
        <trkpt lat="28.1247126" lon="105.7595106"><ele>1722.96</ele><time>2026-05-23T19:21:15.000Z</time></trkpt>
        <trkpt lat="28.1247267" lon="105.7595086"><ele>1723.8</ele><time>2026-05-23T19:21:17.000Z</time></trkpt>
        <trkpt lat="28.1247652" lon="105.7594837"><ele>1724.28</ele><time>2026-05-23T19:21:57.000Z</time></trkpt>
        <trkpt lat="28.1248195" lon="105.7594887"><ele>1721.65</ele><time>2026-05-23T19:22:09.000Z</time></trkpt>
        <trkpt lat="28.1248753" lon="105.75951"><ele>1719.33</ele><time>2026-05-23T19:22:17.000Z</time></trkpt>
        <trkpt lat="28.1249288" lon="105.7595287"><ele>1719.13</ele><time>2026-05-23T19:22:23.000Z</time></trkpt>
        <trkpt lat="28.1249768" lon="105.7595387"><ele>1718.96</ele><time>2026-05-23T19:22:29.000Z</time></trkpt>
        <trkpt lat="28.1250173" lon="105.7595136"><ele>1719.28</ele><time>2026-05-23T19:22:41.000Z</time></trkpt>
        <trkpt lat="28.1250529" lon="105.7594772"><ele>1720.59</ele><time>2026-05-23T19:22:57.000Z</time></trkpt>
        <trkpt lat="28.1250721" lon="105.7594279"><ele>1723.06</ele><time>2026-05-23T19:23:07.000Z</time></trkpt>
        <trkpt lat="28.1250632" lon="105.7593655"><ele>1725.47</ele><time>2026-05-23T19:23:19.000Z</time></trkpt>
        <trkpt lat="28.1250555" lon="105.7592935"><ele>1728.16</ele><time>2026-05-23T19:23:35.000Z</time></trkpt>
        <trkpt lat="28.125048" lon="105.7592601"><ele>1730.58</ele><time>2026-05-23T19:23:41.000Z</time></trkpt>
        <trkpt lat="28.125048" lon="105.7592601"><ele>1730.58</ele><time>2026-05-23T19:23:41.000Z</time></trkpt>
        <trkpt lat="28.1250348" lon="105.7592759"><ele>1734.27</ele><time>2026-05-23T19:32:08.000Z</time></trkpt>
        <trkpt lat="28.1250348" lon="105.7592759"><ele>1734.27</ele><time>2026-05-23T19:32:08.000Z</time></trkpt>
        <trkpt lat="28.1250846" lon="105.7592753"><ele>1734.27</ele><time>2026-05-23T19:43:35.000Z</time></trkpt>
        <trkpt lat="28.1251353" lon="105.7592898"><ele>1732.91</ele><time>2026-05-23T19:43:47.000Z</time></trkpt>
        <trkpt lat="28.1251862" lon="105.7593016"><ele>1731.94</ele><time>2026-05-23T19:44:01.000Z</time></trkpt>
        <trkpt lat="28.125227" lon="105.7592816"><ele>1730.94</ele><time>2026-05-23T19:44:07.000Z</time></trkpt>
        <trkpt lat="28.1252693" lon="105.7592832"><ele>1730.85</ele><time>2026-05-23T19:44:19.000Z</time></trkpt>
        <trkpt lat="28.1253186" lon="105.7592678"><ele>1729.86</ele><time>2026-05-23T19:44:27.000Z</time></trkpt>
        <trkpt lat="28.1253645" lon="105.7592426"><ele>1729.31</ele><time>2026-05-23T19:44:35.000Z</time></trkpt>
        <trkpt lat="28.1254104" lon="105.7592057"><ele>1728.8</ele><time>2026-05-23T19:44:43.000Z</time></trkpt>
        <trkpt lat="28.1254538" lon="105.7591654"><ele>1728.1</ele><time>2026-05-23T19:44:49.000Z</time></trkpt>
        <trkpt lat="28.1254965" lon="105.7591685"><ele>1727.25</ele><time>2026-05-23T19:45:31.000Z</time></trkpt>
        <trkpt lat="28.1255448" lon="105.7591875"><ele>1725.67</ele><time>2026-05-23T19:45:39.000Z</time></trkpt>
        <trkpt lat="28.1255873" lon="105.7592162"><ele>1724.94</ele><time>2026-05-23T19:45:45.000Z</time></trkpt>
        <trkpt lat="28.1256379" lon="105.7592278"><ele>1725.42</ele><time>2026-05-23T19:45:55.000Z</time></trkpt>
        <trkpt lat="28.1256924" lon="105.7592237"><ele>1725.97</ele><time>2026-05-23T19:46:03.000Z</time></trkpt>
        <trkpt lat="28.1257409" lon="105.7592252"><ele>1726.26</ele><time>2026-05-23T19:46:09.000Z</time></trkpt>
        <trkpt lat="28.1257864" lon="105.7592317"><ele>1726.21</ele><time>2026-05-23T19:46:17.000Z</time></trkpt>
        <trkpt lat="28.1258361" lon="105.7592452"><ele>1725.31</ele><time>2026-05-23T19:46:29.000Z</time></trkpt>
        <trkpt lat="28.1258906" lon="105.759255"><ele>1724.09</ele><time>2026-05-23T19:46:41.000Z</time></trkpt>
        <trkpt lat="28.1259428" lon="105.7592604"><ele>1722.17</ele><time>2026-05-23T19:46:49.000Z</time></trkpt>
        <trkpt lat="28.1259876" lon="105.7592773"><ele>1720.17</ele><time>2026-05-23T19:47:07.000Z</time></trkpt>
        <trkpt lat="28.126014" lon="105.7592844"><ele>1718.37</ele><time>2026-05-23T19:47:15.000Z</time></trkpt>
        <trkpt lat="28.126057" lon="105.7593004"><ele>1718.17</ele><time>2026-05-23T19:47:41.000Z</time></trkpt>
        <trkpt lat="28.1261041" lon="105.7593115"><ele>1718.8</ele><time>2026-05-23T19:47:49.000Z</time></trkpt>
        <trkpt lat="28.1261527" lon="105.7593296"><ele>1719.13</ele><time>2026-05-23T19:47:59.000Z</time></trkpt>
        <trkpt lat="28.1261987" lon="105.7593572"><ele>1719.07</ele><time>2026-05-23T19:48:07.000Z</time></trkpt>
        <trkpt lat="28.1262423" lon="105.7593907"><ele>1720.06</ele><time>2026-05-23T19:48:15.000Z</time></trkpt>
        <trkpt lat="28.1262874" lon="105.7594083"><ele>1720.88</ele><time>2026-05-23T19:48:21.000Z</time></trkpt>
        <trkpt lat="28.1263345" lon="105.7594219"><ele>1722.08</ele><time>2026-05-23T19:48:27.000Z</time></trkpt>
        <trkpt lat="28.1263866" lon="105.7594264"><ele>1723.71</ele><time>2026-05-23T19:48:37.000Z</time></trkpt>
        <trkpt lat="28.1264407" lon="105.7594181"><ele>1725.59</ele><time>2026-05-23T19:48:43.000Z</time></trkpt>
        <trkpt lat="28.1264908" lon="105.7594113"><ele>1726.71</ele><time>2026-05-23T19:48:49.000Z</time></trkpt>
        <trkpt lat="28.1265043" lon="105.759434"><ele>1728.22</ele><time>2026-05-23T19:48:57.000Z</time></trkpt>
        <trkpt lat="28.1265416" lon="105.7594362"><ele>1728.42</ele><time>2026-05-23T19:49:03.000Z</time></trkpt>
        <trkpt lat="28.126525" lon="105.759408"><ele>1728.25</ele><time>2026-05-23T19:50:01.000Z</time></trkpt>
        <trkpt lat="28.1265506" lon="105.7593742"><ele>1728.15</ele><time>2026-05-23T19:50:17.000Z</time></trkpt>
        <trkpt lat="28.1265981" lon="105.759359"><ele>1727.35</ele><time>2026-05-23T19:50:25.000Z</time></trkpt>
        <trkpt lat="28.1266528" lon="105.7593586"><ele>1726.17</ele><time>2026-05-23T19:50:31.000Z</time></trkpt>
        <trkpt lat="28.1267096" lon="105.759349"><ele>1726.02</ele><time>2026-05-23T19:50:37.000Z</time></trkpt>
        <trkpt lat="28.1267536" lon="105.759322"><ele>1726.35</ele><time>2026-05-23T19:50:43.000Z</time></trkpt>
        <trkpt lat="28.1268051" lon="105.7592876"><ele>1727.25</ele><time>2026-05-23T19:50:55.000Z</time></trkpt>
        <trkpt lat="28.1268593" lon="105.7592605"><ele>1727.8</ele><time>2026-05-23T19:51:03.000Z</time></trkpt>
        <trkpt lat="28.1269001" lon="105.7592293"><ele>1727.83</ele><time>2026-05-23T19:51:11.000Z</time></trkpt>
        <trkpt lat="28.1269494" lon="105.7592152"><ele>1729.64</ele><time>2026-05-23T19:51:21.000Z</time></trkpt>
        <trkpt lat="28.1269996" lon="105.7592161"><ele>1730.89</ele><time>2026-05-23T19:51:29.000Z</time></trkpt>
        <trkpt lat="28.1270506" lon="105.7592106"><ele>1731.15</ele><time>2026-05-23T19:51:37.000Z</time></trkpt>
        <trkpt lat="28.1271057" lon="105.759203"><ele>1731.57</ele><time>2026-05-23T19:51:45.000Z</time></trkpt>
        <trkpt lat="28.1271565" lon="105.7592162"><ele>1732.58</ele><time>2026-05-23T19:51:53.000Z</time></trkpt>
        <trkpt lat="28.1272087" lon="105.7592326"><ele>1733.23</ele><time>2026-05-23T19:52:01.000Z</time></trkpt>
        <trkpt lat="28.1272591" lon="105.7592198"><ele>1734.41</ele><time>2026-05-23T19:52:09.000Z</time></trkpt>
        <trkpt lat="28.1273115" lon="105.7591901"><ele>1736</ele><time>2026-05-23T19:52:17.000Z</time></trkpt>
        <trkpt lat="28.1273644" lon="105.7591794"><ele>1736.73</ele><time>2026-05-23T19:52:25.000Z</time></trkpt>
        <trkpt lat="28.1274142" lon="105.7591974"><ele>1737.05</ele><time>2026-05-23T19:52:33.000Z</time></trkpt>
        <trkpt lat="28.1274668" lon="105.7592144"><ele>1736.08</ele><time>2026-05-23T19:52:43.000Z</time></trkpt>
        <trkpt lat="28.1275165" lon="105.7592422"><ele>1736.25</ele><time>2026-05-23T19:52:53.000Z</time></trkpt>
        <trkpt lat="28.1275629" lon="105.759249"><ele>1736.12</ele><time>2026-05-23T19:53:01.000Z</time></trkpt>
        <trkpt lat="28.1275954" lon="105.759219"><ele>1736.23</ele><time>2026-05-23T19:53:07.000Z</time></trkpt>
        <trkpt lat="28.1276462" lon="105.7592183"><ele>1735.52</ele><time>2026-05-23T19:53:15.000Z</time></trkpt>
        <trkpt lat="28.1277042" lon="105.7592206"><ele>1734.29</ele><time>2026-05-23T19:53:23.000Z</time></trkpt>
        <trkpt lat="28.1277616" lon="105.7592312"><ele>1734.07</ele><time>2026-05-23T19:53:33.000Z</time></trkpt>
        <trkpt lat="28.1278148" lon="105.7592519"><ele>1734.37</ele><time>2026-05-23T19:53:43.000Z</time></trkpt>
        <trkpt lat="28.1278545" lon="105.7592273"><ele>1735.41</ele><time>2026-05-23T19:53:53.000Z</time></trkpt>
        <trkpt lat="28.1278685" lon="105.7591768"><ele>1736.53</ele><time>2026-05-23T19:54:01.000Z</time></trkpt>
        <trkpt lat="28.1278979" lon="105.7591306"><ele>1737.56</ele><time>2026-05-23T19:54:11.000Z</time></trkpt>
        <trkpt lat="28.1279339" lon="105.7590854"><ele>1739.41</ele><time>2026-05-23T19:54:23.000Z</time></trkpt>
        <trkpt lat="28.1279741" lon="105.7590437"><ele>1741.26</ele><time>2026-05-23T19:54:39.000Z</time></trkpt>
        <trkpt lat="28.1280131" lon="105.7590088"><ele>1743.83</ele><time>2026-05-23T19:54:51.000Z</time></trkpt>
        <trkpt lat="28.1280629" lon="105.7589887"><ele>1745.78</ele><time>2026-05-23T19:54:59.000Z</time></trkpt>
        <trkpt lat="28.1281174" lon="105.7589815"><ele>1746.5</ele><time>2026-05-23T19:55:07.000Z</time></trkpt>
        <trkpt lat="28.1281609" lon="105.7589571"><ele>1746.96</ele><time>2026-05-23T19:55:15.000Z</time></trkpt>
        <trkpt lat="28.1282032" lon="105.7589373"><ele>1748.06</ele><time>2026-05-23T19:55:25.000Z</time></trkpt>
        <trkpt lat="28.1282495" lon="105.7589332"><ele>1749.59</ele><time>2026-05-23T19:55:35.000Z</time></trkpt>
        <trkpt lat="28.1282835" lon="105.7588957"><ele>1750.31</ele><time>2026-05-23T19:55:45.000Z</time></trkpt>
        <trkpt lat="28.1283143" lon="105.7588467"><ele>1751.92</ele><time>2026-05-23T19:55:53.000Z</time></trkpt>
        <trkpt lat="28.1283276" lon="105.7587892"><ele>1752.33</ele><time>2026-05-23T19:55:59.000Z</time></trkpt>
        <trkpt lat="28.1283495" lon="105.7587415"><ele>1752.12</ele><time>2026-05-23T19:56:05.000Z</time></trkpt>
        <trkpt lat="28.1283812" lon="105.7587028"><ele>1751.87</ele><time>2026-05-23T19:56:11.000Z</time></trkpt>
        <trkpt lat="28.1284246" lon="105.7586919"><ele>1751.4</ele><time>2026-05-23T19:56:17.000Z</time></trkpt>
        <trkpt lat="28.1284735" lon="105.7587063"><ele>1751.62</ele><time>2026-05-23T19:56:23.000Z</time></trkpt>
        <trkpt lat="28.1285217" lon="105.7587143"><ele>1750.9</ele><time>2026-05-23T19:56:35.000Z</time></trkpt>
        <trkpt lat="28.1285721" lon="105.7587325"><ele>1750.77</ele><time>2026-05-23T19:56:47.000Z</time></trkpt>
        <trkpt lat="28.1286138" lon="105.7587605"><ele>1750.29</ele><time>2026-05-23T19:57:08.000Z</time></trkpt>
        <trkpt lat="28.1286527" lon="105.75879"><ele>1752.24</ele><time>2026-05-23T19:57:36.000Z</time></trkpt>
        <trkpt lat="28.1286861" lon="105.7587658"><ele>1754.08</ele><time>2026-05-23T19:57:54.000Z</time></trkpt>
        <trkpt lat="28.1287283" lon="105.7587509"><ele>1756.48</ele><time>2026-05-23T19:58:02.000Z</time></trkpt>
        <trkpt lat="28.1287686" lon="105.7587196"><ele>1757.55</ele><time>2026-05-23T19:58:10.000Z</time></trkpt>
        <trkpt lat="28.1288012" lon="105.7586733"><ele>1757.65</ele><time>2026-05-23T19:58:18.000Z</time></trkpt>
        <trkpt lat="28.1288244" lon="105.7586175"><ele>1757.97</ele><time>2026-05-23T19:58:24.000Z</time></trkpt>
        <trkpt lat="28.1288503" lon="105.7585537"><ele>1757.57</ele><time>2026-05-23T19:58:32.000Z</time></trkpt>
        <trkpt lat="28.1288748" lon="105.7584992"><ele>1757.56</ele><time>2026-05-23T19:58:38.000Z</time></trkpt>
        <trkpt lat="28.1289161" lon="105.7584677"><ele>1758.2</ele><time>2026-05-23T19:58:46.000Z</time></trkpt>
        <trkpt lat="28.1289604" lon="105.7584501"><ele>1758.23</ele><time>2026-05-23T19:58:56.000Z</time></trkpt>
        <trkpt lat="28.1289983" lon="105.7584839"><ele>1758.91</ele><time>2026-05-23T19:59:04.000Z</time></trkpt>
        <trkpt lat="28.1290453" lon="105.7585168"><ele>1757.49</ele><time>2026-05-23T19:59:10.000Z</time></trkpt>
        <trkpt lat="28.1290927" lon="105.7585584"><ele>1756.18</ele><time>2026-05-23T19:59:20.000Z</time></trkpt>
        <trkpt lat="28.1291176" lon="105.7586117"><ele>1755.19</ele><time>2026-05-23T19:59:28.000Z</time></trkpt>
        <trkpt lat="28.1291675" lon="105.7586353"><ele>1754.33</ele><time>2026-05-23T19:59:41.000Z</time></trkpt>
        <trkpt lat="28.1292223" lon="105.7586482"><ele>1754.22</ele><time>2026-05-23T19:59:59.000Z</time></trkpt>
        <trkpt lat="28.1292795" lon="105.7586464"><ele>1753.94</ele><time>2026-05-23T20:00:27.000Z</time></trkpt>
        <trkpt lat="28.1293309" lon="105.7586588"><ele>1753.76</ele><time>2026-05-23T20:00:34.000Z</time></trkpt>
        <trkpt lat="28.1293701" lon="105.7586981"><ele>1753.87</ele><time>2026-05-23T20:00:42.000Z</time></trkpt>
        <trkpt lat="28.1294048" lon="105.7587451"><ele>1752.93</ele><time>2026-05-23T20:01:02.000Z</time></trkpt>
        <trkpt lat="28.1294368" lon="105.7587987"><ele>1751.69</ele><time>2026-05-23T20:01:12.000Z</time></trkpt>
        <trkpt lat="28.1294541" lon="105.758853"><ele>1750.75</ele><time>2026-05-23T20:01:19.000Z</time></trkpt>
        <trkpt lat="28.1294763" lon="105.7589229"><ele>1749.31</ele><time>2026-05-23T20:01:28.000Z</time></trkpt>
        <trkpt lat="28.1295106" lon="105.7589725"><ele>1747.17</ele><time>2026-05-23T20:01:38.000Z</time></trkpt>
        <trkpt lat="28.1295567" lon="105.7590041"><ele>1745.84</ele><time>2026-05-23T20:01:44.000Z</time></trkpt>
        <trkpt lat="28.1296043" lon="105.7590647"><ele>1744.19</ele><time>2026-05-23T20:01:53.000Z</time></trkpt>
        <trkpt lat="28.1296539" lon="105.7591189"><ele>1742.21</ele><time>2026-05-23T20:02:01.000Z</time></trkpt>
        <trkpt lat="28.1297001" lon="105.7591675"><ele>1741.46</ele><time>2026-05-23T20:02:08.000Z</time></trkpt>
        <trkpt lat="28.1297377" lon="105.7592087"><ele>1741.31</ele><time>2026-05-23T20:02:13.000Z</time></trkpt>
        <trkpt lat="28.1297792" lon="105.7592507"><ele>1741.14</ele><time>2026-05-23T20:02:19.000Z</time></trkpt>
        <trkpt lat="28.1298261" lon="105.7592897"><ele>1740.46</ele><time>2026-05-23T20:02:25.000Z</time></trkpt>
        <trkpt lat="28.1298766" lon="105.7593148"><ele>1740.02</ele><time>2026-05-23T20:02:31.000Z</time></trkpt>
        <trkpt lat="28.129917" lon="105.7593479"><ele>1739.01</ele><time>2026-05-23T20:02:41.000Z</time></trkpt>
        <trkpt lat="28.1299545" lon="105.7593815"><ele>1737.56</ele><time>2026-05-23T20:02:51.000Z</time></trkpt>
        <trkpt lat="28.1300033" lon="105.7593899"><ele>1736.51</ele><time>2026-05-23T20:03:01.000Z</time></trkpt>
        <trkpt lat="28.130055" lon="105.7594101"><ele>1736.2</ele><time>2026-05-23T20:03:09.000Z</time></trkpt>
        <trkpt lat="28.1300941" lon="105.7594422"><ele>1735.91</ele><time>2026-05-23T20:03:15.000Z</time></trkpt>
        <trkpt lat="28.1301401" lon="105.7594736"><ele>1735.22</ele><time>2026-05-23T20:03:23.000Z</time></trkpt>
        <trkpt lat="28.130183" lon="105.7595012"><ele>1733.74</ele><time>2026-05-23T20:03:28.000Z</time></trkpt>
        <trkpt lat="28.1302317" lon="105.7595278"><ele>1733.25</ele><time>2026-05-23T20:03:35.000Z</time></trkpt>
        <trkpt lat="28.1302882" lon="105.7595512"><ele>1733.44</ele><time>2026-05-23T20:03:47.000Z</time></trkpt>
        <trkpt lat="28.1303411" lon="105.7595696"><ele>1732.99</ele><time>2026-05-23T20:03:53.000Z</time></trkpt>
        <trkpt lat="28.1303891" lon="105.7595991"><ele>1732.39</ele><time>2026-05-23T20:03:59.000Z</time></trkpt>
        <trkpt lat="28.1304355" lon="105.7596079"><ele>1731.44</ele><time>2026-05-23T20:04:05.000Z</time></trkpt>
        <trkpt lat="28.1304846" lon="105.7596259"><ele>1731.05</ele><time>2026-05-23T20:04:13.000Z</time></trkpt>
        <trkpt lat="28.1305318" lon="105.7596341"><ele>1730.72</ele><time>2026-05-23T20:04:19.000Z</time></trkpt>
        <trkpt lat="28.1305774" lon="105.759641"><ele>1730.35</ele><time>2026-05-23T20:04:25.000Z</time></trkpt>
        <trkpt lat="28.1305484" lon="105.7596906"><ele>1730.07</ele><time>2026-05-23T20:05:05.000Z</time></trkpt>
        <trkpt lat="28.130533" lon="105.7596829"><ele>1729.93</ele><time>2026-05-23T20:05:11.000Z</time></trkpt>
        <trkpt lat="28.130575" lon="105.7596678"><ele>1729.8</ele><time>2026-05-23T20:07:11.000Z</time></trkpt>
        <trkpt lat="28.1306212" lon="105.7596705"><ele>1728.3</ele><time>2026-05-23T20:07:19.000Z</time></trkpt>
        <trkpt lat="28.1306744" lon="105.7596755"><ele>1726.96</ele><time>2026-05-23T20:07:27.000Z</time></trkpt>
        <trkpt lat="28.130716" lon="105.7596462"><ele>1726.51</ele><time>2026-05-23T20:07:37.000Z</time></trkpt>
        <trkpt lat="28.130761" lon="105.759603"><ele>1726.86</ele><time>2026-05-23T20:07:45.000Z</time></trkpt>
        <trkpt lat="28.1308069" lon="105.7595597"><ele>1728.2</ele><time>2026-05-23T20:07:55.000Z</time></trkpt>
        <trkpt lat="28.1308505" lon="105.7595651"><ele>1729.85</ele><time>2026-05-23T20:08:03.000Z</time></trkpt>
        <trkpt lat="28.1308973" lon="105.7595699"><ele>1730.98</ele><time>2026-05-23T20:08:09.000Z</time></trkpt>
        <trkpt lat="28.1309484" lon="105.7595771"><ele>1730.47</ele><time>2026-05-23T20:08:15.000Z</time></trkpt>
        <trkpt lat="28.1309957" lon="105.7595811"><ele>1730.34</ele><time>2026-05-23T20:08:23.000Z</time></trkpt>
        <trkpt lat="28.1310489" lon="105.7595654"><ele>1731.14</ele><time>2026-05-23T20:08:31.000Z</time></trkpt>
        <trkpt lat="28.1310964" lon="105.7595364"><ele>1731.13</ele><time>2026-05-23T20:08:37.000Z</time></trkpt>
        <trkpt lat="28.1311494" lon="105.7595355"><ele>1731.06</ele><time>2026-05-23T20:08:45.000Z</time></trkpt>
        <trkpt lat="28.1312002" lon="105.7595671"><ele>1731.29</ele><time>2026-05-23T20:08:53.000Z</time></trkpt>
        <trkpt lat="28.131244" lon="105.7596069"><ele>1731.43</ele><time>2026-05-23T20:08:59.000Z</time></trkpt>
        <trkpt lat="28.1312907" lon="105.7596427"><ele>1731.39</ele><time>2026-05-23T20:09:07.000Z</time></trkpt>
        <trkpt lat="28.1313147" lon="105.7596891"><ele>1731.12</ele><time>2026-05-23T20:09:15.000Z</time></trkpt>
        <trkpt lat="28.1313551" lon="105.759696"><ele>1729.56</ele><time>2026-05-23T20:09:23.000Z</time></trkpt>
        <trkpt lat="28.1313995" lon="105.7597026"><ele>1727.51</ele><time>2026-05-23T20:09:29.000Z</time></trkpt>
        <trkpt lat="28.1314516" lon="105.7597134"><ele>1726.07</ele><time>2026-05-23T20:09:37.000Z</time></trkpt>
        <trkpt lat="28.1315059" lon="105.7597321"><ele>1725.66</ele><time>2026-05-23T20:09:45.000Z</time></trkpt>
        <trkpt lat="28.1315617" lon="105.7597417"><ele>1725.71</ele><time>2026-05-23T20:09:53.000Z</time></trkpt>
        <trkpt lat="28.131613" lon="105.7597685"><ele>1725.85</ele><time>2026-05-23T20:10:03.000Z</time></trkpt>
        <trkpt lat="28.1316618" lon="105.7597726"><ele>1725.77</ele><time>2026-05-23T20:10:09.000Z</time></trkpt>
        <trkpt lat="28.1317081" lon="105.7597703"><ele>1726.05</ele><time>2026-05-23T20:10:13.000Z</time></trkpt>
        <trkpt lat="28.1317546" lon="105.7597676"><ele>1726.11</ele><time>2026-05-23T20:10:19.000Z</time></trkpt>
        <trkpt lat="28.1318014" lon="105.7597372"><ele>1725.85</ele><time>2026-05-23T20:10:25.000Z</time></trkpt>
        <trkpt lat="28.1318492" lon="105.7597138"><ele>1725.51</ele><time>2026-05-23T20:10:31.000Z</time></trkpt>
        <trkpt lat="28.131906" lon="105.759707"><ele>1725.67</ele><time>2026-05-23T20:10:39.000Z</time></trkpt>
        <trkpt lat="28.1319537" lon="105.7597225"><ele>1725.32</ele><time>2026-05-23T20:10:45.000Z</time></trkpt>
        <trkpt lat="28.1320056" lon="105.7597366"><ele>1725.26</ele><time>2026-05-23T20:10:53.000Z</time></trkpt>
        <trkpt lat="28.1320591" lon="105.7597498"><ele>1724.83</ele><time>2026-05-23T20:11:03.000Z</time></trkpt>
        <trkpt lat="28.1321145" lon="105.7597482"><ele>1726.3</ele><time>2026-05-23T20:11:13.000Z</time></trkpt>
        <trkpt lat="28.1321644" lon="105.759738"><ele>1728.41</ele><time>2026-05-23T20:11:21.000Z</time></trkpt>
        <trkpt lat="28.1322066" lon="105.7597102"><ele>1729.46</ele><time>2026-05-23T20:11:31.000Z</time></trkpt>
        <trkpt lat="28.1322421" lon="105.7596752"><ele>1730.88</ele><time>2026-05-23T20:11:39.000Z</time></trkpt>
        <trkpt lat="28.1322809" lon="105.7596803"><ele>1731.95</ele><time>2026-05-23T20:11:45.000Z</time></trkpt>
        <trkpt lat="28.1323328" lon="105.7596747"><ele>1732.05</ele><time>2026-05-23T20:11:53.000Z</time></trkpt>
        <trkpt lat="28.1323827" lon="105.7596682"><ele>1732.13</ele><time>2026-05-23T20:11:59.000Z</time></trkpt>
        <trkpt lat="28.1324371" lon="105.7596628"><ele>1731.35</ele><time>2026-05-23T20:12:05.000Z</time></trkpt>
        <trkpt lat="28.1324877" lon="105.7596338"><ele>1731.35</ele><time>2026-05-23T20:12:11.000Z</time></trkpt>
        <trkpt lat="28.1325214" lon="105.7595818"><ele>1730.61</ele><time>2026-05-23T20:12:19.000Z</time></trkpt>
        <trkpt lat="28.1325481" lon="105.7595317"><ele>1730.32</ele><time>2026-05-23T20:12:25.000Z</time></trkpt>
        <trkpt lat="28.1325801" lon="105.7594937"><ele>1731.84</ele><time>2026-05-23T20:12:31.000Z</time></trkpt>
        <trkpt lat="28.132626" lon="105.7594647"><ele>1732.74</ele><time>2026-05-23T20:12:37.000Z</time></trkpt>
        <trkpt lat="28.1326735" lon="105.7594453"><ele>1733.21</ele><time>2026-05-23T20:12:47.000Z</time></trkpt>
        <trkpt lat="28.1327146" lon="105.7594121"><ele>1733.23</ele><time>2026-05-23T20:12:57.000Z</time></trkpt>
        <trkpt lat="28.1327431" lon="105.7593925"><ele>1733.29</ele><time>2026-05-23T20:13:05.000Z</time></trkpt>
        <trkpt lat="28.132771" lon="105.7594203"><ele>1733.68</ele><time>2026-05-23T20:13:15.000Z</time></trkpt>
        <trkpt lat="28.1328111" lon="105.7594584"><ele>1733.37</ele><time>2026-05-23T20:13:23.000Z</time></trkpt>
        <trkpt lat="28.1328524" lon="105.7594895"><ele>1734</ele><time>2026-05-23T20:13:27.000Z</time></trkpt>
        <trkpt lat="28.1329105" lon="105.7595114"><ele>1733.54</ele><time>2026-05-23T20:13:41.000Z</time></trkpt>
        <trkpt lat="28.1329405" lon="105.7595571"><ele>1734.26</ele><time>2026-05-23T20:13:51.000Z</time></trkpt>
        <trkpt lat="28.1329451" lon="105.7595658"><ele>1734.01</ele><time>2026-05-23T20:13:55.000Z</time></trkpt>
        <trkpt lat="28.13296" lon="105.7595991"><ele>1733.8</ele><time>2026-05-23T20:14:01.000Z</time></trkpt>
        <trkpt lat="28.1329723" lon="105.7596543"><ele>1733.66</ele><time>2026-05-23T20:14:09.000Z</time></trkpt>
        <trkpt lat="28.1329898" lon="105.7597082"><ele>1733.33</ele><time>2026-05-23T20:14:17.000Z</time></trkpt>
        <trkpt lat="28.1330211" lon="105.7597504"><ele>1733.04</ele><time>2026-05-23T20:14:25.000Z</time></trkpt>
        <trkpt lat="28.1330622" lon="105.7597904"><ele>1732.54</ele><time>2026-05-23T20:14:31.000Z</time></trkpt>
        <trkpt lat="28.1331" lon="105.75983"><ele>1731.98</ele><time>2026-05-23T20:14:39.000Z</time></trkpt>
        <trkpt lat="28.1331408" lon="105.7598683"><ele>1731.94</ele><time>2026-05-23T20:14:47.000Z</time></trkpt>
        <trkpt lat="28.133163" lon="105.7599172"><ele>1731.97</ele><time>2026-05-23T20:14:57.000Z</time></trkpt>
        <trkpt lat="28.1332002" lon="105.7599455"><ele>1731.89</ele><time>2026-05-23T20:15:35.000Z</time></trkpt>
        <trkpt lat="28.1332144" lon="105.7599927"><ele>1732.66</ele><time>2026-05-23T20:15:59.000Z</time></trkpt>
        <trkpt lat="28.1332515" lon="105.7599873"><ele>1733.1</ele><time>2026-05-23T20:16:11.000Z</time></trkpt>
        <trkpt lat="28.1333012" lon="105.7599846"><ele>1733.35</ele><time>2026-05-23T20:16:19.000Z</time></trkpt>
        <trkpt lat="28.1333546" lon="105.7599941"><ele>1734</ele><time>2026-05-23T20:16:49.000Z</time></trkpt>
        <trkpt lat="28.1334013" lon="105.7599714"><ele>1734.31</ele><time>2026-05-23T20:16:57.000Z</time></trkpt>
        <trkpt lat="28.133448" lon="105.7599588"><ele>1733.59</ele><time>2026-05-23T20:17:05.000Z</time></trkpt>
        <trkpt lat="28.133496" lon="105.7599634"><ele>1732.55</ele><time>2026-05-23T20:17:17.000Z</time></trkpt>
        <trkpt lat="28.1335423" lon="105.7599652"><ele>1731.96</ele><time>2026-05-23T20:17:21.000Z</time></trkpt>
        <trkpt lat="28.1335983" lon="105.7599705"><ele>1731.65</ele><time>2026-05-23T20:17:27.000Z</time></trkpt>
        <trkpt lat="28.1336472" lon="105.7599677"><ele>1730.79</ele><time>2026-05-23T20:17:33.000Z</time></trkpt>
        <trkpt lat="28.133693" lon="105.7599657"><ele>1730.08</ele><time>2026-05-23T20:17:39.000Z</time></trkpt>
        <trkpt lat="28.1337301" lon="105.7599959"><ele>1730.06</ele><time>2026-05-23T20:17:47.000Z</time></trkpt>
        <trkpt lat="28.1337786" lon="105.7600436"><ele>1730.46</ele><time>2026-05-23T20:18:02.000Z</time></trkpt>
        <trkpt lat="28.1338156" lon="105.7600961"><ele>1731</ele><time>2026-05-23T20:18:08.000Z</time></trkpt>
        <trkpt lat="28.1338028" lon="105.7600811"><ele>1730.55</ele><time>2026-05-23T20:18:40.000Z</time></trkpt>
        <trkpt lat="28.1338294" lon="105.7600843"><ele>1730.07</ele><time>2026-05-23T20:20:27.000Z</time></trkpt>
        <trkpt lat="28.1338611" lon="105.7601264"><ele>1730.34</ele><time>2026-05-23T20:20:33.000Z</time></trkpt>
        <trkpt lat="28.1338924" lon="105.7601787"><ele>1730.04</ele><time>2026-05-23T20:20:41.000Z</time></trkpt>
        <trkpt lat="28.1339284" lon="105.7602376"><ele>1729.36</ele><time>2026-05-23T20:20:45.000Z</time></trkpt>
        <trkpt lat="28.1339638" lon="105.760282"><ele>1727.45</ele><time>2026-05-23T20:20:49.000Z</time></trkpt>
        <trkpt lat="28.1340214" lon="105.7603414"><ele>1725.75</ele><time>2026-05-23T20:20:55.000Z</time></trkpt>
        <trkpt lat="28.1340784" lon="105.7603855"><ele>1724.4</ele><time>2026-05-23T20:21:02.000Z</time></trkpt>
        <trkpt lat="28.1341339" lon="105.7604016"><ele>1723.97</ele><time>2026-05-23T20:21:09.000Z</time></trkpt>
        <trkpt lat="28.1341941" lon="105.7604064"><ele>1724.42</ele><time>2026-05-23T20:21:48.000Z</time></trkpt>
        <trkpt lat="28.1342424" lon="105.7604177"><ele>1728.36</ele><time>2026-05-23T20:21:58.000Z</time></trkpt>
        <trkpt lat="28.1342869" lon="105.7604268"><ele>1731.66</ele><time>2026-05-23T20:22:14.000Z</time></trkpt>
        <trkpt lat="28.1343251" lon="105.7604579"><ele>1735.15</ele><time>2026-05-23T20:22:20.000Z</time></trkpt>
        <trkpt lat="28.1343733" lon="105.7604871"><ele>1738.08</ele><time>2026-05-23T20:22:32.000Z</time></trkpt>
        <trkpt lat="28.1344124" lon="105.7605284"><ele>1740.76</ele><time>2026-05-23T20:22:49.000Z</time></trkpt>
        <trkpt lat="28.1344502" lon="105.760577"><ele>1742.34</ele><time>2026-05-23T20:22:59.000Z</time></trkpt>
        <trkpt lat="28.1344955" lon="105.7606144"><ele>1743.28</ele><time>2026-05-23T20:23:05.000Z</time></trkpt>
        <trkpt lat="28.134541" lon="105.7606115"><ele>1744.61</ele><time>2026-05-23T20:23:11.000Z</time></trkpt>
        <trkpt lat="28.1345871" lon="105.7605762"><ele>1745.85</ele><time>2026-05-23T20:23:17.000Z</time></trkpt>
        <trkpt lat="28.1346243" lon="105.7605894"><ele>1746.4</ele><time>2026-05-23T20:24:19.000Z</time></trkpt>
        <trkpt lat="28.1346703" lon="105.7606091"><ele>1747.09</ele><time>2026-05-23T20:24:25.000Z</time></trkpt>
        <trkpt lat="28.1347255" lon="105.760609"><ele>1747.63</ele><time>2026-05-23T20:24:31.000Z</time></trkpt>
        <trkpt lat="28.1347783" lon="105.7606012"><ele>1747.48</ele><time>2026-05-23T20:24:37.000Z</time></trkpt>
        <trkpt lat="28.1348315" lon="105.7606043"><ele>1747.89</ele><time>2026-05-23T20:24:43.000Z</time></trkpt>
        <trkpt lat="28.1348627" lon="105.7606408"><ele>1748.12</ele><time>2026-05-23T20:24:53.000Z</time></trkpt>
        <trkpt lat="28.134905" lon="105.7606388"><ele>1747.84</ele><time>2026-05-23T20:24:59.000Z</time></trkpt>
        <trkpt lat="28.1349569" lon="105.7606488"><ele>1748.67</ele><time>2026-05-23T20:25:59.000Z</time></trkpt>
        <trkpt lat="28.1349897" lon="105.7606852"><ele>1750.32</ele><time>2026-05-23T20:26:15.000Z</time></trkpt>
        <trkpt lat="28.1350244" lon="105.7607209"><ele>1752.22</ele><time>2026-05-23T20:26:45.000Z</time></trkpt>
        <trkpt lat="28.1350379" lon="105.7607736"><ele>1757.07</ele><time>2026-05-23T20:26:57.000Z</time></trkpt>
        <trkpt lat="28.1350619" lon="105.7608185"><ele>1760.76</ele><time>2026-05-23T20:27:15.000Z</time></trkpt>
        <trkpt lat="28.1350693" lon="105.7608439"><ele>1762.63</ele><time>2026-05-23T20:27:21.000Z</time></trkpt>
        <trkpt lat="28.1351092" lon="105.7608306"><ele>1763.59</ele><time>2026-05-23T20:27:35.000Z</time></trkpt>
        <trkpt lat="28.1351575" lon="105.7608455"><ele>1765.5</ele><time>2026-05-23T20:28:23.000Z</time></trkpt>
        <trkpt lat="28.1351728" lon="105.7608881"><ele>1770.28</ele><time>2026-05-23T20:28:29.000Z</time></trkpt>
        <trkpt lat="28.1351786" lon="105.760943"><ele>1773.02</ele><time>2026-05-23T20:28:35.000Z</time></trkpt>
        <trkpt lat="28.1351817" lon="105.7609844"><ele>1774.9</ele><time>2026-05-23T20:28:43.000Z</time></trkpt>
        <trkpt lat="28.1351844" lon="105.7610392"><ele>1775.81</ele><time>2026-05-23T20:28:57.000Z</time></trkpt>
        <trkpt lat="28.1351434" lon="105.7610784"><ele>1776.65</ele><time>2026-05-23T20:29:23.000Z</time></trkpt>
        <trkpt lat="28.135154" lon="105.7611125"><ele>1776.31</ele><time>2026-05-23T20:29:35.000Z</time></trkpt>
        <trkpt lat="28.1351699" lon="105.7611599"><ele>1775.36</ele><time>2026-05-23T20:29:49.000Z</time></trkpt>
        <trkpt lat="28.1352092" lon="105.7612"><ele>1774.75</ele><time>2026-05-23T20:29:57.000Z</time></trkpt>
        <trkpt lat="28.1352091" lon="105.7612375"><ele>1774.11</ele><time>2026-05-23T20:30:01.000Z</time></trkpt>
        <trkpt lat="28.1352088" lon="105.7612045"><ele>1773.27</ele><time>2026-05-23T20:30:15.000Z</time></trkpt>
        <trkpt lat="28.1352553" lon="105.761201"><ele>1772.09</ele><time>2026-05-23T20:31:38.000Z</time></trkpt>
        <trkpt lat="28.1352832" lon="105.7612476"><ele>1772.46</ele><time>2026-05-23T20:31:44.000Z</time></trkpt>
        <trkpt lat="28.1353112" lon="105.7612889"><ele>1772.17</ele><time>2026-05-23T20:31:50.000Z</time></trkpt>
        <trkpt lat="28.1353443" lon="105.7612667"><ele>1772</ele><time>2026-05-23T20:31:56.000Z</time></trkpt>
        <trkpt lat="28.1353559" lon="105.7612499"><ele>1771.9</ele><time>2026-05-23T20:31:58.000Z</time></trkpt>
        <trkpt lat="28.1353841" lon="105.761203"><ele>1772.06</ele><time>2026-05-23T20:32:04.000Z</time></trkpt>
        <trkpt lat="28.1354018" lon="105.7611682"><ele>1772.01</ele><time>2026-05-23T20:32:12.000Z</time></trkpt>
        <trkpt lat="28.1354361" lon="105.7611314"><ele>1771.55</ele><time>2026-05-23T20:32:26.000Z</time></trkpt>
        <trkpt lat="28.1354307" lon="105.7610837"><ele>1771.01</ele><time>2026-05-23T20:32:36.000Z</time></trkpt>
        <trkpt lat="28.1354375" lon="105.7610303"><ele>1771.38</ele><time>2026-05-23T20:32:48.000Z</time></trkpt>
        <trkpt lat="28.1354538" lon="105.7609781"><ele>1771.48</ele><time>2026-05-23T20:33:00.000Z</time></trkpt>
        <trkpt lat="28.1354324" lon="105.7609384"><ele>1772.44</ele><time>2026-05-23T20:33:08.000Z</time></trkpt>
        <trkpt lat="28.135412" lon="105.7608874"><ele>1774.07</ele><time>2026-05-23T20:33:18.000Z</time></trkpt>
        <trkpt lat="28.1354098" lon="105.760836"><ele>1775.57</ele><time>2026-05-23T20:33:30.000Z</time></trkpt>
        <trkpt lat="28.1354483" lon="105.7608096"><ele>1776.52</ele><time>2026-05-23T20:33:44.000Z</time></trkpt>
        <trkpt lat="28.1354896" lon="105.7608372"><ele>1778.18</ele><time>2026-05-23T20:33:54.000Z</time></trkpt>
        <trkpt lat="28.135536" lon="105.7608698"><ele>1777.78</ele><time>2026-05-23T20:34:06.000Z</time></trkpt>
        <trkpt lat="28.1355891" lon="105.760873"><ele>1778.84</ele><time>2026-05-23T20:34:56.000Z</time></trkpt>
        <trkpt lat="28.1356367" lon="105.7608516"><ele>1782.53</ele><time>2026-05-23T20:35:16.000Z</time></trkpt>
        <trkpt lat="28.135684" lon="105.7608254"><ele>1786.2</ele><time>2026-05-23T20:35:34.000Z</time></trkpt>
        <trkpt lat="28.135716" lon="105.7607797"><ele>1789.27</ele><time>2026-05-23T20:35:52.000Z</time></trkpt>
        <trkpt lat="28.1357669" lon="105.7607635"><ele>1790.2</ele><time>2026-05-23T20:36:08.000Z</time></trkpt>
        <trkpt lat="28.1357841" lon="105.7607425"><ele>1789.76</ele><time>2026-05-23T20:36:14.000Z</time></trkpt>
        <trkpt lat="28.1358154" lon="105.7607161"><ele>1788.06</ele><time>2026-05-23T20:36:20.000Z</time></trkpt>
        <trkpt lat="28.1358598" lon="105.7607198"><ele>1786.43</ele><time>2026-05-23T20:36:32.000Z</time></trkpt>
        <trkpt lat="28.1359026" lon="105.7607525"><ele>1784.78</ele><time>2026-05-23T20:36:40.000Z</time></trkpt>
        <trkpt lat="28.1359489" lon="105.7607788"><ele>1782.24</ele><time>2026-05-23T20:36:54.000Z</time></trkpt>
        <trkpt lat="28.1359933" lon="105.7608018"><ele>1782.27</ele><time>2026-05-23T20:37:12.000Z</time></trkpt>
        <trkpt lat="28.1360478" lon="105.7608083"><ele>1782.69</ele><time>2026-05-23T20:37:24.000Z</time></trkpt>
        <trkpt lat="28.1361009" lon="105.7608298"><ele>1784.28</ele><time>2026-05-23T20:37:33.000Z</time></trkpt>
        <trkpt lat="28.1361439" lon="105.7608567"><ele>1785.81</ele><time>2026-05-23T20:37:44.000Z</time></trkpt>
        <trkpt lat="28.1361892" lon="105.7608712"><ele>1787.13</ele><time>2026-05-23T20:37:53.000Z</time></trkpt>
        <trkpt lat="28.1362396" lon="105.7608818"><ele>1788.65</ele><time>2026-05-23T20:38:04.000Z</time></trkpt>
        <trkpt lat="28.1362899" lon="105.760872"><ele>1789.82</ele><time>2026-05-23T20:38:19.000Z</time></trkpt>
        <trkpt lat="28.1363457" lon="105.760857"><ele>1789.8</ele><time>2026-05-23T20:38:23.000Z</time></trkpt>
        <trkpt lat="28.1363973" lon="105.7608219"><ele>1788.39</ele><time>2026-05-23T20:38:27.000Z</time></trkpt>
        <trkpt lat="28.1364485" lon="105.7607972"><ele>1787.83</ele><time>2026-05-23T20:38:31.000Z</time></trkpt>
        <trkpt lat="28.1364805" lon="105.7608326"><ele>1787.8</ele><time>2026-05-23T20:38:35.000Z</time></trkpt>
        <trkpt lat="28.1365171" lon="105.7608769"><ele>1787.46</ele><time>2026-05-23T20:38:41.000Z</time></trkpt>
        <trkpt lat="28.136555" lon="105.7609164"><ele>1786.64</ele><time>2026-05-23T20:38:47.000Z</time></trkpt>
        <trkpt lat="28.1366144" lon="105.7609324"><ele>1785.69</ele><time>2026-05-23T20:39:09.000Z</time></trkpt>
        <trkpt lat="28.1366746" lon="105.7609192"><ele>1783.95</ele><time>2026-05-23T20:39:18.000Z</time></trkpt>
        <trkpt lat="28.1367246" lon="105.7608902"><ele>1782.83</ele><time>2026-05-23T20:39:27.000Z</time></trkpt>
        <trkpt lat="28.1367744" lon="105.7608676"><ele>1782.3</ele><time>2026-05-23T20:39:35.000Z</time></trkpt>
        <trkpt lat="28.1368263" lon="105.7608544"><ele>1780.24</ele><time>2026-05-23T20:39:55.000Z</time></trkpt>
        <trkpt lat="28.1368806" lon="105.760863"><ele>1781.38</ele><time>2026-05-23T20:40:01.000Z</time></trkpt>
        <trkpt lat="28.1369375" lon="105.7608811"><ele>1781.72</ele><time>2026-05-23T20:40:09.000Z</time></trkpt>
        <trkpt lat="28.1369809" lon="105.7609185"><ele>1782.65</ele><time>2026-05-23T20:40:15.000Z</time></trkpt>
        <trkpt lat="28.1370242" lon="105.7609433"><ele>1782.34</ele><time>2026-05-23T20:40:21.000Z</time></trkpt>
        <trkpt lat="28.1370819" lon="105.7609554"><ele>1781.94</ele><time>2026-05-23T20:40:27.000Z</time></trkpt>
        <trkpt lat="28.137141" lon="105.7609882"><ele>1781.62</ele><time>2026-05-23T20:40:35.000Z</time></trkpt>
        <trkpt lat="28.1371889" lon="105.7610259"><ele>1781.5</ele><time>2026-05-23T20:40:41.000Z</time></trkpt>
        <trkpt lat="28.1372211" lon="105.7610781"><ele>1780.84</ele><time>2026-05-23T20:40:49.000Z</time></trkpt>
        <trkpt lat="28.1372552" lon="105.7611209"><ele>1780.76</ele><time>2026-05-23T20:40:59.000Z</time></trkpt>
        <trkpt lat="28.1372938" lon="105.7611501"><ele>1780.58</ele><time>2026-05-23T20:41:07.000Z</time></trkpt>
        <trkpt lat="28.1373428" lon="105.7611529"><ele>1781.16</ele><time>2026-05-23T20:41:13.000Z</time></trkpt>
        <trkpt lat="28.1373576" lon="105.7611526"><ele>1781.8</ele><time>2026-05-23T20:41:15.000Z</time></trkpt>
        <trkpt lat="28.1374018" lon="105.76116"><ele>1782.05</ele><time>2026-05-23T20:41:21.000Z</time></trkpt>
        <trkpt lat="28.1374485" lon="105.7611873"><ele>1783.03</ele><time>2026-05-23T20:41:29.000Z</time></trkpt>
        <trkpt lat="28.1375024" lon="105.7611743"><ele>1784.44</ele><time>2026-05-23T20:41:39.000Z</time></trkpt>
        <trkpt lat="28.1375311" lon="105.7611577"><ele>1786.85</ele><time>2026-05-23T20:41:45.000Z</time></trkpt>
        <trkpt lat="28.1375716" lon="105.7611542"><ele>1788.42</ele><time>2026-05-23T20:42:05.000Z</time></trkpt>
        <trkpt lat="28.1376078" lon="105.7611286"><ele>1788.08</ele><time>2026-05-23T20:42:11.000Z</time></trkpt>
        <trkpt lat="28.1376607" lon="105.761138"><ele>1788.26</ele><time>2026-05-23T20:42:17.000Z</time></trkpt>
        <trkpt lat="28.137705" lon="105.761174"><ele>1787.79</ele><time>2026-05-23T20:42:21.000Z</time></trkpt>
        <trkpt lat="28.1377524" lon="105.7612004"><ele>1787.19</ele><time>2026-05-23T20:42:27.000Z</time></trkpt>
        <trkpt lat="28.1377915" lon="105.7612314"><ele>1785.96</ele><time>2026-05-23T20:42:37.000Z</time></trkpt>
        <trkpt lat="28.1378431" lon="105.7612601"><ele>1785.22</ele><time>2026-05-23T20:42:45.000Z</time></trkpt>
        <trkpt lat="28.1378895" lon="105.7612431"><ele>1785.39</ele><time>2026-05-23T20:42:55.000Z</time></trkpt>
        <trkpt lat="28.1379441" lon="105.7612232"><ele>1786.78</ele><time>2026-05-23T20:43:03.000Z</time></trkpt>
        <trkpt lat="28.1379985" lon="105.7612147"><ele>1788.51</ele><time>2026-05-23T20:43:11.000Z</time></trkpt>
        <trkpt lat="28.138054" lon="105.7612341"><ele>1788.81</ele><time>2026-05-23T20:43:19.000Z</time></trkpt>
        <trkpt lat="28.138104" lon="105.7612615"><ele>1789.34</ele><time>2026-05-23T20:43:25.000Z</time></trkpt>
        <trkpt lat="28.138153" lon="105.7612899"><ele>1789.15</ele><time>2026-05-23T20:43:31.000Z</time></trkpt>
        <trkpt lat="28.1381964" lon="105.7613171"><ele>1789.77</ele><time>2026-05-23T20:43:37.000Z</time></trkpt>
        <trkpt lat="28.1382486" lon="105.7613512"><ele>1790.51</ele><time>2026-05-23T20:43:47.000Z</time></trkpt>
        <trkpt lat="28.1382987" lon="105.7613846"><ele>1791.84</ele><time>2026-05-23T20:43:57.000Z</time></trkpt>
        <trkpt lat="28.1383441" lon="105.7614212"><ele>1793.8</ele><time>2026-05-23T20:44:05.000Z</time></trkpt>
        <trkpt lat="28.1383887" lon="105.7614582"><ele>1795.2</ele><time>2026-05-23T20:44:14.000Z</time></trkpt>
        <trkpt lat="28.138427" lon="105.7615015"><ele>1796.64</ele><time>2026-05-23T20:44:21.000Z</time></trkpt>
        <trkpt lat="28.1384523" lon="105.761554"><ele>1798.33</ele><time>2026-05-23T20:44:29.000Z</time></trkpt>
        <trkpt lat="28.1384967" lon="105.761585"><ele>1799.03</ele><time>2026-05-23T20:44:37.000Z</time></trkpt>
        <trkpt lat="28.1385351" lon="105.7616223"><ele>1799.19</ele><time>2026-05-23T20:44:43.000Z</time></trkpt>
        <trkpt lat="28.1385607" lon="105.761671"><ele>1798.98</ele><time>2026-05-23T20:44:51.000Z</time></trkpt>
        <trkpt lat="28.1385597" lon="105.7617267"><ele>1798.39</ele><time>2026-05-23T20:45:01.000Z</time></trkpt>
        <trkpt lat="28.1385741" lon="105.7617846"><ele>1798.06</ele><time>2026-05-23T20:45:09.000Z</time></trkpt>
        <trkpt lat="28.1385996" lon="105.7618361"><ele>1796.92</ele><time>2026-05-23T20:45:15.000Z</time></trkpt>
        <trkpt lat="28.1386352" lon="105.7618834"><ele>1796.07</ele><time>2026-05-23T20:45:23.000Z</time></trkpt>
        <trkpt lat="28.1386828" lon="105.7619239"><ele>1795.04</ele><time>2026-05-23T20:45:31.000Z</time></trkpt>
        <trkpt lat="28.1387315" lon="105.7619623"><ele>1793.8</ele><time>2026-05-23T20:45:39.000Z</time></trkpt>
        <trkpt lat="28.1387741" lon="105.7619924"><ele>1793.55</ele><time>2026-05-23T20:45:45.000Z</time></trkpt>
        <trkpt lat="28.1388241" lon="105.762024"><ele>1793.26</ele><time>2026-05-23T20:45:53.000Z</time></trkpt>
        <trkpt lat="28.1388523" lon="105.7620662"><ele>1793.35</ele><time>2026-05-23T20:46:01.000Z</time></trkpt>
        <trkpt lat="28.1388732" lon="105.7621236"><ele>1792.75</ele><time>2026-05-23T20:46:15.000Z</time></trkpt>
        <trkpt lat="28.1389" lon="105.7621761"><ele>1791.6</ele><time>2026-05-23T20:46:23.000Z</time></trkpt>
        <trkpt lat="28.1389397" lon="105.7622122"><ele>1790.67</ele><time>2026-05-23T20:46:45.000Z</time></trkpt>
        <trkpt lat="28.1389644" lon="105.7622599"><ele>1789.01</ele><time>2026-05-23T20:46:57.000Z</time></trkpt>
        <trkpt lat="28.1390013" lon="105.7623025"><ele>1787.98</ele><time>2026-05-23T20:48:11.000Z</time></trkpt>
        <trkpt lat="28.1390246" lon="105.7623462"><ele>1787.44</ele><time>2026-05-23T20:48:25.000Z</time></trkpt>
        <trkpt lat="28.1390374" lon="105.7623958"><ele>1786.3</ele><time>2026-05-23T20:48:39.000Z</time></trkpt>
        <trkpt lat="28.1390565" lon="105.7624506"><ele>1784.13</ele><time>2026-05-23T20:48:49.000Z</time></trkpt>
        <trkpt lat="28.139082" lon="105.7625016"><ele>1783.17</ele><time>2026-05-23T20:49:05.000Z</time></trkpt>
        <trkpt lat="28.1390709" lon="105.7625503"><ele>1782.19</ele><time>2026-05-23T20:51:28.000Z</time></trkpt>
        <trkpt lat="28.1391121" lon="105.7625833"><ele>1783.2</ele><time>2026-05-23T20:53:28.000Z</time></trkpt>
        <trkpt lat="28.1391227" lon="105.7626375"><ele>1783.29</ele><time>2026-05-23T20:53:42.000Z</time></trkpt>
        <trkpt lat="28.1390977" lon="105.7626781"><ele>1783.1</ele><time>2026-05-23T20:53:48.000Z</time></trkpt>
        <trkpt lat="28.1390692" lon="105.7627207"><ele>1781.82</ele><time>2026-05-23T20:54:04.000Z</time></trkpt>
        <trkpt lat="28.1390534" lon="105.7627756"><ele>1779.49</ele><time>2026-05-23T20:54:16.000Z</time></trkpt>
        <trkpt lat="28.139077" lon="105.7628142"><ele>1778.41</ele><time>2026-05-23T20:54:24.000Z</time></trkpt>
        <trkpt lat="28.1391005" lon="105.762858"><ele>1777.28</ele><time>2026-05-23T20:54:32.000Z</time></trkpt>
        <trkpt lat="28.1390981" lon="105.7629104"><ele>1776.72</ele><time>2026-05-23T20:54:46.000Z</time></trkpt>
        <trkpt lat="28.1390919" lon="105.7629707"><ele>1775.41</ele><time>2026-05-23T20:54:54.000Z</time></trkpt>
        <trkpt lat="28.1390773" lon="105.762991"><ele>1774.73</ele><time>2026-05-23T20:55:00.000Z</time></trkpt>
        <trkpt lat="28.1390826" lon="105.7630311"><ele>1773.75</ele><time>2026-05-23T20:55:24.000Z</time></trkpt>
        <trkpt lat="28.1390859" lon="105.7630425"><ele>1772.95</ele><time>2026-05-23T20:55:26.000Z</time></trkpt>
        <trkpt lat="28.1390682" lon="105.763081"><ele>1772.52</ele><time>2026-05-23T20:55:50.000Z</time></trkpt>
        <trkpt lat="28.1390248" lon="105.7631164"><ele>1770.53</ele><time>2026-05-23T20:56:02.000Z</time></trkpt>
        <trkpt lat="28.1390019" lon="105.763163"><ele>1768.24</ele><time>2026-05-23T20:56:16.000Z</time></trkpt>
        <trkpt lat="28.139032" lon="105.7631961"><ele>1766.52</ele><time>2026-05-23T20:57:00.000Z</time></trkpt>
        <trkpt lat="28.1390321" lon="105.7632434"><ele>1765.02</ele><time>2026-05-23T20:57:18.000Z</time></trkpt>
        <trkpt lat="28.1390114" lon="105.763292"><ele>1764.27</ele><time>2026-05-23T20:57:34.000Z</time></trkpt>
        <trkpt lat="28.1389833" lon="105.763347"><ele>1762.88</ele><time>2026-05-23T20:57:46.000Z</time></trkpt>
        <trkpt lat="28.1389565" lon="105.763402"><ele>1760.53</ele><time>2026-05-23T20:58:20.000Z</time></trkpt>
        <trkpt lat="28.1389557" lon="105.7634544"><ele>1759.64</ele><time>2026-05-23T20:58:40.000Z</time></trkpt>
        <trkpt lat="28.13896" lon="105.7635158"><ele>1759.68</ele><time>2026-05-23T20:59:04.000Z</time></trkpt>
        <trkpt lat="28.1389522" lon="105.7635392"><ele>1759.5</ele><time>2026-05-23T20:59:08.000Z</time></trkpt>
        <trkpt lat="28.1389467" lon="105.7635861"><ele>1759.05</ele><time>2026-05-23T20:59:43.000Z</time></trkpt>
        <trkpt lat="28.1389393" lon="105.7636451"><ele>1758.04</ele><time>2026-05-23T20:59:55.000Z</time></trkpt>
        <trkpt lat="28.1389229" lon="105.7636989"><ele>1757.11</ele><time>2026-05-23T21:00:03.000Z</time></trkpt>
        <trkpt lat="28.138892" lon="105.7637382"><ele>1756.48</ele><time>2026-05-23T21:00:11.000Z</time></trkpt>
        <trkpt lat="28.1388797" lon="105.7637916"><ele>1756.27</ele><time>2026-05-23T21:00:21.000Z</time></trkpt>
        <trkpt lat="28.1388636" lon="105.7638472"><ele>1755.12</ele><time>2026-05-23T21:00:29.000Z</time></trkpt>
        <trkpt lat="28.138846" lon="105.7638985"><ele>1753.81</ele><time>2026-05-23T21:00:35.000Z</time></trkpt>
        <trkpt lat="28.1388122" lon="105.7639314"><ele>1751.64</ele><time>2026-05-23T21:00:45.000Z</time></trkpt>
        <trkpt lat="28.1387759" lon="105.7639751"><ele>1751.16</ele><time>2026-05-23T21:00:53.000Z</time></trkpt>
        <trkpt lat="28.1387402" lon="105.7640263"><ele>1750.41</ele><time>2026-05-23T21:01:03.000Z</time></trkpt>
        <trkpt lat="28.1387106" lon="105.7640759"><ele>1749.17</ele><time>2026-05-23T21:01:11.000Z</time></trkpt>
        <trkpt lat="28.1386675" lon="105.764104"><ele>1748.29</ele><time>2026-05-23T21:01:19.000Z</time></trkpt>
        <trkpt lat="28.1386401" lon="105.7641446"><ele>1747.76</ele><time>2026-05-23T21:01:25.000Z</time></trkpt>
        <trkpt lat="28.1386102" lon="105.7641857"><ele>1747.83</ele><time>2026-05-23T21:01:31.000Z</time></trkpt>
        <trkpt lat="28.1385906" lon="105.7642058"><ele>1748.34</ele><time>2026-05-23T21:01:35.000Z</time></trkpt>
        <trkpt lat="28.138567" lon="105.7642414"><ele>1748.01</ele><time>2026-05-23T21:02:16.000Z</time></trkpt>
        <trkpt lat="28.1385339" lon="105.7642763"><ele>1748.61</ele><time>2026-05-23T21:02:28.000Z</time></trkpt>
        <trkpt lat="28.1384991" lon="105.7643191"><ele>1747.13</ele><time>2026-05-23T21:02:41.000Z</time></trkpt>
        <trkpt lat="28.1384705" lon="105.7643676"><ele>1745.39</ele><time>2026-05-23T21:02:47.000Z</time></trkpt>
        <trkpt lat="28.1384426" lon="105.7644164"><ele>1744.92</ele><time>2026-05-23T21:02:53.000Z</time></trkpt>
        <trkpt lat="28.1384027" lon="105.7644559"><ele>1743.6</ele><time>2026-05-23T21:03:01.000Z</time></trkpt>
        <trkpt lat="28.1383865" lon="105.7645064"><ele>1742.1</ele><time>2026-05-23T21:03:09.000Z</time></trkpt>
        <trkpt lat="28.1383614" lon="105.7645505"><ele>1742.07</ele><time>2026-05-23T21:03:17.000Z</time></trkpt>
        <trkpt lat="28.1383246" lon="105.7645796"><ele>1740.92</ele><time>2026-05-23T21:03:25.000Z</time></trkpt>
        <trkpt lat="28.1382943" lon="105.7646169"><ele>1738.85</ele><time>2026-05-23T21:03:35.000Z</time></trkpt>
        <trkpt lat="28.1382697" lon="105.7646614"><ele>1736.2</ele><time>2026-05-23T21:03:43.000Z</time></trkpt>
        <trkpt lat="28.1382667" lon="105.7647153"><ele>1734.79</ele><time>2026-05-23T21:03:57.000Z</time></trkpt>
        <trkpt lat="28.1382426" lon="105.7647686"><ele>1732.28</ele><time>2026-05-23T21:04:07.000Z</time></trkpt>
        <trkpt lat="28.1381996" lon="105.7647913"><ele>1729.37</ele><time>2026-05-23T21:04:23.000Z</time></trkpt>
        <trkpt lat="28.1381553" lon="105.7648241"><ele>1727.26</ele><time>2026-05-23T21:04:31.000Z</time></trkpt>
        <trkpt lat="28.1381207" lon="105.7648663"><ele>1726.41</ele><time>2026-05-23T21:04:37.000Z</time></trkpt>
        <trkpt lat="28.1380914" lon="105.7649145"><ele>1726.57</ele><time>2026-05-23T21:04:43.000Z</time></trkpt>
        <trkpt lat="28.1380548" lon="105.764964"><ele>1727.6</ele><time>2026-05-23T21:04:51.000Z</time></trkpt>
        <trkpt lat="28.1380226" lon="105.7650056"><ele>1726.62</ele><time>2026-05-23T21:05:15.000Z</time></trkpt>
        <trkpt lat="28.1379694" lon="105.7650259"><ele>1726.54</ele><time>2026-05-23T21:05:23.000Z</time></trkpt>
        <trkpt lat="28.1379349" lon="105.7650379"><ele>1724.23</ele><time>2026-05-23T21:05:29.000Z</time></trkpt>
        <trkpt lat="28.1378848" lon="105.7650355"><ele>1721.96</ele><time>2026-05-23T21:05:41.000Z</time></trkpt>
        <trkpt lat="28.1378566" lon="105.7650228"><ele>1719.23</ele><time>2026-05-23T21:05:47.000Z</time></trkpt>
        <trkpt lat="28.1378169" lon="105.7650287"><ele>1716.67</ele><time>2026-05-23T21:06:01.000Z</time></trkpt>
        <trkpt lat="28.1378001" lon="105.7650775"><ele>1714.85</ele><time>2026-05-23T21:06:07.000Z</time></trkpt>
        <trkpt lat="28.1378162" lon="105.7651428"><ele>1713.61</ele><time>2026-05-23T21:06:15.000Z</time></trkpt>
        <trkpt lat="28.137824" lon="105.7652173"><ele>1712.31</ele><time>2026-05-23T21:06:23.000Z</time></trkpt>
        <trkpt lat="28.1378164" lon="105.7652846"><ele>1710.76</ele><time>2026-05-23T21:06:31.000Z</time></trkpt>
        <trkpt lat="28.1377948" lon="105.76535"><ele>1709.05</ele><time>2026-05-23T21:06:39.000Z</time></trkpt>
        <trkpt lat="28.1377567" lon="105.7654017"><ele>1708.39</ele><time>2026-05-23T21:06:45.000Z</time></trkpt>
        <trkpt lat="28.1377111" lon="105.7654244"><ele>1707.64</ele><time>2026-05-23T21:06:51.000Z</time></trkpt>
        <trkpt lat="28.1376662" lon="105.7654457"><ele>1707.08</ele><time>2026-05-23T21:06:59.000Z</time></trkpt>
        <trkpt lat="28.1376161" lon="105.7654672"><ele>1706.19</ele><time>2026-05-23T21:07:09.000Z</time></trkpt>
        <trkpt lat="28.1375625" lon="105.7654855"><ele>1706.62</ele><time>2026-05-23T21:07:17.000Z</time></trkpt>
        <trkpt lat="28.1375094" lon="105.7655197"><ele>1707.26</ele><time>2026-05-23T21:07:29.000Z</time></trkpt>
        <trkpt lat="28.1374602" lon="105.7655605"><ele>1708.29</ele><time>2026-05-23T21:07:35.000Z</time></trkpt>
        <trkpt lat="28.1374432" lon="105.7656034"><ele>1708.14</ele><time>2026-05-23T21:07:41.000Z</time></trkpt>
        <trkpt lat="28.1374088" lon="105.7656245"><ele>1708.37</ele><time>2026-05-23T21:07:59.000Z</time></trkpt>
        <trkpt lat="28.1373722" lon="105.7656624"><ele>1708.72</ele><time>2026-05-23T21:08:07.000Z</time></trkpt>
        <trkpt lat="28.137344" lon="105.7657118"><ele>1708.62</ele><time>2026-05-23T21:08:17.000Z</time></trkpt>
        <trkpt lat="28.1373301" lon="105.7657657"><ele>1707.44</ele><time>2026-05-23T21:08:25.000Z</time></trkpt>
        <trkpt lat="28.137295" lon="105.7658302"><ele>1705.43</ele><time>2026-05-23T21:08:35.000Z</time></trkpt>
        <trkpt lat="28.1372814" lon="105.765888"><ele>1705.16</ele><time>2026-05-23T21:08:39.000Z</time></trkpt>
        <trkpt lat="28.1372917" lon="105.765858"><ele>1704.6</ele><time>2026-05-23T21:08:41.000Z</time></trkpt>
        <trkpt lat="28.1373266" lon="105.7658664"><ele>1701.47</ele><time>2026-05-23T21:08:43.000Z</time></trkpt>
        <trkpt lat="28.1373345" lon="105.7659178"><ele>1699.76</ele><time>2026-05-23T21:10:12.000Z</time></trkpt>
        <trkpt lat="28.1373121" lon="105.7659701"><ele>1699.37</ele><time>2026-05-23T21:10:18.000Z</time></trkpt>
        <trkpt lat="28.1372815" lon="105.7660174"><ele>1699.21</ele><time>2026-05-23T21:10:24.000Z</time></trkpt>
        <trkpt lat="28.1372472" lon="105.7660548"><ele>1698.19</ele><time>2026-05-23T21:10:30.000Z</time></trkpt>
        <trkpt lat="28.1372045" lon="105.7660959"><ele>1697.59</ele><time>2026-05-23T21:10:38.000Z</time></trkpt>
        <trkpt lat="28.1371655" lon="105.7661405"><ele>1696.21</ele><time>2026-05-23T21:10:50.000Z</time></trkpt>
        <trkpt lat="28.1371392" lon="105.7661891"><ele>1694.94</ele><time>2026-05-23T21:10:58.000Z</time></trkpt>
        <trkpt lat="28.1371058" lon="105.7662434"><ele>1693.15</ele><time>2026-05-23T21:11:08.000Z</time></trkpt>
        <trkpt lat="28.1370614" lon="105.7662796"><ele>1691.02</ele><time>2026-05-23T21:11:16.000Z</time></trkpt>
        <trkpt lat="28.1370321" lon="105.7663214"><ele>1689.61</ele><time>2026-05-23T21:11:28.000Z</time></trkpt>
        <trkpt lat="28.1370148" lon="105.7663727"><ele>1687.22</ele><time>2026-05-23T21:11:36.000Z</time></trkpt>
        <trkpt lat="28.1369943" lon="105.7664228"><ele>1685.22</ele><time>2026-05-23T21:11:44.000Z</time></trkpt>
        <trkpt lat="28.1369896" lon="105.7664772"><ele>1683.58</ele><time>2026-05-23T21:11:52.000Z</time></trkpt>
        <trkpt lat="28.1369896" lon="105.7665377"><ele>1681.4</ele><time>2026-05-23T21:11:58.000Z</time></trkpt>
        <trkpt lat="28.1369896" lon="105.7665973"><ele>1679.5</ele><time>2026-05-23T21:12:08.000Z</time></trkpt>
        <trkpt lat="28.1369773" lon="105.766649"><ele>1678.04</ele><time>2026-05-23T21:12:14.000Z</time></trkpt>
        <trkpt lat="28.13695" lon="105.7667009"><ele>1677.58</ele><time>2026-05-23T21:12:22.000Z</time></trkpt>
        <trkpt lat="28.1369219" lon="105.7667455"><ele>1677.46</ele><time>2026-05-23T21:12:30.000Z</time></trkpt>
        <trkpt lat="28.1369032" lon="105.7667934"><ele>1676.83</ele><time>2026-05-23T21:12:36.000Z</time></trkpt>
        <trkpt lat="28.1368999" lon="105.7668449"><ele>1677.36</ele><time>2026-05-23T21:12:42.000Z</time></trkpt>
        <trkpt lat="28.1368724" lon="105.7668857"><ele>1677.61</ele><time>2026-05-23T21:12:48.000Z</time></trkpt>
        <trkpt lat="28.1368347" lon="105.7669179"><ele>1677.06</ele><time>2026-05-23T21:12:54.000Z</time></trkpt>
        <trkpt lat="28.1367878" lon="105.7669371"><ele>1676.27</ele><time>2026-05-23T21:13:00.000Z</time></trkpt>
        <trkpt lat="28.1367404" lon="105.7669549"><ele>1675.58</ele><time>2026-05-23T21:13:06.000Z</time></trkpt>
        <trkpt lat="28.1366902" lon="105.7669554"><ele>1674.82</ele><time>2026-05-23T21:13:14.000Z</time></trkpt>
        <trkpt lat="28.1366418" lon="105.7669699"><ele>1673.71</ele><time>2026-05-23T21:13:22.000Z</time></trkpt>
        <trkpt lat="28.1366261" lon="105.7670221"><ele>1672.2</ele><time>2026-05-23T21:13:32.000Z</time></trkpt>
        <trkpt lat="28.1366017" lon="105.7670772"><ele>1670.58</ele><time>2026-05-23T21:13:42.000Z</time></trkpt>
        <trkpt lat="28.1365673" lon="105.7671277"><ele>1669.33</ele><time>2026-05-23T21:13:51.000Z</time></trkpt>
        <trkpt lat="28.1365201" lon="105.7671611"><ele>1668.31</ele><time>2026-05-23T21:14:01.000Z</time></trkpt>
        <trkpt lat="28.1364618" lon="105.7671796"><ele>1667.35</ele><time>2026-05-23T21:14:11.000Z</time></trkpt>
        <trkpt lat="28.1364134" lon="105.7672088"><ele>1666.36</ele><time>2026-05-23T21:14:17.000Z</time></trkpt>
        <trkpt lat="28.13638" lon="105.7672566"><ele>1666.19</ele><time>2026-05-23T21:14:29.000Z</time></trkpt>
        <trkpt lat="28.1363359" lon="105.7672868"><ele>1664.77</ele><time>2026-05-23T21:14:39.000Z</time></trkpt>
        <trkpt lat="28.1363032" lon="105.7673348"><ele>1664.03</ele><time>2026-05-23T21:14:51.000Z</time></trkpt>
        <trkpt lat="28.1362761" lon="105.7673929"><ele>1662.27</ele><time>2026-05-23T21:15:01.000Z</time></trkpt>
        <trkpt lat="28.1362448" lon="105.7674397"><ele>1659.47</ele><time>2026-05-23T21:15:07.000Z</time></trkpt>
        <trkpt lat="28.1362012" lon="105.7674737"><ele>1657.58</ele><time>2026-05-23T21:15:17.000Z</time></trkpt>
        <trkpt lat="28.1361514" lon="105.7675015"><ele>1656.06</ele><time>2026-05-23T21:15:27.000Z</time></trkpt>
        <trkpt lat="28.1361221" lon="105.7675466"><ele>1653.55</ele><time>2026-05-23T21:15:35.000Z</time></trkpt>
        <trkpt lat="28.1360904" lon="105.7676188"><ele>1651.18</ele><time>2026-05-23T21:15:47.000Z</time></trkpt>
        <trkpt lat="28.1360521" lon="105.7676731"><ele>1648.02</ele><time>2026-05-23T21:15:55.000Z</time></trkpt>
        <trkpt lat="28.1360135" lon="105.7677177"><ele>1645.59</ele><time>2026-05-23T21:16:01.000Z</time></trkpt>
        <trkpt lat="28.1359759" lon="105.7677585"><ele>1644.17</ele><time>2026-05-23T21:16:09.000Z</time></trkpt>
        <trkpt lat="28.1359671" lon="105.7677947"><ele>1643.69</ele><time>2026-05-23T21:16:15.000Z</time></trkpt>
        <trkpt lat="28.1359587" lon="105.7678414"><ele>1642.35</ele><time>2026-05-23T21:16:21.000Z</time></trkpt>
        <trkpt lat="28.1359358" lon="105.7678879"><ele>1641.61</ele><time>2026-05-23T21:16:27.000Z</time></trkpt>
        <trkpt lat="28.1359084" lon="105.7679418"><ele>1641.01</ele><time>2026-05-23T21:16:35.000Z</time></trkpt>
        <trkpt lat="28.1358862" lon="105.7679911"><ele>1640.2</ele><time>2026-05-23T21:16:41.000Z</time></trkpt>
        <trkpt lat="28.1358375" lon="105.7680337"><ele>1638.6</ele><time>2026-05-23T21:16:51.000Z</time></trkpt>
        <trkpt lat="28.1358122" lon="105.7680825"><ele>1637.29</ele><time>2026-05-23T21:17:01.000Z</time></trkpt>
        <trkpt lat="28.1357849" lon="105.7681442"><ele>1636.43</ele><time>2026-05-23T21:17:07.000Z</time></trkpt>
        <trkpt lat="28.1357614" lon="105.7681976"><ele>1635.36</ele><time>2026-05-23T21:17:13.000Z</time></trkpt>
        <trkpt lat="28.1357383" lon="105.7682498"><ele>1634.13</ele><time>2026-05-23T21:17:19.000Z</time></trkpt>
        <trkpt lat="28.1356969" lon="105.768291"><ele>1633.12</ele><time>2026-05-23T21:17:25.000Z</time></trkpt>
        <trkpt lat="28.1356588" lon="105.7683303"><ele>1632.53</ele><time>2026-05-23T21:17:31.000Z</time></trkpt>
        <trkpt lat="28.1356292" lon="105.7683845"><ele>1632.46</ele><time>2026-05-23T21:17:39.000Z</time></trkpt>
        <trkpt lat="28.1356001" lon="105.7684335"><ele>1631.79</ele><time>2026-05-23T21:17:45.000Z</time></trkpt>
        <trkpt lat="28.1355701" lon="105.7684882"><ele>1630.2</ele><time>2026-05-23T21:17:53.000Z</time></trkpt>
        <trkpt lat="28.1355394" lon="105.7685357"><ele>1627.9</ele><time>2026-05-23T21:17:59.000Z</time></trkpt>
        <trkpt lat="28.1355038" lon="105.7685806"><ele>1626.4</ele><time>2026-05-23T21:18:05.000Z</time></trkpt>
        <trkpt lat="28.1354742" lon="105.7686281"><ele>1624.73</ele><time>2026-05-23T21:18:11.000Z</time></trkpt>
        <trkpt lat="28.1354327" lon="105.7686735"><ele>1622.77</ele><time>2026-05-23T21:18:17.000Z</time></trkpt>
        <trkpt lat="28.1353956" lon="105.7687219"><ele>1621.1</ele><time>2026-05-23T21:18:23.000Z</time></trkpt>
        <trkpt lat="28.1353633" lon="105.7687697"><ele>1620.17</ele><time>2026-05-23T21:18:29.000Z</time></trkpt>
        <trkpt lat="28.1353451" lon="105.7688214"><ele>1619.51</ele><time>2026-05-23T21:18:35.000Z</time></trkpt>
        <trkpt lat="28.1353213" lon="105.7688726"><ele>1619.53</ele><time>2026-05-23T21:18:41.000Z</time></trkpt>
        <trkpt lat="28.1352977" lon="105.7689198"><ele>1618.74</ele><time>2026-05-23T21:18:47.000Z</time></trkpt>
        <trkpt lat="28.1352719" lon="105.7689671"><ele>1617.98</ele><time>2026-05-23T21:18:53.000Z</time></trkpt>
        <trkpt lat="28.1352398" lon="105.7690156"><ele>1619.1</ele><time>2026-05-23T21:19:01.000Z</time></trkpt>
        <trkpt lat="28.1351943" lon="105.7690543"><ele>1619.49</ele><time>2026-05-23T21:19:07.000Z</time></trkpt>
        <trkpt lat="28.1351525" lon="105.7690856"><ele>1619</ele><time>2026-05-23T21:19:13.000Z</time></trkpt>
        <trkpt lat="28.1351116" lon="105.7691215"><ele>1617.76</ele><time>2026-05-23T21:19:19.000Z</time></trkpt>
        <trkpt lat="28.1350774" lon="105.7691703"><ele>1616.73</ele><time>2026-05-23T21:19:27.000Z</time></trkpt>
        <trkpt lat="28.1350354" lon="105.7692055"><ele>1616.12</ele><time>2026-05-23T21:19:33.000Z</time></trkpt>
        <trkpt lat="28.1350002" lon="105.7692463"><ele>1615.32</ele><time>2026-05-23T21:19:39.000Z</time></trkpt>
        <trkpt lat="28.1349665" lon="105.7692936"><ele>1614.19</ele><time>2026-05-23T21:19:45.000Z</time></trkpt>
        <trkpt lat="28.1349313" lon="105.7693399"><ele>1612.13</ele><time>2026-05-23T21:19:51.000Z</time></trkpt>
        <trkpt lat="28.1348868" lon="105.769397"><ele>1611.06</ele><time>2026-05-23T21:19:59.000Z</time></trkpt>
        <trkpt lat="28.1348454" lon="105.7694397"><ele>1609.49</ele><time>2026-05-23T21:20:05.000Z</time></trkpt>
        <trkpt lat="28.1348038" lon="105.7694693"><ele>1609.29</ele><time>2026-05-23T21:20:09.000Z</time></trkpt>
        <trkpt lat="28.1347639" lon="105.7694968"><ele>1609.19</ele><time>2026-05-23T21:20:15.000Z</time></trkpt>
        <trkpt lat="28.1347314" lon="105.7695316"><ele>1608.34</ele><time>2026-05-23T21:20:21.000Z</time></trkpt>
        <trkpt lat="28.134706" lon="105.7695844"><ele>1607.67</ele><time>2026-05-23T21:20:29.000Z</time></trkpt>
        <trkpt lat="28.1346882" lon="105.7696428"><ele>1608.18</ele><time>2026-05-23T21:20:37.000Z</time></trkpt>
        <trkpt lat="28.1346582" lon="105.7696877"><ele>1607.47</ele><time>2026-05-23T21:20:45.000Z</time></trkpt>
        <trkpt lat="28.1346282" lon="105.7697406"><ele>1606.1</ele><time>2026-05-23T21:20:53.000Z</time></trkpt>
        <trkpt lat="28.134593" lon="105.7697933"><ele>1604.77</ele><time>2026-05-23T21:21:01.000Z</time></trkpt>
        <trkpt lat="28.1345607" lon="105.7698353"><ele>1603.7</ele><time>2026-05-23T21:21:07.000Z</time></trkpt>
        <trkpt lat="28.1345257" lon="105.7698802"><ele>1603.35</ele><time>2026-05-23T21:21:13.000Z</time></trkpt>
        <trkpt lat="28.1344846" lon="105.7699172"><ele>1602.91</ele><time>2026-05-23T21:21:19.000Z</time></trkpt>
        <trkpt lat="28.1344445" lon="105.7699523"><ele>1601.77</ele><time>2026-05-23T21:21:25.000Z</time></trkpt>
        <trkpt lat="28.1344053" lon="105.7699851"><ele>1600.89</ele><time>2026-05-23T21:21:31.000Z</time></trkpt>
        <trkpt lat="28.1343594" lon="105.77003"><ele>1599.98</ele><time>2026-05-23T21:21:39.000Z</time></trkpt>
        <trkpt lat="28.1343157" lon="105.7700696"><ele>1599.74</ele><time>2026-05-23T21:21:45.000Z</time></trkpt>
        <trkpt lat="28.134281" lon="105.7701124"><ele>1599.82</ele><time>2026-05-23T21:21:51.000Z</time></trkpt>
        <trkpt lat="28.1342415" lon="105.7701522"><ele>1600.04</ele><time>2026-05-23T21:21:57.000Z</time></trkpt>
        <trkpt lat="28.1342031" lon="105.7701921"><ele>1599.88</ele><time>2026-05-23T21:22:03.000Z</time></trkpt>
        <trkpt lat="28.1341689" lon="105.7702308"><ele>1599.84</ele><time>2026-05-23T21:22:09.000Z</time></trkpt>
        <trkpt lat="28.1341325" lon="105.7702673"><ele>1598.79</ele><time>2026-05-23T21:22:17.000Z</time></trkpt>
        <trkpt lat="28.1341237" lon="105.7702779"><ele>1596.69</ele><time>2026-05-23T21:22:19.000Z</time></trkpt>
        <trkpt lat="28.1341013" lon="105.7703158"><ele>1595.46</ele><time>2026-05-23T21:22:27.000Z</time></trkpt>
        <trkpt lat="28.1340758" lon="105.7703684"><ele>1593.53</ele><time>2026-05-23T21:22:35.000Z</time></trkpt>
        <trkpt lat="28.1340433" lon="105.770418"><ele>1591.59</ele><time>2026-05-23T21:22:41.000Z</time></trkpt>
        <trkpt lat="28.1340518" lon="105.7704694"><ele>1589.43</ele><time>2026-05-23T21:22:49.000Z</time></trkpt>
        <trkpt lat="28.1340465" lon="105.7705229"><ele>1588.07</ele><time>2026-05-23T21:22:55.000Z</time></trkpt>
        <trkpt lat="28.1340163" lon="105.7705764"><ele>1587.55</ele><time>2026-05-23T21:23:01.000Z</time></trkpt>
        <trkpt lat="28.1339913" lon="105.7706259"><ele>1587.29</ele><time>2026-05-23T21:23:13.000Z</time></trkpt>
        <trkpt lat="28.1339758" lon="105.7706758"><ele>1586.68</ele><time>2026-05-23T21:23:20.000Z</time></trkpt>
        <trkpt lat="28.1339513" lon="105.7707265"><ele>1585.54</ele><time>2026-05-23T21:23:27.000Z</time></trkpt>
        <trkpt lat="28.1339251" lon="105.7707758"><ele>1584.6</ele><time>2026-05-23T21:23:33.000Z</time></trkpt>
        <trkpt lat="28.1338913" lon="105.7708153"><ele>1583.7</ele><time>2026-05-23T21:23:41.000Z</time></trkpt>
        <trkpt lat="28.1338634" lon="105.7708611"><ele>1582.69</ele><time>2026-05-23T21:23:49.000Z</time></trkpt>
        <trkpt lat="28.133828" lon="105.7709045"><ele>1581.68</ele><time>2026-05-23T21:23:59.000Z</time></trkpt>
        <trkpt lat="28.133805" lon="105.7709592"><ele>1580.29</ele><time>2026-05-23T21:24:07.000Z</time></trkpt>
        <trkpt lat="28.1337759" lon="105.7710034"><ele>1579.42</ele><time>2026-05-23T21:24:15.000Z</time></trkpt>
        <trkpt lat="28.1337556" lon="105.7710496"><ele>1580.41</ele><time>2026-05-23T21:24:37.000Z</time></trkpt>
        <trkpt lat="28.1337395" lon="105.7711065"><ele>1579.73</ele><time>2026-05-23T21:24:59.000Z</time></trkpt>
        <trkpt lat="28.1337175" lon="105.7711672"><ele>1578.69</ele><time>2026-05-23T21:25:05.000Z</time></trkpt>
        <trkpt lat="28.1336853" lon="105.7712305"><ele>1578.48</ele><time>2026-05-23T21:25:11.000Z</time></trkpt>
        <trkpt lat="28.1336828" lon="105.7712519"><ele>1578.11</ele><time>2026-05-23T21:25:15.000Z</time></trkpt>
        <trkpt lat="28.1336698" lon="105.7712998"><ele>1575.95</ele><time>2026-05-23T21:25:39.000Z</time></trkpt>
        <trkpt lat="28.1336738" lon="105.7713575"><ele>1574.6</ele><time>2026-05-23T21:25:45.000Z</time></trkpt>
        <trkpt lat="28.133675" lon="105.7714146"><ele>1573.1</ele><time>2026-05-23T21:25:53.000Z</time></trkpt>
        <trkpt lat="28.1336774" lon="105.7714681"><ele>1571.56</ele><time>2026-05-23T21:26:28.000Z</time></trkpt>
        <trkpt lat="28.1336629" lon="105.7715294"><ele>1570.76</ele><time>2026-05-23T21:26:44.000Z</time></trkpt>
        <trkpt lat="28.1336312" lon="105.7715718"><ele>1571.08</ele><time>2026-05-23T21:26:48.000Z</time></trkpt>
        <trkpt lat="28.1335942" lon="105.7716051"><ele>1571.12</ele><time>2026-05-23T21:26:54.000Z</time></trkpt>
        <trkpt lat="28.1335504" lon="105.7716279"><ele>1570.5</ele><time>2026-05-23T21:27:04.000Z</time></trkpt>
        <trkpt lat="28.1335001" lon="105.7716452"><ele>1569.55</ele><time>2026-05-23T21:27:10.000Z</time></trkpt>
        <trkpt lat="28.1334573" lon="105.77167"><ele>1568.6</ele><time>2026-05-23T21:27:16.000Z</time></trkpt>
        <trkpt lat="28.1334171" lon="105.7716955"><ele>1568.01</ele><time>2026-05-23T21:27:22.000Z</time></trkpt>
        <trkpt lat="28.1334052" lon="105.7717077"><ele>1567.41</ele><time>2026-05-23T21:27:24.000Z</time></trkpt>
        <trkpt lat="28.1333741" lon="105.7717337"><ele>1567.08</ele><time>2026-05-23T21:27:34.000Z</time></trkpt>
        <trkpt lat="28.133338" lon="105.7717688"><ele>1565.7</ele><time>2026-05-23T21:27:42.000Z</time></trkpt>
        <trkpt lat="28.1332966" lon="105.7718028"><ele>1565.31</ele><time>2026-05-23T21:27:52.000Z</time></trkpt>
        <trkpt lat="28.1332634" lon="105.7718412"><ele>1563.77</ele><time>2026-05-23T21:28:20.000Z</time></trkpt>
        <trkpt lat="28.1332695" lon="105.7718935"><ele>1562.7</ele><time>2026-05-23T21:28:44.000Z</time></trkpt>
        <trkpt lat="28.1332889" lon="105.7719471"><ele>1560.74</ele><time>2026-05-23T21:28:56.000Z</time></trkpt>
        <trkpt lat="28.1332783" lon="105.7720007"><ele>1558.44</ele><time>2026-05-23T21:29:04.000Z</time></trkpt>
        <trkpt lat="28.1332525" lon="105.7720497"><ele>1556.78</ele><time>2026-05-23T21:29:14.000Z</time></trkpt>
        <trkpt lat="28.1332054" lon="105.7720783"><ele>1555.57</ele><time>2026-05-23T21:33:52.000Z</time></trkpt>
        <trkpt lat="28.1331797" lon="105.7721388"><ele>1554.9</ele><time>2026-05-23T21:33:58.000Z</time></trkpt>
        <trkpt lat="28.133147" lon="105.772187"><ele>1554.83</ele><time>2026-05-23T21:34:06.000Z</time></trkpt>
        <trkpt lat="28.1331039" lon="105.7722154"><ele>1555.05</ele><time>2026-05-23T21:34:14.000Z</time></trkpt>
        <trkpt lat="28.1330866" lon="105.7722194"><ele>1555.62</ele><time>2026-05-23T21:34:16.000Z</time></trkpt>
        <trkpt lat="28.1330999" lon="105.7722753"><ele>1556.06</ele><time>2026-05-23T21:38:42.000Z</time></trkpt>
        <trkpt lat="28.1330548" lon="105.7723059"><ele>1555.48</ele><time>2026-05-23T21:38:48.000Z</time></trkpt>
        <trkpt lat="28.1330023" lon="105.7723312"><ele>1555.25</ele><time>2026-05-23T21:38:54.000Z</time></trkpt>
        <trkpt lat="28.1329628" lon="105.7723805"><ele>1555.43</ele><time>2026-05-23T21:39:00.000Z</time></trkpt>
        <trkpt lat="28.132933" lon="105.7724249"><ele>1556.76</ele><time>2026-05-23T21:39:04.000Z</time></trkpt>
        <trkpt lat="28.1329509" lon="105.7724645"><ele>1556.71</ele><time>2026-05-23T21:39:12.000Z</time></trkpt>
        <trkpt lat="28.1329847" lon="105.7725051"><ele>1554.06</ele><time>2026-05-23T21:39:16.000Z</time></trkpt>
        <trkpt lat="28.1329961" lon="105.7725194"><ele>1551.98</ele><time>2026-05-23T21:39:18.000Z</time></trkpt>
        <trkpt lat="28.1330078" lon="105.7725572"><ele>1550.86</ele><time>2026-05-23T21:39:28.000Z</time></trkpt>
        <trkpt lat="28.1330313" lon="105.7726009"><ele>1548.73</ele><time>2026-05-23T21:39:38.000Z</time></trkpt>
        <trkpt lat="28.1330399" lon="105.7726515"><ele>1545.17</ele><time>2026-05-23T21:39:44.000Z</time></trkpt>
        <trkpt lat="28.133063" lon="105.7726992"><ele>1541.54</ele><time>2026-05-23T21:39:50.000Z</time></trkpt>
        <trkpt lat="28.1331024" lon="105.7727284"><ele>1539.42</ele><time>2026-05-23T21:39:56.000Z</time></trkpt>
        <trkpt lat="28.133142" lon="105.7727612"><ele>1538.48</ele><time>2026-05-23T21:40:10.000Z</time></trkpt>
        <trkpt lat="28.1331538" lon="105.7728093"><ele>1537.35</ele><time>2026-05-23T21:40:18.000Z</time></trkpt>
        <trkpt lat="28.1331355" lon="105.7728647"><ele>1535.63</ele><time>2026-05-23T21:40:26.000Z</time></trkpt>
        <trkpt lat="28.1330984" lon="105.7729095"><ele>1534.38</ele><time>2026-05-23T21:40:34.000Z</time></trkpt>
        <trkpt lat="28.1330808" lon="105.7729601"><ele>1533.04</ele><time>2026-05-23T21:40:42.000Z</time></trkpt>
        <trkpt lat="28.1330322" lon="105.7729475"><ele>1532.95</ele><time>2026-05-23T21:44:05.000Z</time></trkpt>
        <trkpt lat="28.1330122" lon="105.772996"><ele>1533.75</ele><time>2026-05-23T21:44:31.000Z</time></trkpt>
        <trkpt lat="28.1330241" lon="105.7730433"><ele>1534.91</ele><time>2026-05-23T21:45:22.000Z</time></trkpt>
        <trkpt lat="28.1330701" lon="105.7730193"><ele>1534.18</ele><time>2026-05-23T21:46:34.000Z</time></trkpt>
        <trkpt lat="28.1330812" lon="105.773072"><ele>1532.43</ele><time>2026-05-23T21:47:10.000Z</time></trkpt>
        <trkpt lat="28.1331256" lon="105.7730903"><ele>1530.64</ele><time>2026-05-23T21:47:30.000Z</time></trkpt>
        <trkpt lat="28.1331024" lon="105.7730997"><ele>1528.41</ele><time>2026-05-23T21:47:44.000Z</time></trkpt>
        <trkpt lat="28.1330377" lon="105.7730978"><ele>1528.49</ele><time>2026-05-23T21:49:00.000Z</time></trkpt>
        <trkpt lat="28.1329866" lon="105.7731306"><ele>1528.46</ele><time>2026-05-23T21:49:06.000Z</time></trkpt>
        <trkpt lat="28.1329453" lon="105.7731591"><ele>1528.48</ele><time>2026-05-23T21:49:12.000Z</time></trkpt>
        <trkpt lat="28.1329415" lon="105.7731608"><ele>1528.7</ele><time>2026-05-23T21:49:14.000Z</time></trkpt>
        <trkpt lat="28.1329736" lon="105.7731121"><ele>1528.83</ele><time>2026-05-23T21:49:30.000Z</time></trkpt>
        <trkpt lat="28.1330304" lon="105.7730813"><ele>1530.17</ele><time>2026-05-23T21:49:36.000Z</time></trkpt>
        <trkpt lat="28.1330945" lon="105.7730632"><ele>1530.83</ele><time>2026-05-23T21:49:42.000Z</time></trkpt>
        <trkpt lat="28.1331508" lon="105.7730714"><ele>1530.73</ele><time>2026-05-23T21:49:48.000Z</time></trkpt>
        <trkpt lat="28.1332016" lon="105.7730847"><ele>1530.54</ele><time>2026-05-23T21:49:56.000Z</time></trkpt>
        <trkpt lat="28.1332464" lon="105.7731097"><ele>1531.78</ele><time>2026-05-23T21:50:04.000Z</time></trkpt>
        <trkpt lat="28.1332834" lon="105.7731572"><ele>1532.83</ele><time>2026-05-23T21:50:12.000Z</time></trkpt>
        <trkpt lat="28.1333141" lon="105.7732077"><ele>1532.59</ele><time>2026-05-23T21:50:20.000Z</time></trkpt>
        <trkpt lat="28.1333307" lon="105.773266"><ele>1530.58</ele><time>2026-05-23T21:50:26.000Z</time></trkpt>
        <trkpt lat="28.1333325" lon="105.7732755"><ele>1531</ele><time>2026-05-23T21:50:28.000Z</time></trkpt>
        <trkpt lat="28.1333389" lon="105.7733134"><ele>1531.28</ele><time>2026-05-23T21:51:02.000Z</time></trkpt>
        <trkpt lat="28.133341" lon="105.7733736"><ele>1532.66</ele><time>2026-05-23T21:51:10.000Z</time></trkpt>
        <trkpt lat="28.1333402" lon="105.7734353"><ele>1534.06</ele><time>2026-05-23T21:51:16.000Z</time></trkpt>
        <trkpt lat="28.1333299" lon="105.7734942"><ele>1534.01</ele><time>2026-05-23T21:51:22.000Z</time></trkpt>
        <trkpt lat="28.1333176" lon="105.773558"><ele>1533.4</ele><time>2026-05-23T21:51:28.000Z</time></trkpt>
        <trkpt lat="28.1333252" lon="105.7736169"><ele>1533.27</ele><time>2026-05-23T21:51:34.000Z</time></trkpt>
        <trkpt lat="28.1333536" lon="105.7736801"><ele>1532.39</ele><time>2026-05-23T21:51:40.000Z</time></trkpt>
        <trkpt lat="28.1333649" lon="105.7737494"><ele>1531.43</ele><time>2026-05-23T21:51:46.000Z</time></trkpt>
        <trkpt lat="28.1333365" lon="105.773788"><ele>1530.71</ele><time>2026-05-23T21:52:00.000Z</time></trkpt>
        <trkpt lat="28.1332917" lon="105.77381"><ele>1530.11</ele><time>2026-05-23T21:52:32.000Z</time></trkpt>
        <trkpt lat="28.13324" lon="105.7737867"><ele>1528.81</ele><time>2026-05-23T21:52:44.000Z</time></trkpt>
        <trkpt lat="28.1332039" lon="105.7737253"><ele>1526.98</ele><time>2026-05-23T21:52:52.000Z</time></trkpt>
        <trkpt lat="28.1331713" lon="105.7736691"><ele>1525.95</ele><time>2026-05-23T21:52:58.000Z</time></trkpt>
        <trkpt lat="28.1331302" lon="105.773619"><ele>1525.97</ele><time>2026-05-23T21:53:04.000Z</time></trkpt>
        <trkpt lat="28.1330801" lon="105.7735791"><ele>1525.97</ele><time>2026-05-23T21:53:23.000Z</time></trkpt>
        <trkpt lat="28.1330501" lon="105.7735201"><ele>1526.85</ele><time>2026-05-23T21:54:16.000Z</time></trkpt>
        <trkpt lat="28.1330123" lon="105.773519"><ele>1530.75</ele><time>2026-05-23T21:54:22.000Z</time></trkpt>
        <trkpt lat="28.1330352" lon="105.7735378"><ele>1533.61</ele><time>2026-05-23T21:54:50.000Z</time></trkpt>
        <trkpt lat="28.1330863" lon="105.7735614"><ele>1534.27</ele><time>2026-05-23T21:55:05.000Z</time></trkpt>
        <trkpt lat="28.1330645" lon="105.773547"><ele>1533.08</ele><time>2026-05-23T21:56:42.000Z</time></trkpt>
        <trkpt lat="28.1330121" lon="105.7735575"><ele>1532.2</ele><time>2026-05-23T21:57:20.000Z</time></trkpt>
        <trkpt lat="28.1329668" lon="105.7735813"><ele>1529.23</ele><time>2026-05-23T21:57:24.000Z</time></trkpt>
        <trkpt lat="28.1329146" lon="105.7736112"><ele>1527.45</ele><time>2026-05-23T21:57:30.000Z</time></trkpt>
        <trkpt lat="28.1328859" lon="105.7736345"><ele>1527.66</ele><time>2026-05-23T21:57:36.000Z</time></trkpt>
        <trkpt lat="28.1328552" lon="105.7736646"><ele>1528.47</ele><time>2026-05-23T21:57:49.000Z</time></trkpt>
        <trkpt lat="28.1328176" lon="105.7737082"><ele>1529.24</ele><time>2026-05-23T21:57:55.000Z</time></trkpt>
        <trkpt lat="28.1327793" lon="105.7737485"><ele>1529.43</ele><time>2026-05-23T21:58:01.000Z</time></trkpt>
        <trkpt lat="28.1327613" lon="105.7738032"><ele>1529.41</ele><time>2026-05-23T21:58:05.000Z</time></trkpt>
        <trkpt lat="28.1327683" lon="105.7738577"><ele>1528.15</ele><time>2026-05-23T21:58:09.000Z</time></trkpt>
        <trkpt lat="28.1327795" lon="105.7739175"><ele>1528.08</ele><time>2026-05-23T21:58:15.000Z</time></trkpt>
        <trkpt lat="28.1327979" lon="105.7739817"><ele>1526.59</ele><time>2026-05-23T21:58:21.000Z</time></trkpt>
        <trkpt lat="28.1328266" lon="105.7740472"><ele>1526.65</ele><time>2026-05-23T21:58:27.000Z</time></trkpt>
        <trkpt lat="28.1328599" lon="105.7741001"><ele>1526.97</ele><time>2026-05-23T21:58:31.000Z</time></trkpt>
        <trkpt lat="28.1328838" lon="105.7741601"><ele>1527.26</ele><time>2026-05-23T21:58:37.000Z</time></trkpt>
        <trkpt lat="28.1329003" lon="105.7742196"><ele>1527.4</ele><time>2026-05-23T21:58:43.000Z</time></trkpt>
        <trkpt lat="28.1329118" lon="105.7742835"><ele>1527.79</ele><time>2026-05-23T21:58:49.000Z</time></trkpt>
        <trkpt lat="28.132923" lon="105.7743499"><ele>1528.25</ele><time>2026-05-23T21:58:55.000Z</time></trkpt>
        <trkpt lat="28.1329425" lon="105.7744087"><ele>1528.58</ele><time>2026-05-23T21:59:01.000Z</time></trkpt>
        <trkpt lat="28.1329586" lon="105.7744703"><ele>1529.27</ele><time>2026-05-23T21:59:13.000Z</time></trkpt>
        <trkpt lat="28.1329847" lon="105.7745301"><ele>1529</ele><time>2026-05-23T21:59:19.000Z</time></trkpt>
        <trkpt lat="28.1330131" lon="105.7745863"><ele>1528.72</ele><time>2026-05-23T21:59:25.000Z</time></trkpt>
        <trkpt lat="28.1330222" lon="105.7746517"><ele>1528.71</ele><time>2026-05-23T21:59:51.000Z</time></trkpt>
        <trkpt lat="28.1330332" lon="105.7747084"><ele>1530.04</ele><time>2026-05-23T21:59:55.000Z</time></trkpt>
        <trkpt lat="28.1330698" lon="105.7747577"><ele>1530.43</ele><time>2026-05-23T22:00:01.000Z</time></trkpt>
        <trkpt lat="28.133127" lon="105.7747692"><ele>1532.34</ele><time>2026-05-23T22:00:07.000Z</time></trkpt>
        <trkpt lat="28.1331595" lon="105.7747386"><ele>1532.19</ele><time>2026-05-23T22:00:13.000Z</time></trkpt>
        <trkpt lat="28.1331931" lon="105.7747529"><ele>1531.25</ele><time>2026-05-23T22:00:42.000Z</time></trkpt>
        <trkpt lat="28.1332331" lon="105.7747898"><ele>1531.17</ele><time>2026-05-23T22:00:48.000Z</time></trkpt>
        <trkpt lat="28.1332649" lon="105.7748419"><ele>1529.93</ele><time>2026-05-23T22:00:54.000Z</time></trkpt>
        <trkpt lat="28.1332919" lon="105.7748914"><ele>1528.62</ele><time>2026-05-23T22:01:00.000Z</time></trkpt>
        <trkpt lat="28.1333146" lon="105.7749527"><ele>1527.1</ele><time>2026-05-23T22:01:06.000Z</time></trkpt>
        <trkpt lat="28.1333429" lon="105.775015"><ele>1526.54</ele><time>2026-05-23T22:01:12.000Z</time></trkpt>
        <trkpt lat="28.1333781" lon="105.7750743"><ele>1526.03</ele><time>2026-05-23T22:01:18.000Z</time></trkpt>
        <trkpt lat="28.1334083" lon="105.7751269"><ele>1525.62</ele><time>2026-05-23T22:01:24.000Z</time></trkpt>
        <trkpt lat="28.1334327" lon="105.775183"><ele>1524.99</ele><time>2026-05-23T22:01:30.000Z</time></trkpt>
        <trkpt lat="28.1334755" lon="105.7752145"><ele>1525.54</ele><time>2026-05-23T22:01:40.000Z</time></trkpt>
        <trkpt lat="28.1335265" lon="105.7751902"><ele>1525.61</ele><time>2026-05-23T22:01:48.000Z</time></trkpt>
        <trkpt lat="28.1335661" lon="105.7751716"><ele>1524.87</ele><time>2026-05-23T22:01:52.000Z</time></trkpt>
        <trkpt lat="28.133601" lon="105.7751318"><ele>1524.57</ele><time>2026-05-23T22:01:58.000Z</time></trkpt>
        <trkpt lat="28.1336331" lon="105.7750802"><ele>1524.38</ele><time>2026-05-23T22:02:04.000Z</time></trkpt>
        <trkpt lat="28.1336522" lon="105.7750279"><ele>1525.34</ele><time>2026-05-23T22:02:28.000Z</time></trkpt>
        <trkpt lat="28.1336357" lon="105.7750668"><ele>1526.01</ele><time>2026-05-23T22:02:34.000Z</time></trkpt>
        <trkpt lat="28.1336209" lon="105.7751347"><ele>1527.77</ele><time>2026-05-23T22:02:44.000Z</time></trkpt>
        <trkpt lat="28.1335887" lon="105.7751919"><ele>1527.5</ele><time>2026-05-23T22:02:48.000Z</time></trkpt>
        <trkpt lat="28.1335446" lon="105.7752296"><ele>1529.45</ele><time>2026-05-23T22:02:54.000Z</time></trkpt>
        <trkpt lat="28.1335063" lon="105.7752689"><ele>1530.94</ele><time>2026-05-23T22:03:00.000Z</time></trkpt>
        <trkpt lat="28.1334878" lon="105.7753326"><ele>1532.73</ele><time>2026-05-23T22:03:06.000Z</time></trkpt>
        <trkpt lat="28.1334889" lon="105.7753969"><ele>1532.57</ele><time>2026-05-23T22:03:12.000Z</time></trkpt>
        <trkpt lat="28.133503" lon="105.7754615"><ele>1532.24</ele><time>2026-05-23T22:03:20.000Z</time></trkpt>
        <trkpt lat="28.133518" lon="105.7755194"><ele>1532.4</ele><time>2026-05-23T22:03:26.000Z</time></trkpt>
        <trkpt lat="28.13354" lon="105.7755706"><ele>1532.66</ele><time>2026-05-23T22:03:36.000Z</time></trkpt>
        <trkpt lat="28.1335758" lon="105.7756051"><ele>1532.6</ele><time>2026-05-23T22:03:44.000Z</time></trkpt>
        <trkpt lat="28.1335887" lon="105.7756514"><ele>1533.36</ele><time>2026-05-23T22:03:48.000Z</time></trkpt>
        <trkpt lat="28.1335889" lon="105.7757176"><ele>1533.39</ele><time>2026-05-23T22:03:54.000Z</time></trkpt>
        <trkpt lat="28.1335693" lon="105.7757757"><ele>1533.31</ele><time>2026-05-23T22:04:00.000Z</time></trkpt>
        <trkpt lat="28.1335665" lon="105.7758289"><ele>1531.75</ele><time>2026-05-23T22:04:08.000Z</time></trkpt>
        <trkpt lat="28.1335667" lon="105.7758904"><ele>1530.99</ele><time>2026-05-23T22:04:16.000Z</time></trkpt>
        <trkpt lat="28.1335725" lon="105.775952"><ele>1531.11</ele><time>2026-05-23T22:04:24.000Z</time></trkpt>
        <trkpt lat="28.1335664" lon="105.7760106"><ele>1530.65</ele><time>2026-05-23T22:04:32.000Z</time></trkpt>
        <trkpt lat="28.1335432" lon="105.776065"><ele>1531.16</ele><time>2026-05-23T22:04:44.000Z</time></trkpt>
        <trkpt lat="28.1335488" lon="105.7761092"><ele>1531.59</ele><time>2026-05-23T22:04:56.000Z</time></trkpt>
        <trkpt lat="28.133524" lon="105.7761489"><ele>1530.95</ele><time>2026-05-23T22:05:14.000Z</time></trkpt>
        <trkpt lat="28.1334811" lon="105.776162"><ele>1532.74</ele><time>2026-05-23T22:05:20.000Z</time></trkpt>
        <trkpt lat="28.1334768" lon="105.776199"><ele>1532.82</ele><time>2026-05-23T22:05:26.000Z</time></trkpt>
        <trkpt lat="28.1334802" lon="105.7762285"><ele>1533.46</ele><time>2026-05-23T22:05:30.000Z</time></trkpt>
        <trkpt lat="28.133502" lon="105.7762691"><ele>1534.48</ele><time>2026-05-23T22:05:50.000Z</time></trkpt>
        <trkpt lat="28.1335423" lon="105.7763043"><ele>1535.34</ele><time>2026-05-23T22:05:58.000Z</time></trkpt>
        <trkpt lat="28.133538" lon="105.7763572"><ele>1536.44</ele><time>2026-05-23T22:06:12.000Z</time></trkpt>
        <trkpt lat="28.1334967" lon="105.7763811"><ele>1539.2</ele><time>2026-05-23T22:06:20.000Z</time></trkpt>
        <trkpt lat="28.133449" lon="105.7764076"><ele>1541.64</ele><time>2026-05-23T22:06:30.000Z</time></trkpt>
        <trkpt lat="28.1333999" lon="105.7764436"><ele>1544.01</ele><time>2026-05-23T22:06:38.000Z</time></trkpt>
        <trkpt lat="28.13337" lon="105.7764909"><ele>1545.37</ele><time>2026-05-23T22:06:46.000Z</time></trkpt>
        <trkpt lat="28.1333648" lon="105.7765428"><ele>1544.62</ele><time>2026-05-23T22:06:52.000Z</time></trkpt>
        <trkpt lat="28.1333615" lon="105.7765993"><ele>1543.35</ele><time>2026-05-23T22:07:00.000Z</time></trkpt>
        <trkpt lat="28.1333413" lon="105.7766453"><ele>1541.98</ele><time>2026-05-23T22:07:08.000Z</time></trkpt>
        <trkpt lat="28.1333123" lon="105.7766954"><ele>1540.53</ele><time>2026-05-23T22:07:18.000Z</time></trkpt>
        <trkpt lat="28.1332809" lon="105.7767395"><ele>1538.99</ele><time>2026-05-23T22:07:24.000Z</time></trkpt>
        <trkpt lat="28.1332499" lon="105.7768005"><ele>1537.45</ele><time>2026-05-23T22:07:38.000Z</time></trkpt>
        <trkpt lat="28.1332311" lon="105.7768562"><ele>1536.21</ele><time>2026-05-23T22:07:44.000Z</time></trkpt>
        <trkpt lat="28.133218" lon="105.7769101"><ele>1535.15</ele><time>2026-05-23T22:07:52.000Z</time></trkpt>
        <trkpt lat="28.1331996" lon="105.7769624"><ele>1533.62</ele><time>2026-05-23T22:08:00.000Z</time></trkpt>
        <trkpt lat="28.1331864" lon="105.7770259"><ele>1532.48</ele><time>2026-05-23T22:08:08.000Z</time></trkpt>
        <trkpt lat="28.1331715" lon="105.7770909"><ele>1530.9</ele><time>2026-05-23T22:08:16.000Z</time></trkpt>
        <trkpt lat="28.1331772" lon="105.777152"><ele>1529.08</ele><time>2026-05-23T22:08:24.000Z</time></trkpt>
        <trkpt lat="28.1331607" lon="105.7772018"><ele>1528.56</ele><time>2026-05-23T22:08:36.000Z</time></trkpt>
        <trkpt lat="28.1331198" lon="105.7772374"><ele>1526.36</ele><time>2026-05-23T22:08:46.000Z</time></trkpt>
        <trkpt lat="28.1330856" lon="105.7772834"><ele>1524.28</ele><time>2026-05-23T22:08:56.000Z</time></trkpt>
        <trkpt lat="28.1330823" lon="105.7773392"><ele>1522.8</ele><time>2026-05-23T22:09:08.000Z</time></trkpt>
        <trkpt lat="28.1330785" lon="105.7774041"><ele>1521.8</ele><time>2026-05-23T22:09:18.000Z</time></trkpt>
        <trkpt lat="28.133062" lon="105.77746"><ele>1521.95</ele><time>2026-05-23T22:09:26.000Z</time></trkpt>
        <trkpt lat="28.1330648" lon="105.7775143"><ele>1522.38</ele><time>2026-05-23T22:09:36.000Z</time></trkpt>
        <trkpt lat="28.1330831" lon="105.7775727"><ele>1523.09</ele><time>2026-05-23T22:09:46.000Z</time></trkpt>
        <trkpt lat="28.1331095" lon="105.7776205"><ele>1522.38</ele><time>2026-05-23T22:09:52.000Z</time></trkpt>
        <trkpt lat="28.1331436" lon="105.7776624"><ele>1522.45</ele><time>2026-05-23T22:10:00.000Z</time></trkpt>
        <trkpt lat="28.1331987" lon="105.7776853"><ele>1521.82</ele><time>2026-05-23T22:10:10.000Z</time></trkpt>
        <trkpt lat="28.133222" lon="105.7777388"><ele>1520.65</ele><time>2026-05-23T22:10:18.000Z</time></trkpt>
        <trkpt lat="28.1332487" lon="105.7777842"><ele>1519.45</ele><time>2026-05-23T22:10:24.000Z</time></trkpt>
        <trkpt lat="28.1332563" lon="105.7778112"><ele>1517.24</ele><time>2026-05-23T22:10:28.000Z</time></trkpt>
        <trkpt lat="28.1332514" lon="105.7778575"><ele>1516.21</ele><time>2026-05-23T22:11:16.000Z</time></trkpt>
        <trkpt lat="28.1332602" lon="105.7779119"><ele>1515.25</ele><time>2026-05-23T22:11:22.000Z</time></trkpt>
        <trkpt lat="28.1332813" lon="105.777963"><ele>1515.05</ele><time>2026-05-23T22:11:56.000Z</time></trkpt>
        <trkpt lat="28.1333057" lon="105.7780119"><ele>1514.25</ele><time>2026-05-23T22:12:14.000Z</time></trkpt>
        <trkpt lat="28.1333046" lon="105.7779869"><ele>1513.53</ele><time>2026-05-23T22:13:06.000Z</time></trkpt>
        <trkpt lat="28.1333434" lon="105.7779689"><ele>1514.44</ele><time>2026-05-23T22:13:24.000Z</time></trkpt>
        <trkpt lat="28.1333881" lon="105.7779839"><ele>1514.16</ele><time>2026-05-23T22:13:34.000Z</time></trkpt>
        <trkpt lat="28.1334375" lon="105.7779811"><ele>1515.61</ele><time>2026-05-23T22:13:56.000Z</time></trkpt>
        <trkpt lat="28.1334792" lon="105.7779553"><ele>1517.09</ele><time>2026-05-23T22:14:02.000Z</time></trkpt>
        <trkpt lat="28.1334976" lon="105.7779077"><ele>1518.23</ele><time>2026-05-23T22:14:06.000Z</time></trkpt>
        <trkpt lat="28.1335256" lon="105.777861"><ele>1517.95</ele><time>2026-05-23T22:14:20.000Z</time></trkpt>
        <trkpt lat="28.1335239" lon="105.7778062"><ele>1518.11</ele><time>2026-05-23T22:14:26.000Z</time></trkpt>
        <trkpt lat="28.1335506" lon="105.7777681"><ele>1519.12</ele><time>2026-05-23T22:14:34.000Z</time></trkpt>
        <trkpt lat="28.1335974" lon="105.7777451"><ele>1519.35</ele><time>2026-05-23T22:14:42.000Z</time></trkpt>
        <trkpt lat="28.1336018" lon="105.7776977"><ele>1519.57</ele><time>2026-05-23T22:14:48.000Z</time></trkpt>
        <trkpt lat="28.1335715" lon="105.7776444"><ele>1522.39</ele><time>2026-05-23T22:14:54.000Z</time></trkpt>
        <trkpt lat="28.1335434" lon="105.7775915"><ele>1525.4</ele><time>2026-05-23T22:15:00.000Z</time></trkpt>
        <trkpt lat="28.1335389" lon="105.7775332"><ele>1528.58</ele><time>2026-05-23T22:15:08.000Z</time></trkpt>
        <trkpt lat="28.1335581" lon="105.7774727"><ele>1530.36</ele><time>2026-05-23T22:15:16.000Z</time></trkpt>
        <trkpt lat="28.1335704" lon="105.7774123"><ele>1531.44</ele><time>2026-05-23T22:15:24.000Z</time></trkpt>
        <trkpt lat="28.1335955" lon="105.77736"><ele>1532.34</ele><time>2026-05-23T22:15:32.000Z</time></trkpt>
        <trkpt lat="28.1336385" lon="105.7773435"><ele>1532.57</ele><time>2026-05-23T22:15:36.000Z</time></trkpt>
        <trkpt lat="28.1336957" lon="105.7773475"><ele>1532.26</ele><time>2026-05-23T22:15:42.000Z</time></trkpt>
        <trkpt lat="28.1337542" lon="105.7773566"><ele>1532.5</ele><time>2026-05-23T22:15:48.000Z</time></trkpt>
        <trkpt lat="28.1338075" lon="105.7773608"><ele>1533.26</ele><time>2026-05-23T22:15:54.000Z</time></trkpt>
        <trkpt lat="28.1338543" lon="105.7773548"><ele>1533.98</ele><time>2026-05-23T22:16:00.000Z</time></trkpt>
        <trkpt lat="28.1338956" lon="105.777335"><ele>1534.12</ele><time>2026-05-23T22:16:06.000Z</time></trkpt>
        <trkpt lat="28.1339379" lon="105.7772981"><ele>1534.13</ele><time>2026-05-23T22:16:14.000Z</time></trkpt>
        <trkpt lat="28.133981" lon="105.7772517"><ele>1533.22</ele><time>2026-05-23T22:16:18.000Z</time></trkpt>
        <trkpt lat="28.1340388" lon="105.7772213"><ele>1533.04</ele><time>2026-05-23T22:16:24.000Z</time></trkpt>
        <trkpt lat="28.1340666" lon="105.7772175"><ele>1533.19</ele><time>2026-05-23T22:16:34.000Z</time></trkpt>
        <trkpt lat="28.1341149" lon="105.7772114"><ele>1533.06</ele><time>2026-05-23T22:16:46.000Z</time></trkpt>
        <trkpt lat="28.1341631" lon="105.7771984"><ele>1530.85</ele><time>2026-05-23T22:16:52.000Z</time></trkpt>
        <trkpt lat="28.13421" lon="105.7771832"><ele>1530</ele><time>2026-05-23T22:16:58.000Z</time></trkpt>
        <trkpt lat="28.13426" lon="105.7771839"><ele>1530.17</ele><time>2026-05-23T22:17:04.000Z</time></trkpt>
        <trkpt lat="28.1343085" lon="105.7771931"><ele>1530.26</ele><time>2026-05-23T22:17:12.000Z</time></trkpt>
        <trkpt lat="28.1343396" lon="105.777232"><ele>1530.21</ele><time>2026-05-23T22:17:18.000Z</time></trkpt>
        <trkpt lat="28.1343799" lon="105.7772733"><ele>1530.31</ele><time>2026-05-23T22:17:26.000Z</time></trkpt>
        <trkpt lat="28.134431" lon="105.7772984"><ele>1531.83</ele><time>2026-05-23T22:17:32.000Z</time></trkpt>
        <trkpt lat="28.1344631" lon="105.7773437"><ele>1533.27</ele><time>2026-05-23T22:17:38.000Z</time></trkpt>
        <trkpt lat="28.134478" lon="105.7774078"><ele>1533.52</ele><time>2026-05-23T22:17:44.000Z</time></trkpt>
        <trkpt lat="28.134464" lon="105.7774685"><ele>1533.5</ele><time>2026-05-23T22:17:52.000Z</time></trkpt>
        <trkpt lat="28.1344589" lon="105.777523"><ele>1532.86</ele><time>2026-05-23T22:17:58.000Z</time></trkpt>
        <trkpt lat="28.1344811" lon="105.7775068"><ele>1531.15</ele><time>2026-05-23T22:18:04.000Z</time></trkpt>
        <trkpt lat="28.1345087" lon="105.7775275"><ele>1530.02</ele><time>2026-05-23T22:18:14.000Z</time></trkpt>
        <trkpt lat="28.1345245" lon="105.7775726"><ele>1530.42</ele><time>2026-05-23T22:18:20.000Z</time></trkpt>
        <trkpt lat="28.1344916" lon="105.7776136"><ele>1529.99</ele><time>2026-05-23T22:18:26.000Z</time></trkpt>
        <trkpt lat="28.1344725" lon="105.7776657"><ele>1530.23</ele><time>2026-05-23T22:18:32.000Z</time></trkpt>
        <trkpt lat="28.1344891" lon="105.7777121"><ele>1530.42</ele><time>2026-05-23T22:18:46.000Z</time></trkpt>
        <trkpt lat="28.1345034" lon="105.7777663"><ele>1530.8</ele><time>2026-05-23T22:18:52.000Z</time></trkpt>
        <trkpt lat="28.134505" lon="105.7778384"><ele>1530.14</ele><time>2026-05-23T22:19:02.000Z</time></trkpt>
        <trkpt lat="28.1344925" lon="105.777887"><ele>1527.74</ele><time>2026-05-23T22:19:12.000Z</time></trkpt>
        <trkpt lat="28.1344759" lon="105.7778533"><ele>1528.34</ele><time>2026-05-23T22:19:37.000Z</time></trkpt>
        <trkpt lat="28.1345069" lon="105.7777898"><ele>1529.4</ele><time>2026-05-23T22:23:14.000Z</time></trkpt>
        <trkpt lat="28.1344807" lon="105.7778511"><ele>1527.67</ele><time>2026-05-23T22:24:34.000Z</time></trkpt>
        <trkpt lat="28.1344629" lon="105.777898"><ele>1522.83</ele><time>2026-05-23T22:25:57.000Z</time></trkpt>
        <trkpt lat="28.1344631" lon="105.7779677"><ele>1523.6</ele><time>2026-05-23T22:26:27.000Z</time></trkpt>
        <trkpt lat="28.1344782" lon="105.7780352"><ele>1523.19</ele><time>2026-05-23T22:26:33.000Z</time></trkpt>
        <trkpt lat="28.1344648" lon="105.7781027"><ele>1522.89</ele><time>2026-05-23T22:26:39.000Z</time></trkpt>
        <trkpt lat="28.1344444" lon="105.7781606"><ele>1522.41</ele><time>2026-05-23T22:26:45.000Z</time></trkpt>
        <trkpt lat="28.1344421" lon="105.7782126"><ele>1521.61</ele><time>2026-05-23T22:26:51.000Z</time></trkpt>
        <trkpt lat="28.134448" lon="105.7782657"><ele>1521.11</ele><time>2026-05-23T22:26:57.000Z</time></trkpt>
        <trkpt lat="28.1344608" lon="105.7783179"><ele>1520.38</ele><time>2026-05-23T22:27:03.000Z</time></trkpt>
        <trkpt lat="28.1344857" lon="105.7783761"><ele>1519.82</ele><time>2026-05-23T22:27:21.000Z</time></trkpt>
        <trkpt lat="28.1344819" lon="105.7784352"><ele>1518.65</ele><time>2026-05-23T22:27:27.000Z</time></trkpt>
        <trkpt lat="28.134464" lon="105.7785086"><ele>1517.53</ele><time>2026-05-23T22:27:33.000Z</time></trkpt>
        <trkpt lat="28.134444" lon="105.77857"><ele>1516.96</ele><time>2026-05-23T22:27:39.000Z</time></trkpt>
        <trkpt lat="28.1344222" lon="105.7786259"><ele>1516.63</ele><time>2026-05-23T22:27:45.000Z</time></trkpt>
        <trkpt lat="28.1343963" lon="105.7786724"><ele>1517.17</ele><time>2026-05-23T22:27:55.000Z</time></trkpt>
        <trkpt lat="28.1343563" lon="105.778727"><ele>1516.84</ele><time>2026-05-23T22:28:01.000Z</time></trkpt>
        <trkpt lat="28.1343127" lon="105.7787589"><ele>1515.74</ele><time>2026-05-23T22:28:05.000Z</time></trkpt>
        <trkpt lat="28.1342969" lon="105.7788092"><ele>1513.87</ele><time>2026-05-23T22:28:11.000Z</time></trkpt>
        <trkpt lat="28.1343265" lon="105.7788631"><ele>1511.13</ele><time>2026-05-23T22:28:17.000Z</time></trkpt>
        <trkpt lat="28.1343491" lon="105.7789295"><ele>1511.48</ele><time>2026-05-23T22:28:23.000Z</time></trkpt>
        <trkpt lat="28.1343535" lon="105.7790009"><ele>1511.13</ele><time>2026-05-23T22:28:29.000Z</time></trkpt>
        <trkpt lat="28.1343316" lon="105.7790512"><ele>1511.38</ele><time>2026-05-23T22:28:33.000Z</time></trkpt>
        <trkpt lat="28.1343005" lon="105.7790934"><ele>1511.74</ele><time>2026-05-23T22:28:37.000Z</time></trkpt>
        <trkpt lat="28.1342561" lon="105.7791165"><ele>1512.72</ele><time>2026-05-23T22:28:41.000Z</time></trkpt>
        <trkpt lat="28.1342103" lon="105.7791332"><ele>1513.29</ele><time>2026-05-23T22:28:45.000Z</time></trkpt>
        <trkpt lat="28.1342067" lon="105.7791888"><ele>1513.16</ele><time>2026-05-23T22:28:57.000Z</time></trkpt>
        <trkpt lat="28.1342449" lon="105.7792368"><ele>1512.92</ele><time>2026-05-23T22:29:03.000Z</time></trkpt>
        <trkpt lat="28.1342948" lon="105.7792895"><ele>1511.82</ele><time>2026-05-23T22:29:09.000Z</time></trkpt>
        <trkpt lat="28.134323" lon="105.7793439"><ele>1511.79</ele><time>2026-05-23T22:29:15.000Z</time></trkpt>
        <trkpt lat="28.1343363" lon="105.779412"><ele>1511.4</ele><time>2026-05-23T22:29:21.000Z</time></trkpt>
        <trkpt lat="28.1343299" lon="105.7794708"><ele>1511.59</ele><time>2026-05-23T22:29:25.000Z</time></trkpt>
        <trkpt lat="28.1343071" lon="105.7795187"><ele>1510.67</ele><time>2026-05-23T22:29:29.000Z</time></trkpt>
        <trkpt lat="28.1342767" lon="105.7795618"><ele>1509.76</ele><time>2026-05-23T22:29:33.000Z</time></trkpt>
        <trkpt lat="28.1342521" lon="105.7796207"><ele>1509.49</ele><time>2026-05-23T22:29:39.000Z</time></trkpt>
        <trkpt lat="28.1342407" lon="105.7796797"><ele>1508.64</ele><time>2026-05-23T22:29:43.000Z</time></trkpt>
        <trkpt lat="28.1342228" lon="105.7797405"><ele>1507.92</ele><time>2026-05-23T22:29:49.000Z</time></trkpt>
        <trkpt lat="28.1342117" lon="105.7798014"><ele>1507.41</ele><time>2026-05-23T22:29:59.000Z</time></trkpt>
        <trkpt lat="28.134197" lon="105.7798524"><ele>1507.14</ele><time>2026-05-23T22:30:03.000Z</time></trkpt>
        <trkpt lat="28.1341712" lon="105.7799112"><ele>1506.78</ele><time>2026-05-23T22:30:09.000Z</time></trkpt>
        <trkpt lat="28.1341691" lon="105.7799793"><ele>1507.07</ele><time>2026-05-23T22:30:15.000Z</time></trkpt>
        <trkpt lat="28.1341556" lon="105.7800401"><ele>1507.01</ele><time>2026-05-23T22:30:21.000Z</time></trkpt>
        <trkpt lat="28.1341513" lon="105.7801067"><ele>1505.86</ele><time>2026-05-23T22:30:27.000Z</time></trkpt>
        <trkpt lat="28.1341541" lon="105.780144"><ele>1504.82</ele><time>2026-05-23T22:30:31.000Z</time></trkpt>
        <trkpt lat="28.1341602" lon="105.7801978"><ele>1504.89</ele><time>2026-05-23T22:31:26.000Z</time></trkpt>
        <trkpt lat="28.1341578" lon="105.7802497"><ele>1504.91</ele><time>2026-05-23T22:31:32.000Z</time></trkpt>
        <trkpt lat="28.1341786" lon="105.7803101"><ele>1505.47</ele><time>2026-05-23T22:31:38.000Z</time></trkpt>
        <trkpt lat="28.1341937" lon="105.7803651"><ele>1506.24</ele><time>2026-05-23T22:31:44.000Z</time></trkpt>
        <trkpt lat="28.1342028" lon="105.7804189"><ele>1506.73</ele><time>2026-05-23T22:31:50.000Z</time></trkpt>
        <trkpt lat="28.1341959" lon="105.7804851"><ele>1506.83</ele><time>2026-05-23T22:31:56.000Z</time></trkpt>
        <trkpt lat="28.1341883" lon="105.780547"><ele>1507.13</ele><time>2026-05-23T22:32:02.000Z</time></trkpt>
        <trkpt lat="28.1342121" lon="105.7806028"><ele>1507.94</ele><time>2026-05-23T22:32:12.000Z</time></trkpt>
        <trkpt lat="28.1342451" lon="105.7806489"><ele>1508.65</ele><time>2026-05-23T22:32:18.000Z</time></trkpt>
        <trkpt lat="28.1342791" lon="105.7806898"><ele>1509.54</ele><time>2026-05-23T22:32:24.000Z</time></trkpt>
        <trkpt lat="28.1343068" lon="105.7807427"><ele>1510.29</ele><time>2026-05-23T22:32:30.000Z</time></trkpt>
        <trkpt lat="28.1343332" lon="105.7808031"><ele>1510.57</ele><time>2026-05-23T22:32:36.000Z</time></trkpt>
        <trkpt lat="28.1343519" lon="105.7808556"><ele>1510.76</ele><time>2026-05-23T22:32:40.000Z</time></trkpt>
        <trkpt lat="28.1343792" lon="105.7809002"><ele>1510.83</ele><time>2026-05-23T22:32:46.000Z</time></trkpt>
        <trkpt lat="28.1344188" lon="105.7809492"><ele>1511.09</ele><time>2026-05-23T22:32:52.000Z</time></trkpt>
        <trkpt lat="28.1344555" lon="105.7809941"><ele>1511.09</ele><time>2026-05-23T22:32:58.000Z</time></trkpt>
        <trkpt lat="28.1344864" lon="105.781042"><ele>1510.89</ele><time>2026-05-23T22:33:04.000Z</time></trkpt>
        <trkpt lat="28.1345271" lon="105.7810865"><ele>1510.65</ele><time>2026-05-23T22:33:10.000Z</time></trkpt>
        <trkpt lat="28.1345712" lon="105.7811301"><ele>1510.75</ele><time>2026-05-23T22:33:16.000Z</time></trkpt>
        <trkpt lat="28.1346145" lon="105.7811615"><ele>1510.74</ele><time>2026-05-23T22:33:20.000Z</time></trkpt>
        <trkpt lat="28.1346613" lon="105.7812024"><ele>1511.45</ele><time>2026-05-23T22:33:26.000Z</time></trkpt>
        <trkpt lat="28.1347005" lon="105.7812434"><ele>1511.49</ele><time>2026-05-23T22:33:32.000Z</time></trkpt>
        <trkpt lat="28.1347452" lon="105.7812738"><ele>1510.63</ele><time>2026-05-23T22:34:12.000Z</time></trkpt>
        <trkpt lat="28.1347913" lon="105.7812936"><ele>1512.97</ele><time>2026-05-23T22:34:16.000Z</time></trkpt>
        <trkpt lat="28.1348466" lon="105.7813142"><ele>1514.01</ele><time>2026-05-23T22:34:22.000Z</time></trkpt>
        <trkpt lat="28.1349055" lon="105.7813284"><ele>1514.79</ele><time>2026-05-23T22:34:28.000Z</time></trkpt>
        <trkpt lat="28.1349623" lon="105.7813399"><ele>1515.13</ele><time>2026-05-23T22:34:34.000Z</time></trkpt>
        <trkpt lat="28.1350216" lon="105.7813571"><ele>1515.75</ele><time>2026-05-23T22:34:40.000Z</time></trkpt>
        <trkpt lat="28.1350802" lon="105.7813728"><ele>1515.9</ele><time>2026-05-23T22:34:46.000Z</time></trkpt>
        <trkpt lat="28.1351348" lon="105.7813639"><ele>1516.6</ele><time>2026-05-23T22:34:54.000Z</time></trkpt>
        <trkpt lat="28.1351888" lon="105.7813458"><ele>1516.34</ele><time>2026-05-23T22:35:02.000Z</time></trkpt>
        <trkpt lat="28.1352457" lon="105.7813193"><ele>1517.01</ele><time>2026-05-23T22:35:10.000Z</time></trkpt>
        <trkpt lat="28.1352991" lon="105.7813062"><ele>1517.44</ele><time>2026-05-23T22:35:16.000Z</time></trkpt>
        <trkpt lat="28.1353554" lon="105.7812878"><ele>1516.66</ele><time>2026-05-23T22:35:22.000Z</time></trkpt>
        <trkpt lat="28.1354102" lon="105.7812587"><ele>1516.59</ele><time>2026-05-23T22:35:28.000Z</time></trkpt>
        <trkpt lat="28.1354636" lon="105.7812436"><ele>1516.62</ele><time>2026-05-23T22:35:34.000Z</time></trkpt>
        <trkpt lat="28.1355137" lon="105.7812476"><ele>1517.68</ele><time>2026-05-23T22:35:40.000Z</time></trkpt>
        <trkpt lat="28.1355629" lon="105.781259"><ele>1518.47</ele><time>2026-05-23T22:35:48.000Z</time></trkpt>
        <trkpt lat="28.1356102" lon="105.7812648"><ele>1518.73</ele><time>2026-05-23T22:35:56.000Z</time></trkpt>
        <trkpt lat="28.1356527" lon="105.781251"><ele>1519.54</ele><time>2026-05-23T22:36:04.000Z</time></trkpt>
        <trkpt lat="28.1356957" lon="105.781229"><ele>1520.9</ele><time>2026-05-23T22:36:12.000Z</time></trkpt>
        <trkpt lat="28.1357467" lon="105.7812203"><ele>1522.46</ele><time>2026-05-23T22:36:34.000Z</time></trkpt>
        <trkpt lat="28.1357993" lon="105.7812047"><ele>1524.55</ele><time>2026-05-23T22:36:42.000Z</time></trkpt>
        <trkpt lat="28.1358456" lon="105.7811895"><ele>1526.09</ele><time>2026-05-23T22:36:52.000Z</time></trkpt>
        <trkpt lat="28.1359012" lon="105.7811701"><ele>1528.57</ele><time>2026-05-23T22:37:02.000Z</time></trkpt>
        <trkpt lat="28.1359455" lon="105.781185"><ele>1531.51</ele><time>2026-05-23T22:37:10.000Z</time></trkpt>
        <trkpt lat="28.135937" lon="105.7812259"><ele>1533.86</ele><time>2026-05-23T22:37:16.000Z</time></trkpt>
        <trkpt lat="28.1358839" lon="105.7812518"><ele>1534.88</ele><time>2026-05-23T22:37:24.000Z</time></trkpt>
        <trkpt lat="28.1358457" lon="105.7812955"><ele>1537.19</ele><time>2026-05-23T22:37:30.000Z</time></trkpt>
        <trkpt lat="28.1358116" lon="105.781343"><ele>1538.33</ele><time>2026-05-23T22:37:40.000Z</time></trkpt>
        <trkpt lat="28.1357891" lon="105.7813989"><ele>1539.78</ele><time>2026-05-23T22:37:50.000Z</time></trkpt>
        <trkpt lat="28.1358195" lon="105.7814229"><ele>1540.61</ele><time>2026-05-23T22:37:58.000Z</time></trkpt>
        <trkpt lat="28.1358428" lon="105.7814662"><ele>1541.57</ele><time>2026-05-23T22:48:32.000Z</time></trkpt>
        <trkpt lat="28.1358208" lon="105.7815125"><ele>1537.93</ele><time>2026-05-23T22:48:43.000Z</time></trkpt>
        <trkpt lat="28.1357913" lon="105.7815543"><ele>1540.27</ele><time>2026-05-23T22:48:55.000Z</time></trkpt>
        <trkpt lat="28.1357653" lon="105.7815999"><ele>1542.86</ele><time>2026-05-23T22:49:09.000Z</time></trkpt>
        <trkpt lat="28.1357173" lon="105.7816147"><ele>1544.87</ele><time>2026-05-23T22:49:21.000Z</time></trkpt>
        <trkpt lat="28.1356679" lon="105.7816255"><ele>1546.52</ele><time>2026-05-23T22:49:50.000Z</time></trkpt>
        <trkpt lat="28.1356225" lon="105.7816407"><ele>1549.44</ele><time>2026-05-23T22:50:00.000Z</time></trkpt>
        <trkpt lat="28.1355704" lon="105.7816395"><ele>1551.67</ele><time>2026-05-23T22:50:12.000Z</time></trkpt>
        <trkpt lat="28.1355785" lon="105.7816674"><ele>1553.45</ele><time>2026-05-23T22:50:18.000Z</time></trkpt>
        <trkpt lat="28.135552" lon="105.7817"><ele>1554.92</ele><time>2026-05-23T22:50:24.000Z</time></trkpt>
        <trkpt lat="28.135516" lon="105.7817299"><ele>1555.85</ele><time>2026-05-23T22:50:38.000Z</time></trkpt>
        <trkpt lat="28.1354695" lon="105.7817474"><ele>1556.62</ele><time>2026-05-23T22:50:52.000Z</time></trkpt>
        <trkpt lat="28.1354252" lon="105.7817725"><ele>1558.63</ele><time>2026-05-23T22:51:02.000Z</time></trkpt>
        <trkpt lat="28.1353871" lon="105.7818053"><ele>1558.85</ele><time>2026-05-23T22:51:16.000Z</time></trkpt>
        <trkpt lat="28.1353548" lon="105.7817857"><ele>1560.86</ele><time>2026-05-23T22:51:32.000Z</time></trkpt>
        <trkpt lat="28.1353101" lon="105.7817762"><ele>1563.7</ele><time>2026-05-23T22:51:50.000Z</time></trkpt>
        <trkpt lat="28.1352762" lon="105.7818018"><ele>1565.45</ele><time>2026-05-23T22:52:08.000Z</time></trkpt>
        <trkpt lat="28.1352426" lon="105.7818424"><ele>1566.77</ele><time>2026-05-23T22:52:22.000Z</time></trkpt>
        <trkpt lat="28.1351986" lon="105.7818728"><ele>1569.65</ele><time>2026-05-23T22:52:52.000Z</time></trkpt>
        <trkpt lat="28.1351459" lon="105.7818872"><ele>1571.3</ele><time>2026-05-23T22:53:16.000Z</time></trkpt>
        <trkpt lat="28.1351244" lon="105.7819293"><ele>1573.98</ele><time>2026-05-23T22:53:24.000Z</time></trkpt>
        <trkpt lat="28.1351035" lon="105.7819829"><ele>1574.94</ele><time>2026-05-23T22:53:34.000Z</time></trkpt>
        <trkpt lat="28.1350608" lon="105.7819969"><ele>1577.01</ele><time>2026-05-23T22:53:48.000Z</time></trkpt>
        <trkpt lat="28.1350569" lon="105.7820383"><ele>1579.12</ele><time>2026-05-23T22:54:00.000Z</time></trkpt>
        <trkpt lat="28.1350703" lon="105.7820945"><ele>1582.18</ele><time>2026-05-23T22:54:35.000Z</time></trkpt>
        <trkpt lat="28.1350674" lon="105.7821615"><ele>1584.36</ele><time>2026-05-23T22:54:43.000Z</time></trkpt>
        <trkpt lat="28.1350614" lon="105.782234"><ele>1586.27</ele><time>2026-05-23T22:54:49.000Z</time></trkpt>
        <trkpt lat="28.13506" lon="105.7823006"><ele>1587.14</ele><time>2026-05-23T22:54:55.000Z</time></trkpt>
        <trkpt lat="28.1350651" lon="105.7823628"><ele>1587.52</ele><time>2026-05-23T22:55:01.000Z</time></trkpt>
        <trkpt lat="28.1350338" lon="105.7823971"><ele>1587.13</ele><time>2026-05-23T22:55:11.000Z</time></trkpt>
        <trkpt lat="28.1350207" lon="105.782445"><ele>1587.81</ele><time>2026-05-23T22:55:26.000Z</time></trkpt>
        <trkpt lat="28.1350264" lon="105.7824942"><ele>1589.07</ele><time>2026-05-23T22:55:36.000Z</time></trkpt>
        <trkpt lat="28.1350298" lon="105.7825474"><ele>1590.42</ele><time>2026-05-23T22:55:44.000Z</time></trkpt>
        <trkpt lat="28.135029" lon="105.7826016"><ele>1591.15</ele><time>2026-05-23T22:55:55.000Z</time></trkpt>
        <trkpt lat="28.1350296" lon="105.7826598"><ele>1594.12</ele><time>2026-05-23T22:56:08.000Z</time></trkpt>
        <trkpt lat="28.1350294" lon="105.7827223"><ele>1596.09</ele><time>2026-05-23T22:56:18.000Z</time></trkpt>
        <trkpt lat="28.1350359" lon="105.7827783"><ele>1597.44</ele><time>2026-05-23T22:56:25.000Z</time></trkpt>
        <trkpt lat="28.1350486" lon="105.7828315"><ele>1598.92</ele><time>2026-05-23T22:56:31.000Z</time></trkpt>
        <trkpt lat="28.1350582" lon="105.7828929"><ele>1599.7</ele><time>2026-05-23T22:56:39.000Z</time></trkpt>
        <trkpt lat="28.1350556" lon="105.7829519"><ele>1601.27</ele><time>2026-05-23T22:56:45.000Z</time></trkpt>
        <trkpt lat="28.135059" lon="105.7830122"><ele>1601.66</ele><time>2026-05-23T22:56:51.000Z</time></trkpt>
        <trkpt lat="28.135048" lon="105.7830684"><ele>1602.55</ele><time>2026-05-23T22:56:59.000Z</time></trkpt>
        <trkpt lat="28.1350626" lon="105.7831224"><ele>1602.84</ele><time>2026-05-23T22:57:07.000Z</time></trkpt>
        <trkpt lat="28.1350845" lon="105.7831865"><ele>1604.07</ele><time>2026-05-23T22:57:15.000Z</time></trkpt>
        <trkpt lat="28.1350822" lon="105.7832436"><ele>1604.64</ele><time>2026-05-23T22:57:27.000Z</time></trkpt>
        <trkpt lat="28.1350557" lon="105.7832993"><ele>1602.87</ele><time>2026-05-23T22:57:37.000Z</time></trkpt>
        <trkpt lat="28.1350304" lon="105.7833527"><ele>1600.68</ele><time>2026-05-23T22:57:47.000Z</time></trkpt>
        <trkpt lat="28.1350284" lon="105.7834131"><ele>1600.31</ele><time>2026-05-23T22:57:55.000Z</time></trkpt>
        <trkpt lat="28.1350217" lon="105.7834712"><ele>1601.87</ele><time>2026-05-23T22:58:03.000Z</time></trkpt>
        <trkpt lat="28.1350214" lon="105.7835272"><ele>1601.17</ele><time>2026-05-23T22:58:09.000Z</time></trkpt>
        <trkpt lat="28.1350288" lon="105.7835809"><ele>1601.3</ele><time>2026-05-23T22:58:17.000Z</time></trkpt>
        <trkpt lat="28.1350317" lon="105.7836367"><ele>1600.63</ele><time>2026-05-23T22:58:25.000Z</time></trkpt>
        <trkpt lat="28.1350281" lon="105.783697"><ele>1599.37</ele><time>2026-05-23T22:58:31.000Z</time></trkpt>
        <trkpt lat="28.1350135" lon="105.7837483"><ele>1599.13</ele><time>2026-05-23T22:58:38.000Z</time></trkpt>
        <trkpt lat="28.1349955" lon="105.7838056"><ele>1596.86</ele><time>2026-05-23T22:58:49.000Z</time></trkpt>
        <trkpt lat="28.1349837" lon="105.7838677"><ele>1595.75</ele><time>2026-05-23T22:58:55.000Z</time></trkpt>
        <trkpt lat="28.1349623" lon="105.7839176"><ele>1594.75</ele><time>2026-05-23T22:59:03.000Z</time></trkpt>
        <trkpt lat="28.1349508" lon="105.7839676"><ele>1594.1</ele><time>2026-05-23T22:59:07.000Z</time></trkpt>
        <trkpt lat="28.1349552" lon="105.7840305"><ele>1593.75</ele><time>2026-05-23T22:59:13.000Z</time></trkpt>
        <trkpt lat="28.1349519" lon="105.7841007"><ele>1593.32</ele><time>2026-05-23T22:59:19.000Z</time></trkpt>
        <trkpt lat="28.1349613" lon="105.784165"><ele>1593.21</ele><time>2026-05-23T22:59:27.000Z</time></trkpt>
        <trkpt lat="28.134944" lon="105.7842266"><ele>1591.54</ele><time>2026-05-23T22:59:35.000Z</time></trkpt>
        <trkpt lat="28.1349129" lon="105.7842767"><ele>1590.03</ele><time>2026-05-23T22:59:41.000Z</time></trkpt>
        <trkpt lat="28.1348924" lon="105.7843352"><ele>1588.64</ele><time>2026-05-23T22:59:47.000Z</time></trkpt>
        <trkpt lat="28.1348677" lon="105.7843914"><ele>1587.71</ele><time>2026-05-23T22:59:53.000Z</time></trkpt>
        <trkpt lat="28.134835" lon="105.784441"><ele>1587.84</ele><time>2026-05-23T22:59:59.000Z</time></trkpt>
        <trkpt lat="28.1348061" lon="105.7844872"><ele>1587.95</ele><time>2026-05-23T23:00:09.000Z</time></trkpt>
        <trkpt lat="28.1347679" lon="105.7845311"><ele>1587.5</ele><time>2026-05-23T23:00:17.000Z</time></trkpt>
        <trkpt lat="28.1347439" lon="105.7845772"><ele>1587.35</ele><time>2026-05-23T23:00:27.000Z</time></trkpt>
        <trkpt lat="28.1347196" lon="105.7846273"><ele>1586.45</ele><time>2026-05-23T23:00:33.000Z</time></trkpt>
        <trkpt lat="28.1346977" lon="105.7846887"><ele>1585.44</ele><time>2026-05-23T23:00:39.000Z</time></trkpt>
        <trkpt lat="28.1346871" lon="105.7847551"><ele>1584.71</ele><time>2026-05-23T23:00:45.000Z</time></trkpt>
        <trkpt lat="28.1346782" lon="105.784821"><ele>1584.32</ele><time>2026-05-23T23:00:51.000Z</time></trkpt>
        <trkpt lat="28.1346647" lon="105.7848854"><ele>1583.51</ele><time>2026-05-23T23:00:57.000Z</time></trkpt>
        <trkpt lat="28.1346496" lon="105.784954"><ele>1582.8</ele><time>2026-05-23T23:01:03.000Z</time></trkpt>
        <trkpt lat="28.134641" lon="105.7850213"><ele>1582.16</ele><time>2026-05-23T23:01:09.000Z</time></trkpt>
        <trkpt lat="28.1346267" lon="105.7850819"><ele>1581.44</ele><time>2026-05-23T23:01:15.000Z</time></trkpt>
        <trkpt lat="28.1346041" lon="105.7851458"><ele>1580.54</ele><time>2026-05-23T23:01:21.000Z</time></trkpt>
        <trkpt lat="28.1345897" lon="105.785213"><ele>1579.76</ele><time>2026-05-23T23:01:27.000Z</time></trkpt>
        <trkpt lat="28.1345989" lon="105.7852812"><ele>1580.1</ele><time>2026-05-23T23:01:33.000Z</time></trkpt>
        <trkpt lat="28.1346047" lon="105.7853437"><ele>1581</ele><time>2026-05-23T23:01:39.000Z</time></trkpt>
        <trkpt lat="28.1346211" lon="105.7854052"><ele>1580.81</ele><time>2026-05-23T23:01:45.000Z</time></trkpt>
        <trkpt lat="28.1346378" lon="105.7854667"><ele>1579.68</ele><time>2026-05-23T23:01:51.000Z</time></trkpt>
        <trkpt lat="28.1346501" lon="105.7855245"><ele>1578.33</ele><time>2026-05-23T23:01:57.000Z</time></trkpt>
        <trkpt lat="28.134674" lon="105.7855817"><ele>1577.08</ele><time>2026-05-23T23:02:03.000Z</time></trkpt>
        <trkpt lat="28.134695" lon="105.7856363"><ele>1575.56</ele><time>2026-05-23T23:02:09.000Z</time></trkpt>
        <trkpt lat="28.1347153" lon="105.7856914"><ele>1573.75</ele><time>2026-05-23T23:02:15.000Z</time></trkpt>
        <trkpt lat="28.1347266" lon="105.7857521"><ele>1572.41</ele><time>2026-05-23T23:02:21.000Z</time></trkpt>
        <trkpt lat="28.1347351" lon="105.7858117"><ele>1571.46</ele><time>2026-05-23T23:02:27.000Z</time></trkpt>
        <trkpt lat="28.1347449" lon="105.7858799"><ele>1570.44</ele><time>2026-05-23T23:02:33.000Z</time></trkpt>
        <trkpt lat="28.1347509" lon="105.7859513"><ele>1569.66</ele><time>2026-05-23T23:02:39.000Z</time></trkpt>
        <trkpt lat="28.1347494" lon="105.7860117"><ele>1569.09</ele><time>2026-05-23T23:02:45.000Z</time></trkpt>
        <trkpt lat="28.1347351" lon="105.7860761"><ele>1567.94</ele><time>2026-05-23T23:02:51.000Z</time></trkpt>
        <trkpt lat="28.1347155" lon="105.786142"><ele>1567.15</ele><time>2026-05-23T23:02:57.000Z</time></trkpt>
        <trkpt lat="28.1347004" lon="105.7862027"><ele>1567.81</ele><time>2026-05-23T23:03:03.000Z</time></trkpt>
        <trkpt lat="28.1346918" lon="105.7862645"><ele>1567.57</ele><time>2026-05-23T23:03:09.000Z</time></trkpt>
        <trkpt lat="28.1346822" lon="105.7863336"><ele>1568.03</ele><time>2026-05-23T23:03:15.000Z</time></trkpt>
        <trkpt lat="28.134662" lon="105.7863975"><ele>1568.43</ele><time>2026-05-23T23:03:21.000Z</time></trkpt>
        <trkpt lat="28.1346368" lon="105.7864621"><ele>1567.14</ele><time>2026-05-23T23:03:27.000Z</time></trkpt>
        <trkpt lat="28.134617" lon="105.7865248"><ele>1566.17</ele><time>2026-05-23T23:03:31.000Z</time></trkpt>
        <trkpt lat="28.1345973" lon="105.7865878"><ele>1565.81</ele><time>2026-05-23T23:03:38.000Z</time></trkpt>
        <trkpt lat="28.1345795" lon="105.7866553"><ele>1565.47</ele><time>2026-05-23T23:03:44.000Z</time></trkpt>
        <trkpt lat="28.134581" lon="105.7867277"><ele>1564.82</ele><time>2026-05-23T23:03:50.000Z</time></trkpt>
        <trkpt lat="28.1345932" lon="105.7867838"><ele>1564.18</ele><time>2026-05-23T23:03:56.000Z</time></trkpt>
        <trkpt lat="28.1346217" lon="105.7868332"><ele>1564</ele><time>2026-05-23T23:04:02.000Z</time></trkpt>
        <trkpt lat="28.1346609" lon="105.7868784"><ele>1563.7</ele><time>2026-05-23T23:04:08.000Z</time></trkpt>
        <trkpt lat="28.1346999" lon="105.7869197"><ele>1563.13</ele><time>2026-05-23T23:04:14.000Z</time></trkpt>
        <trkpt lat="28.1347199" lon="105.7869732"><ele>1563.21</ele><time>2026-05-23T23:04:20.000Z</time></trkpt>
        <trkpt lat="28.1347202" lon="105.7870303"><ele>1561.93</ele><time>2026-05-23T23:04:26.000Z</time></trkpt>
        <trkpt lat="28.134724" lon="105.7870872"><ele>1560.52</ele><time>2026-05-23T23:04:32.000Z</time></trkpt>
        <trkpt lat="28.1347292" lon="105.7871457"><ele>1559.87</ele><time>2026-05-23T23:04:38.000Z</time></trkpt>
        <trkpt lat="28.1347385" lon="105.7872067"><ele>1559.29</ele><time>2026-05-23T23:04:44.000Z</time></trkpt>
        <trkpt lat="28.134735" lon="105.7872699"><ele>1559.29</ele><time>2026-05-23T23:04:50.000Z</time></trkpt>
        <trkpt lat="28.1347505" lon="105.787323"><ele>1558.96</ele><time>2026-05-23T23:04:56.000Z</time></trkpt>
        <trkpt lat="28.1347588" lon="105.7873811"><ele>1557.97</ele><time>2026-05-23T23:05:04.000Z</time></trkpt>
        <trkpt lat="28.1347398" lon="105.7873934"><ele>1558.56</ele><time>2026-05-23T23:05:12.000Z</time></trkpt>
        <trkpt lat="28.1347219" lon="105.7874412"><ele>1558.07</ele><time>2026-05-23T23:05:18.000Z</time></trkpt>
        <trkpt lat="28.1347229" lon="105.787501"><ele>1555.9</ele><time>2026-05-23T23:05:26.000Z</time></trkpt>
        <trkpt lat="28.1347218" lon="105.7875678"><ele>1554.39</ele><time>2026-05-23T23:05:32.000Z</time></trkpt>
        <trkpt lat="28.1347295" lon="105.7876257"><ele>1553.1</ele><time>2026-05-23T23:05:38.000Z</time></trkpt>
        <trkpt lat="28.1346905" lon="105.7876655"><ele>1552.18</ele><time>2026-05-23T23:05:44.000Z</time></trkpt>
        <trkpt lat="28.1346659" lon="105.7877319"><ele>1550.88</ele><time>2026-05-23T23:05:50.000Z</time></trkpt>
        <trkpt lat="28.1346761" lon="105.787785"><ele>1550.53</ele><time>2026-05-23T23:05:54.000Z</time></trkpt>
        <trkpt lat="28.134683" lon="105.7878423"><ele>1551.14</ele><time>2026-05-23T23:06:00.000Z</time></trkpt>
        <trkpt lat="28.1346745" lon="105.7879082"><ele>1551.09</ele><time>2026-05-23T23:06:06.000Z</time></trkpt>
        <trkpt lat="28.1346755" lon="105.7879797"><ele>1550.37</ele><time>2026-05-23T23:06:12.000Z</time></trkpt>
        <trkpt lat="28.1346964" lon="105.7880477"><ele>1550.21</ele><time>2026-05-23T23:06:18.000Z</time></trkpt>
        <trkpt lat="28.1347402" lon="105.7880929"><ele>1549.35</ele><time>2026-05-23T23:06:24.000Z</time></trkpt>
        <trkpt lat="28.1347732" lon="105.7881417"><ele>1548.67</ele><time>2026-05-23T23:06:30.000Z</time></trkpt>
        <trkpt lat="28.134804" lon="105.7881963"><ele>1548.29</ele><time>2026-05-23T23:06:36.000Z</time></trkpt>
        <trkpt lat="28.1347774" lon="105.7882502"><ele>1547.43</ele><time>2026-05-23T23:06:42.000Z</time></trkpt>
        <trkpt lat="28.1347214" lon="105.7882767"><ele>1547.18</ele><time>2026-05-23T23:06:48.000Z</time></trkpt>
        <trkpt lat="28.1346627" lon="105.7882924"><ele>1546.55</ele><time>2026-05-23T23:06:57.000Z</time></trkpt>
        <trkpt lat="28.1346029" lon="105.7883144"><ele>1545.79</ele><time>2026-05-23T23:07:03.000Z</time></trkpt>
        <trkpt lat="28.1345681" lon="105.78836"><ele>1544.05</ele><time>2026-05-23T23:07:09.000Z</time></trkpt>
        <trkpt lat="28.1345963" lon="105.7883913"><ele>1543.56</ele><time>2026-05-23T23:07:21.000Z</time></trkpt>
        <trkpt lat="28.1345867" lon="105.7884318"><ele>1544.09</ele><time>2026-05-23T23:07:41.000Z</time></trkpt>
        <trkpt lat="28.1345873" lon="105.788481"><ele>1545.07</ele><time>2026-05-23T23:07:45.000Z</time></trkpt>
        <trkpt lat="28.1345715" lon="105.7885319"><ele>1546.56</ele><time>2026-05-23T23:07:53.000Z</time></trkpt>
        <trkpt lat="28.1345304" lon="105.7885302"><ele>1547.57</ele><time>2026-05-23T23:07:59.000Z</time></trkpt>
        <trkpt lat="28.134533" lon="105.7884902"><ele>1549.36</ele><time>2026-05-23T23:08:05.000Z</time></trkpt>
        <trkpt lat="28.1345277" lon="105.7885161"><ele>1549.12</ele><time>2026-05-23T23:08:13.000Z</time></trkpt>
        <trkpt lat="28.1345057" lon="105.78857"><ele>1550.22</ele><time>2026-05-23T23:08:25.000Z</time></trkpt>
        <trkpt lat="28.1344889" lon="105.7886287"><ele>1549.92</ele><time>2026-05-23T23:08:34.000Z</time></trkpt>
        <trkpt lat="28.1344868" lon="105.7886872"><ele>1549.89</ele><time>2026-05-23T23:08:45.000Z</time></trkpt>
        <trkpt lat="28.1344942" lon="105.7887652"><ele>1549.8</ele><time>2026-05-23T23:09:48.000Z</time></trkpt>
        <trkpt lat="28.1345022" lon="105.7888335"><ele>1548.54</ele><time>2026-05-23T23:09:56.000Z</time></trkpt>
        <trkpt lat="28.1345101" lon="105.7888872"><ele>1547.95</ele><time>2026-05-23T23:10:08.000Z</time></trkpt>
        <trkpt lat="28.1345283" lon="105.7889436"><ele>1547.64</ele><time>2026-05-23T23:10:14.000Z</time></trkpt>
        <trkpt lat="28.1345474" lon="105.7889983"><ele>1547.29</ele><time>2026-05-23T23:10:20.000Z</time></trkpt>
        <trkpt lat="28.1345771" lon="105.7890528"><ele>1546.48</ele><time>2026-05-23T23:10:26.000Z</time></trkpt>
        <trkpt lat="28.134606" lon="105.7891154"><ele>1545.34</ele><time>2026-05-23T23:10:32.000Z</time></trkpt>
        <trkpt lat="28.1346398" lon="105.7891756"><ele>1544.87</ele><time>2026-05-23T23:10:38.000Z</time></trkpt>
        <trkpt lat="28.1346551" lon="105.789204"><ele>1544.82</ele><time>2026-05-23T23:10:42.000Z</time></trkpt>
        <trkpt lat="28.1346912" lon="105.7892337"><ele>1544.64</ele><time>2026-05-23T23:10:50.000Z</time></trkpt>
        <trkpt lat="28.1347437" lon="105.7892682"><ele>1544.6</ele><time>2026-05-23T23:10:57.000Z</time></trkpt>
        <trkpt lat="28.1347983" lon="105.789305"><ele>1544.37</ele><time>2026-05-23T23:11:03.000Z</time></trkpt>
        <trkpt lat="28.1348536" lon="105.7893375"><ele>1543.67</ele><time>2026-05-23T23:11:09.000Z</time></trkpt>
        <trkpt lat="28.1349075" lon="105.7893653"><ele>1543.15</ele><time>2026-05-23T23:11:15.000Z</time></trkpt>
        <trkpt lat="28.1349609" lon="105.7893832"><ele>1542.5</ele><time>2026-05-23T23:11:21.000Z</time></trkpt>
        <trkpt lat="28.135017" lon="105.7893967"><ele>1541.76</ele><time>2026-05-23T23:11:27.000Z</time></trkpt>
        <trkpt lat="28.1350656" lon="105.789427"><ele>1541.8</ele><time>2026-05-23T23:11:34.000Z</time></trkpt>
        <trkpt lat="28.1350838" lon="105.789477"><ele>1541.77</ele><time>2026-05-23T23:11:57.000Z</time></trkpt>
        <trkpt lat="28.1350589" lon="105.7895356"><ele>1542.64</ele><time>2026-05-23T23:12:03.000Z</time></trkpt>
        <trkpt lat="28.1350129" lon="105.7895862"><ele>1543.79</ele><time>2026-05-23T23:12:11.000Z</time></trkpt>
        <trkpt lat="28.1349883" lon="105.7896497"><ele>1544.34</ele><time>2026-05-23T23:12:17.000Z</time></trkpt>
        <trkpt lat="28.1349751" lon="105.7897134"><ele>1544.93</ele><time>2026-05-23T23:12:22.000Z</time></trkpt>
        <trkpt lat="28.1349721" lon="105.7897716"><ele>1545.27</ele><time>2026-05-23T23:12:32.000Z</time></trkpt>
        <trkpt lat="28.1349382" lon="105.7898201"><ele>1546.37</ele><time>2026-05-23T23:12:51.000Z</time></trkpt>
        <trkpt lat="28.1349025" lon="105.7898796"><ele>1546.58</ele><time>2026-05-23T23:12:57.000Z</time></trkpt>
        <trkpt lat="28.1348722" lon="105.7899413"><ele>1547.23</ele><time>2026-05-23T23:13:03.000Z</time></trkpt>
        <trkpt lat="28.1348507" lon="105.7900026"><ele>1547.99</ele><time>2026-05-23T23:13:09.000Z</time></trkpt>
        <trkpt lat="28.134815" lon="105.790057"><ele>1548.43</ele><time>2026-05-23T23:13:15.000Z</time></trkpt>
        <trkpt lat="28.1347716" lon="105.7900978"><ele>1548.84</ele><time>2026-05-23T23:13:21.000Z</time></trkpt>
        <trkpt lat="28.1347308" lon="105.7901355"><ele>1549.38</ele><time>2026-05-23T23:13:29.000Z</time></trkpt>
        <trkpt lat="28.1347138" lon="105.7901822"><ele>1549.44</ele><time>2026-05-23T23:13:35.000Z</time></trkpt>
        <trkpt lat="28.1347378" lon="105.7902446"><ele>1549.37</ele><time>2026-05-23T23:13:41.000Z</time></trkpt>
        <trkpt lat="28.1347522" lon="105.7903015"><ele>1548.86</ele><time>2026-05-23T23:13:45.000Z</time></trkpt>
        <trkpt lat="28.1347511" lon="105.7903556"><ele>1548.87</ele><time>2026-05-23T23:13:49.000Z</time></trkpt>
        <trkpt lat="28.1347466" lon="105.790407"><ele>1548.88</ele><time>2026-05-23T23:13:53.000Z</time></trkpt>
        <trkpt lat="28.134745" lon="105.7904683"><ele>1549.02</ele><time>2026-05-23T23:13:59.000Z</time></trkpt>
        <trkpt lat="28.1347426" lon="105.790534"><ele>1549.06</ele><time>2026-05-23T23:14:05.000Z</time></trkpt>
        <trkpt lat="28.1347426" lon="105.7906058"><ele>1549.2</ele><time>2026-05-23T23:14:11.000Z</time></trkpt>
        <trkpt lat="28.1347434" lon="105.7906714"><ele>1549.28</ele><time>2026-05-23T23:14:17.000Z</time></trkpt>
        <trkpt lat="28.1347401" lon="105.7907272"><ele>1549.28</ele><time>2026-05-23T23:14:21.000Z</time></trkpt>
        <trkpt lat="28.1347412" lon="105.7907939"><ele>1549.23</ele><time>2026-05-23T23:14:27.000Z</time></trkpt>
        <trkpt lat="28.1347274" lon="105.790863"><ele>1549.39</ele><time>2026-05-23T23:14:33.000Z</time></trkpt>
        <trkpt lat="28.1347244" lon="105.7909335"><ele>1549.59</ele><time>2026-05-23T23:14:39.000Z</time></trkpt>
        <trkpt lat="28.1347186" lon="105.7910043"><ele>1549.98</ele><time>2026-05-23T23:14:45.000Z</time></trkpt>
        <trkpt lat="28.1347137" lon="105.7910618"><ele>1549.82</ele><time>2026-05-23T23:14:51.000Z</time></trkpt>
        <trkpt lat="28.1347128" lon="105.791117"><ele>1549.58</ele><time>2026-05-23T23:15:00.000Z</time></trkpt>
        <trkpt lat="28.1347194" lon="105.7911728"><ele>1548.72</ele><time>2026-05-23T23:15:06.000Z</time></trkpt>
        <trkpt lat="28.1347176" lon="105.7912245"><ele>1548.14</ele><time>2026-05-23T23:15:10.000Z</time></trkpt>
        <trkpt lat="28.1347153" lon="105.7912793"><ele>1547.52</ele><time>2026-05-23T23:15:14.000Z</time></trkpt>
        <trkpt lat="28.1347125" lon="105.7913332"><ele>1546.95</ele><time>2026-05-23T23:15:18.000Z</time></trkpt>
        <trkpt lat="28.1347125" lon="105.7913861"><ele>1546.95</ele><time>2026-05-23T23:15:22.000Z</time></trkpt>
        <trkpt lat="28.1347105" lon="105.7914323"><ele>1547.03</ele><time>2026-05-23T23:15:28.000Z</time></trkpt>
        <trkpt lat="28.1347048" lon="105.7914923"><ele>1547.41</ele><time>2026-05-23T23:15:59.000Z</time></trkpt>
        <trkpt lat="28.1347068" lon="105.7915502"><ele>1547.69</ele><time>2026-05-23T23:16:09.000Z</time></trkpt>
        <trkpt lat="28.1347095" lon="105.7916039"><ele>1547.86</ele><time>2026-05-23T23:16:13.000Z</time></trkpt>
        <trkpt lat="28.1347084" lon="105.791665"><ele>1548.05</ele><time>2026-05-23T23:16:19.000Z</time></trkpt>
        <trkpt lat="28.1347098" lon="105.7917247"><ele>1548.28</ele><time>2026-05-23T23:16:24.000Z</time></trkpt>
        <trkpt lat="28.1347009" lon="105.7917767"><ele>1548.27</ele><time>2026-05-23T23:16:29.000Z</time></trkpt>
        <trkpt lat="28.1346949" lon="105.7918363"><ele>1547.76</ele><time>2026-05-23T23:16:49.000Z</time></trkpt>
        <trkpt lat="28.1346949" lon="105.791901"><ele>1546.89</ele><time>2026-05-23T23:16:53.000Z</time></trkpt>
        <trkpt lat="28.1346895" lon="105.79195"><ele>1545.77</ele><time>2026-05-23T23:16:59.000Z</time></trkpt>
        <trkpt lat="28.1346942" lon="105.792017"><ele>1546.6</ele><time>2026-05-23T23:17:28.000Z</time></trkpt>
        <trkpt lat="28.1346939" lon="105.7920646"><ele>1544.96</ele><time>2026-05-23T23:17:32.000Z</time></trkpt>
        <trkpt lat="28.1346984" lon="105.792119"><ele>1544.11</ele><time>2026-05-23T23:17:56.000Z</time></trkpt>
        <trkpt lat="28.1347062" lon="105.7921746"><ele>1542.47</ele><time>2026-05-23T23:18:04.000Z</time></trkpt>
        <trkpt lat="28.1347062" lon="105.7922322"><ele>1541.21</ele><time>2026-05-23T23:18:10.000Z</time></trkpt>
        <trkpt lat="28.1347063" lon="105.7922925"><ele>1540.92</ele><time>2026-05-23T23:18:16.000Z</time></trkpt>
        <trkpt lat="28.1347064" lon="105.7923633"><ele>1541.01</ele><time>2026-05-23T23:18:24.000Z</time></trkpt>
        <trkpt lat="28.1347116" lon="105.7924303"><ele>1541.35</ele><time>2026-05-23T23:18:30.000Z</time></trkpt>
        <trkpt lat="28.1347159" lon="105.792497"><ele>1541.59</ele><time>2026-05-23T23:18:36.000Z</time></trkpt>
        <trkpt lat="28.1347285" lon="105.7925658"><ele>1541.69</ele><time>2026-05-23T23:18:42.000Z</time></trkpt>
        <trkpt lat="28.1347546" lon="105.7926291"><ele>1542.32</ele><time>2026-05-23T23:18:48.000Z</time></trkpt>
        <trkpt lat="28.134789" lon="105.7926905"><ele>1542.82</ele><time>2026-05-23T23:18:55.000Z</time></trkpt>
        <trkpt lat="28.1348259" lon="105.792732"><ele>1543.47</ele><time>2026-05-23T23:18:59.000Z</time></trkpt>
        <trkpt lat="28.1348677" lon="105.7927817"><ele>1544.06</ele><time>2026-05-23T23:19:05.000Z</time></trkpt>
        <trkpt lat="28.1349024" lon="105.7928409"><ele>1544.42</ele><time>2026-05-23T23:19:11.000Z</time></trkpt>
        <trkpt lat="28.1349375" lon="105.7928987"><ele>1545.1</ele><time>2026-05-23T23:19:17.000Z</time></trkpt>
        <trkpt lat="28.1349745" lon="105.7929495"><ele>1545.42</ele><time>2026-05-23T23:19:23.000Z</time></trkpt>
        <trkpt lat="28.1350117" lon="105.7930022"><ele>1545.47</ele><time>2026-05-23T23:19:29.000Z</time></trkpt>
        <trkpt lat="28.135055" lon="105.7930487"><ele>1545.89</ele><time>2026-05-23T23:19:35.000Z</time></trkpt>
        <trkpt lat="28.1350936" lon="105.7930856"><ele>1545.72</ele><time>2026-05-23T23:19:39.000Z</time></trkpt>
        <trkpt lat="28.1351451" lon="105.7931264"><ele>1545.73</ele><time>2026-05-23T23:19:45.000Z</time></trkpt>
        <trkpt lat="28.1351598" lon="105.7931348"><ele>1547.53</ele><time>2026-05-23T23:19:47.000Z</time></trkpt>
        <trkpt lat="28.1351758" lon="105.7931783"><ele>1548.08</ele><time>2026-05-23T23:19:53.000Z</time></trkpt>
        <trkpt lat="28.1351783" lon="105.7932296"><ele>1548.39</ele><time>2026-05-23T23:19:57.000Z</time></trkpt>
        <trkpt lat="28.1351627" lon="105.7932983"><ele>1548.66</ele><time>2026-05-23T23:20:03.000Z</time></trkpt>
        <trkpt lat="28.1351107" lon="105.793341"><ele>1548.5</ele><time>2026-05-23T23:20:10.000Z</time></trkpt>
        <trkpt lat="28.1350568" lon="105.7933501"><ele>1548.25</ele><time>2026-05-23T23:20:13.000Z</time></trkpt>
        <trkpt lat="28.1349921" lon="105.7933405"><ele>1548.16</ele><time>2026-05-23T23:20:19.000Z</time></trkpt>
        <trkpt lat="28.134939" lon="105.7933261"><ele>1547.99</ele><time>2026-05-23T23:20:23.000Z</time></trkpt>
        <trkpt lat="28.1348761" lon="105.7933104"><ele>1547.95</ele><time>2026-05-23T23:20:29.000Z</time></trkpt>
        <trkpt lat="28.134825" lon="105.7932994"><ele>1548</ele><time>2026-05-23T23:20:33.000Z</time></trkpt>
        <trkpt lat="28.1347628" lon="105.7932862"><ele>1548.09</ele><time>2026-05-23T23:20:39.000Z</time></trkpt>
        <trkpt lat="28.1347137" lon="105.7932663"><ele>1547.92</ele><time>2026-05-23T23:20:43.000Z</time></trkpt>
        <trkpt lat="28.1346729" lon="105.7932394"><ele>1547.85</ele><time>2026-05-23T23:20:47.000Z</time></trkpt>
        <trkpt lat="28.1346561" lon="105.7931766"><ele>1547.64</ele><time>2026-05-23T23:20:53.000Z</time></trkpt>
        <trkpt lat="28.1346386" lon="105.793117"><ele>1548.16</ele><time>2026-05-23T23:20:57.000Z</time></trkpt>
        <trkpt lat="28.1346214" lon="105.7930602"><ele>1548.49</ele><time>2026-05-23T23:21:01.000Z</time></trkpt>
        <trkpt lat="28.1346001" lon="105.7929905"><ele>1548.94</ele><time>2026-05-23T23:21:07.000Z</time></trkpt>
        <trkpt lat="28.1345574" lon="105.7929436"><ele>1547.94</ele><time>2026-05-23T23:21:13.000Z</time></trkpt>
        <trkpt lat="28.1345101" lon="105.7929195"><ele>1546.6</ele><time>2026-05-23T23:21:17.000Z</time></trkpt>
        <trkpt lat="28.1344551" lon="105.7929071"><ele>1545.55</ele><time>2026-05-23T23:21:21.000Z</time></trkpt>
        <trkpt lat="28.1344061" lon="105.7929219"><ele>1545.56</ele><time>2026-05-23T23:21:29.000Z</time></trkpt>
        <trkpt lat="28.1343466" lon="105.7929142"><ele>1546.16</ele><time>2026-05-23T23:21:35.000Z</time></trkpt>
        <trkpt lat="28.1342962" lon="105.7929126"><ele>1545.74</ele><time>2026-05-23T23:21:39.000Z</time></trkpt>
        <trkpt lat="28.1342424" lon="105.7928827"><ele>1545.76</ele><time>2026-05-23T23:21:45.000Z</time></trkpt>
        <trkpt lat="28.1341997" lon="105.7928399"><ele>1546.06</ele><time>2026-05-23T23:21:51.000Z</time></trkpt>
        <trkpt lat="28.134165" lon="105.7927899"><ele>1546.01</ele><time>2026-05-23T23:21:57.000Z</time></trkpt>
        <trkpt lat="28.1341316" lon="105.7927331"><ele>1546.51</ele><time>2026-05-23T23:22:03.000Z</time></trkpt>
        <trkpt lat="28.1341505" lon="105.7926834"><ele>1546.93</ele><time>2026-05-23T23:22:11.000Z</time></trkpt>
        <trkpt lat="28.1340751" lon="105.7926315"><ele>1549.15</ele><time>2026-05-23T23:22:15.000Z</time></trkpt>
        <trkpt lat="28.1340478" lon="105.7925686"><ele>1548.4</ele><time>2026-05-23T23:22:21.000Z</time></trkpt>
        <trkpt lat="28.1340567" lon="105.7925106"><ele>1548.76</ele><time>2026-05-23T23:22:25.000Z</time></trkpt>
        <trkpt lat="28.134098" lon="105.7924571"><ele>1549.25</ele><time>2026-05-23T23:22:31.000Z</time></trkpt>
        <trkpt lat="28.1341427" lon="105.7924187"><ele>1549.74</ele><time>2026-05-23T23:22:35.000Z</time></trkpt>
        <trkpt lat="28.1341831" lon="105.7923845"><ele>1550.59</ele><time>2026-05-23T23:22:39.000Z</time></trkpt>
        <trkpt lat="28.1342169" lon="105.7923439"><ele>1551.1</ele><time>2026-05-23T23:22:43.000Z</time></trkpt>
        <trkpt lat="28.1342406" lon="105.792298"><ele>1551.42</ele><time>2026-05-23T23:22:47.000Z</time></trkpt>
        <trkpt lat="28.1342507" lon="105.7922307"><ele>1551.6</ele><time>2026-05-23T23:22:53.000Z</time></trkpt>
        <trkpt lat="28.1342538" lon="105.7921724"><ele>1551.68</ele><time>2026-05-23T23:22:57.000Z</time></trkpt>
        <trkpt lat="28.1342492" lon="105.7921185"><ele>1551.8</ele><time>2026-05-23T23:23:01.000Z</time></trkpt>
        <trkpt lat="28.1342267" lon="105.7920547"><ele>1552</ele><time>2026-05-23T23:23:07.000Z</time></trkpt>
        <trkpt lat="28.1341962" lon="105.7920042"><ele>1552.41</ele><time>2026-05-23T23:23:11.000Z</time></trkpt>
        <trkpt lat="28.1341804" lon="105.7919402"><ele>1552.55</ele><time>2026-05-23T23:23:17.000Z</time></trkpt>
        <trkpt lat="28.1341994" lon="105.7918937"><ele>1553.26</ele><time>2026-05-23T23:23:25.000Z</time></trkpt>
        <trkpt lat="28.1341763" lon="105.7918376"><ele>1554.93</ele><time>2026-05-23T23:23:27.000Z</time></trkpt>
        <trkpt lat="28.1341601" lon="105.7917776"><ele>1554.58</ele><time>2026-05-23T23:23:31.000Z</time></trkpt>
        <trkpt lat="28.1341409" lon="105.791723"><ele>1554.84</ele><time>2026-05-23T23:23:35.000Z</time></trkpt>
        <trkpt lat="28.1341017" lon="105.7916683"><ele>1555.16</ele><time>2026-05-23T23:23:41.000Z</time></trkpt>
        <trkpt lat="28.1340599" lon="105.7916125"><ele>1556.07</ele><time>2026-05-23T23:23:47.000Z</time></trkpt>
        <trkpt lat="28.1340776" lon="105.7915621"><ele>1555.83</ele><time>2026-05-23T23:23:55.000Z</time></trkpt>
        <trkpt lat="28.1340809" lon="105.7915124"><ele>1555.2</ele><time>2026-05-23T23:23:59.000Z</time></trkpt>
        <trkpt lat="28.1340763" lon="105.7914569"><ele>1554.08</ele><time>2026-05-23T23:24:03.000Z</time></trkpt>
        <trkpt lat="28.1340636" lon="105.7913979"><ele>1553.22</ele><time>2026-05-23T23:24:07.000Z</time></trkpt>
        <trkpt lat="28.1340477" lon="105.7913396"><ele>1552.38</ele><time>2026-05-23T23:24:11.000Z</time></trkpt>
        <trkpt lat="28.1340228" lon="105.7912852"><ele>1551.76</ele><time>2026-05-23T23:24:15.000Z</time></trkpt>
        <trkpt lat="28.1339942" lon="105.7912401"><ele>1551.72</ele><time>2026-05-23T23:24:19.000Z</time></trkpt>
        <trkpt lat="28.1339765" lon="105.7911886"><ele>1551.28</ele><time>2026-05-23T23:24:23.000Z</time></trkpt>
        <trkpt lat="28.1339679" lon="105.7911208"><ele>1550.87</ele><time>2026-05-23T23:24:28.000Z</time></trkpt>
        <trkpt lat="28.1339682" lon="105.7910599"><ele>1551.66</ele><time>2026-05-23T23:24:32.000Z</time></trkpt>
        <trkpt lat="28.1339846" lon="105.7910472"><ele>1552.06</ele><time>2026-05-23T23:24:38.000Z</time></trkpt>
        <trkpt lat="28.1339891" lon="105.7909982"><ele>1552.11</ele><time>2026-05-23T23:24:44.000Z</time></trkpt>
        <trkpt lat="28.1339837" lon="105.7909404"><ele>1551.77</ele><time>2026-05-23T23:24:48.000Z</time></trkpt>
        <trkpt lat="28.1339714" lon="105.79088"><ele>1551.16</ele><time>2026-05-23T23:24:52.000Z</time></trkpt>
        <trkpt lat="28.1339539" lon="105.7908244"><ele>1551.28</ele><time>2026-05-23T23:24:56.000Z</time></trkpt>
        <trkpt lat="28.1339334" lon="105.7907694"><ele>1551.72</ele><time>2026-05-23T23:25:00.000Z</time></trkpt>
        <trkpt lat="28.1339109" lon="105.7907155"><ele>1551.84</ele><time>2026-05-23T23:25:04.000Z</time></trkpt>
        <trkpt lat="28.1338804" lon="105.7906725"><ele>1551.65</ele><time>2026-05-23T23:25:08.000Z</time></trkpt>
        <trkpt lat="28.1338432" lon="105.7906376"><ele>1551.47</ele><time>2026-05-23T23:25:12.000Z</time></trkpt>
        <trkpt lat="28.1337988" lon="105.7906177"><ele>1550.97</ele><time>2026-05-23T23:25:16.000Z</time></trkpt>
        <trkpt lat="28.1337501" lon="105.7906009"><ele>1550.24</ele><time>2026-05-23T23:25:20.000Z</time></trkpt>
        <trkpt lat="28.133697" lon="105.7905932"><ele>1549.38</ele><time>2026-05-23T23:25:24.000Z</time></trkpt>
        <trkpt lat="28.133649" lon="105.7905675"><ele>1548.88</ele><time>2026-05-23T23:25:28.000Z</time></trkpt>
        <trkpt lat="28.1336111" lon="105.7905284"><ele>1548.2</ele><time>2026-05-23T23:25:32.000Z</time></trkpt>
        <trkpt lat="28.1335858" lon="105.7904764"><ele>1548.38</ele><time>2026-05-23T23:25:36.000Z</time></trkpt>
        <trkpt lat="28.1335806" lon="105.7904174"><ele>1549.01</ele><time>2026-05-23T23:25:40.000Z</time></trkpt>
        <trkpt lat="28.1335915" lon="105.7903538"><ele>1549.44</ele><time>2026-05-23T23:25:44.000Z</time></trkpt>
        <trkpt lat="28.1336115" lon="105.7902944"><ele>1548.8</ele><time>2026-05-23T23:25:48.000Z</time></trkpt>
        <trkpt lat="28.1336383" lon="105.7902415"><ele>1548.3</ele><time>2026-05-23T23:25:52.000Z</time></trkpt>
        <trkpt lat="28.1336647" lon="105.7901946"><ele>1547.88</ele><time>2026-05-23T23:25:56.000Z</time></trkpt>
        <trkpt lat="28.1336873" lon="105.7901394"><ele>1547.5</ele><time>2026-05-23T23:26:00.000Z</time></trkpt>
        <trkpt lat="28.1337033" lon="105.7900808"><ele>1547.12</ele><time>2026-05-23T23:26:04.000Z</time></trkpt>
        <trkpt lat="28.1337025" lon="105.7900234"><ele>1546.88</ele><time>2026-05-23T23:26:08.000Z</time></trkpt>
        <trkpt lat="28.1336728" lon="105.789977"><ele>1546.88</ele><time>2026-05-23T23:26:12.000Z</time></trkpt>
        <trkpt lat="28.1336263" lon="105.7899563"><ele>1547.14</ele><time>2026-05-23T23:26:16.000Z</time></trkpt>
        <trkpt lat="28.1335722" lon="105.7899558"><ele>1547.94</ele><time>2026-05-23T23:26:20.000Z</time></trkpt>
        <trkpt lat="28.1335189" lon="105.7899708"><ele>1548.37</ele><time>2026-05-23T23:26:24.000Z</time></trkpt>
        <trkpt lat="28.1334685" lon="105.7899934"><ele>1548.52</ele><time>2026-05-23T23:26:28.000Z</time></trkpt>
        <trkpt lat="28.1334189" lon="105.7900064"><ele>1548.71</ele><time>2026-05-23T23:26:32.000Z</time></trkpt>
        <trkpt lat="28.1333713" lon="105.7900096"><ele>1548.71</ele><time>2026-05-23T23:26:36.000Z</time></trkpt>
        <trkpt lat="28.1333226" lon="105.790002"><ele>1549.21</ele><time>2026-05-23T23:26:40.000Z</time></trkpt>
        <trkpt lat="28.1332778" lon="105.7899775"><ele>1549.33</ele><time>2026-05-23T23:26:44.000Z</time></trkpt>
        <trkpt lat="28.1332456" lon="105.7899384"><ele>1549.04</ele><time>2026-05-23T23:26:48.000Z</time></trkpt>
        <trkpt lat="28.1332173" lon="105.7899048"><ele>1548.68</ele><time>2026-05-23T23:26:58.000Z</time></trkpt>
        <trkpt lat="28.1332162" lon="105.7898561"><ele>1548.24</ele><time>2026-05-23T23:27:03.000Z</time></trkpt>
        <trkpt lat="28.1332039" lon="105.7897991"><ele>1548.28</ele><time>2026-05-23T23:27:07.000Z</time></trkpt>
        <trkpt lat="28.1331754" lon="105.7897543"><ele>1548.45</ele><time>2026-05-23T23:27:11.000Z</time></trkpt>
        <trkpt lat="28.1331352" lon="105.7897298"><ele>1547.96</ele><time>2026-05-23T23:27:15.000Z</time></trkpt>
        <trkpt lat="28.1330859" lon="105.7897223"><ele>1547.25</ele><time>2026-05-23T23:27:19.000Z</time></trkpt>
        <trkpt lat="28.1330329" lon="105.7897117"><ele>1547.14</ele><time>2026-05-23T23:27:23.000Z</time></trkpt>
        <trkpt lat="28.1329788" lon="105.7897006"><ele>1547.83</ele><time>2026-05-23T23:27:27.000Z</time></trkpt>
        <trkpt lat="28.1329245" lon="105.7896824"><ele>1548.01</ele><time>2026-05-23T23:27:31.000Z</time></trkpt>
        <trkpt lat="28.1328756" lon="105.7896611"><ele>1548.68</ele><time>2026-05-23T23:27:35.000Z</time></trkpt>
        <trkpt lat="28.1328278" lon="105.7896446"><ele>1548.85</ele><time>2026-05-23T23:27:39.000Z</time></trkpt>
        <trkpt lat="28.1327809" lon="105.7896258"><ele>1547.58</ele><time>2026-05-23T23:27:43.000Z</time></trkpt>
        <trkpt lat="28.1327264" lon="105.7896202"><ele>1547.41</ele><time>2026-05-23T23:27:49.000Z</time></trkpt>
        <trkpt lat="28.1326963" lon="105.7896548"><ele>1548.13</ele><time>2026-05-23T23:27:53.000Z</time></trkpt>
        <trkpt lat="28.1326991" lon="105.7897042"><ele>1548.52</ele><time>2026-05-23T23:27:59.000Z</time></trkpt>
        <trkpt lat="28.1326797" lon="105.7897659"><ele>1549.32</ele><time>2026-05-23T23:28:05.000Z</time></trkpt>
        <trkpt lat="28.1326487" lon="105.7898276"><ele>1550.1</ele><time>2026-05-23T23:28:09.000Z</time></trkpt>
        <trkpt lat="28.1326087" lon="105.7898842"><ele>1550.95</ele><time>2026-05-23T23:28:13.000Z</time></trkpt>
        <trkpt lat="28.1325662" lon="105.7899288"><ele>1551.5</ele><time>2026-05-23T23:28:17.000Z</time></trkpt>
        <trkpt lat="28.1325116" lon="105.7899407"><ele>1551.84</ele><time>2026-05-23T23:28:21.000Z</time></trkpt>
        <trkpt lat="28.1324561" lon="105.7899273"><ele>1552.27</ele><time>2026-05-23T23:28:25.000Z</time></trkpt>
        <trkpt lat="28.1324075" lon="105.7899022"><ele>1552.39</ele><time>2026-05-23T23:28:29.000Z</time></trkpt>
        <trkpt lat="28.1323485" lon="105.7898788"><ele>1552.8</ele><time>2026-05-23T23:28:35.000Z</time></trkpt>
        <trkpt lat="28.1322875" lon="105.7898676"><ele>1553.21</ele><time>2026-05-23T23:28:41.000Z</time></trkpt>
        <trkpt lat="28.1322254" lon="105.7898816"><ele>1553.2</ele><time>2026-05-23T23:28:47.000Z</time></trkpt>
        <trkpt lat="28.1321663" lon="105.7899204"><ele>1553.86</ele><time>2026-05-23T23:28:53.000Z</time></trkpt>
        <trkpt lat="28.1321162" lon="105.7899638"><ele>1554.67</ele><time>2026-05-23T23:28:59.000Z</time></trkpt>
        <trkpt lat="28.1320789" lon="105.790022"><ele>1554.38</ele><time>2026-05-23T23:29:05.000Z</time></trkpt>
        <trkpt lat="28.1320657" lon="105.7900793"><ele>1553.8</ele><time>2026-05-23T23:29:09.000Z</time></trkpt>
        <trkpt lat="28.1320709" lon="105.7901493"><ele>1553.77</ele><time>2026-05-23T23:29:15.000Z</time></trkpt>
        <trkpt lat="28.1320845" lon="105.7902257"><ele>1553.44</ele><time>2026-05-23T23:29:21.000Z</time></trkpt>
        <trkpt lat="28.132095" lon="105.7902866"><ele>1553.14</ele><time>2026-05-23T23:29:25.000Z</time></trkpt>
        <trkpt lat="28.1321086" lon="105.7903533"><ele>1553.1</ele><time>2026-05-23T23:29:31.000Z</time></trkpt>
        <trkpt lat="28.1321134" lon="105.7904101"><ele>1552.73</ele><time>2026-05-23T23:29:35.000Z</time></trkpt>
        <trkpt lat="28.1321195" lon="105.7904751"><ele>1552.26</ele><time>2026-05-23T23:29:41.000Z</time></trkpt>
        <trkpt lat="28.1321236" lon="105.7905439"><ele>1551.61</ele><time>2026-05-23T23:29:47.000Z</time></trkpt>
        <trkpt lat="28.1321376" lon="105.7906004"><ele>1551.07</ele><time>2026-05-23T23:29:51.000Z</time></trkpt>
        <trkpt lat="28.1321612" lon="105.7906678"><ele>1550.59</ele><time>2026-05-23T23:29:57.000Z</time></trkpt>
        <trkpt lat="28.1321829" lon="105.7907242"><ele>1551.24</ele><time>2026-05-23T23:30:01.000Z</time></trkpt>
        <trkpt lat="28.1322187" lon="105.7907847"><ele>1551.23</ele><time>2026-05-23T23:30:07.000Z</time></trkpt>
        <trkpt lat="28.1322473" lon="105.7908528"><ele>1551.77</ele><time>2026-05-23T23:30:13.000Z</time></trkpt>
        <trkpt lat="28.1322774" lon="105.7909018"><ele>1552.76</ele><time>2026-05-23T23:30:17.000Z</time></trkpt>
        <trkpt lat="28.1323097" lon="105.7909396"><ele>1552.86</ele><time>2026-05-23T23:30:21.000Z</time></trkpt>
        <trkpt lat="28.1323376" lon="105.790981"><ele>1552.72</ele><time>2026-05-23T23:30:25.000Z</time></trkpt>
        <trkpt lat="28.1323645" lon="105.791022"><ele>1552.55</ele><time>2026-05-23T23:30:29.000Z</time></trkpt>
        <trkpt lat="28.1323886" lon="105.7910677"><ele>1551.99</ele><time>2026-05-23T23:30:33.000Z</time></trkpt>
        <trkpt lat="28.132412" lon="105.7911139"><ele>1551.47</ele><time>2026-05-23T23:30:37.000Z</time></trkpt>
        <trkpt lat="28.1324494" lon="105.7911702"><ele>1550.72</ele><time>2026-05-23T23:30:43.000Z</time></trkpt>
        <trkpt lat="28.1324912" lon="105.7912044"><ele>1550.8</ele><time>2026-05-23T23:30:47.000Z</time></trkpt>
        <trkpt lat="28.1325325" lon="105.7912327"><ele>1551.49</ele><time>2026-05-23T23:30:51.000Z</time></trkpt>
        <trkpt lat="28.1325763" lon="105.7912581"><ele>1552.19</ele><time>2026-05-23T23:30:55.000Z</time></trkpt>
        <trkpt lat="28.1326146" lon="105.7913113"><ele>1552.27</ele><time>2026-05-23T23:31:01.000Z</time></trkpt>
        <trkpt lat="28.1326275" lon="105.7913768"><ele>1551.75</ele><time>2026-05-23T23:31:06.000Z</time></trkpt>
        <trkpt lat="28.1326274" lon="105.79144"><ele>1551.65</ele><time>2026-05-23T23:31:10.000Z</time></trkpt>
        <trkpt lat="28.1326219" lon="105.7914977"><ele>1551.2</ele><time>2026-05-23T23:31:14.000Z</time></trkpt>
        <trkpt lat="28.132613" lon="105.7915655"><ele>1551.07</ele><time>2026-05-23T23:31:20.000Z</time></trkpt>
        <trkpt lat="28.1326078" lon="105.7916226"><ele>1551.14</ele><time>2026-05-23T23:31:24.000Z</time></trkpt>
        <trkpt lat="28.132604" lon="105.7916746"><ele>1551.08</ele><time>2026-05-23T23:31:28.000Z</time></trkpt>
        <trkpt lat="28.1326" lon="105.7917426"><ele>1550.8</ele><time>2026-05-23T23:31:34.000Z</time></trkpt>
        <trkpt lat="28.1326013" lon="105.7918154"><ele>1550.65</ele><time>2026-05-23T23:31:40.000Z</time></trkpt>
        <trkpt lat="28.132589" lon="105.7918701"><ele>1550.48</ele><time>2026-05-23T23:31:44.000Z</time></trkpt>
        <trkpt lat="28.132565" lon="105.7919152"><ele>1550.2</ele><time>2026-05-23T23:31:48.000Z</time></trkpt>
        <trkpt lat="28.1325279" lon="105.7919496"><ele>1549.54</ele><time>2026-05-23T23:31:52.000Z</time></trkpt>
        <trkpt lat="28.1324763" lon="105.7919577"><ele>1548.82</ele><time>2026-05-23T23:31:56.000Z</time></trkpt>
        <trkpt lat="28.1324143" lon="105.7919387"><ele>1548.21</ele><time>2026-05-23T23:32:02.000Z</time></trkpt>
        <trkpt lat="28.1323685" lon="105.7919045"><ele>1547.64</ele><time>2026-05-23T23:32:06.000Z</time></trkpt>
        <trkpt lat="28.1323221" lon="105.7918508"><ele>1546.88</ele><time>2026-05-23T23:32:12.000Z</time></trkpt>
        <trkpt lat="28.1322805" lon="105.791791"><ele>1546.96</ele><time>2026-05-23T23:32:18.000Z</time></trkpt>
        <trkpt lat="28.1322515" lon="105.7917393"><ele>1546.69</ele><time>2026-05-23T23:32:22.000Z</time></trkpt>
        <trkpt lat="28.1322379" lon="105.7916884"><ele>1545.97</ele><time>2026-05-23T23:32:26.000Z</time></trkpt>
        <trkpt lat="28.132236" lon="105.7916359"><ele>1545.1</ele><time>2026-05-23T23:32:30.000Z</time></trkpt>
        <trkpt lat="28.1322363" lon="105.7915826"><ele>1544.18</ele><time>2026-05-23T23:32:34.000Z</time></trkpt>
        <trkpt lat="28.1322289" lon="105.7915297"><ele>1543.46</ele><time>2026-05-23T23:32:38.000Z</time></trkpt>
        <trkpt lat="28.1322113" lon="105.7914818"><ele>1543.39</ele><time>2026-05-23T23:32:42.000Z</time></trkpt>
        <trkpt lat="28.1321654" lon="105.79144"><ele>1542.95</ele><time>2026-05-23T23:32:48.000Z</time></trkpt>
        <trkpt lat="28.1321198" lon="105.7914046"><ele>1543.04</ele><time>2026-05-23T23:32:52.000Z</time></trkpt>
        <trkpt lat="28.1320752" lon="105.7913731"><ele>1543.56</ele><time>2026-05-23T23:32:56.000Z</time></trkpt>
        <trkpt lat="28.1320256" lon="105.7913522"><ele>1544.36</ele><time>2026-05-23T23:33:00.000Z</time></trkpt>
        <trkpt lat="28.1319716" lon="105.7913161"><ele>1545.04</ele><time>2026-05-23T23:33:06.000Z</time></trkpt>
        <trkpt lat="28.1319287" lon="105.791285"><ele>1545.52</ele><time>2026-05-23T23:33:10.000Z</time></trkpt>
        <trkpt lat="28.1318923" lon="105.7912533"><ele>1545.89</ele><time>2026-05-23T23:33:14.000Z</time></trkpt>
        <trkpt lat="28.1318441" lon="105.7912157"><ele>1546.52</ele><time>2026-05-23T23:33:20.000Z</time></trkpt>
        <trkpt lat="28.1317917" lon="105.7911751"><ele>1547.36</ele><time>2026-05-23T23:33:26.000Z</time></trkpt>
        <trkpt lat="28.1317421" lon="105.7911335"><ele>1547.03</ele><time>2026-05-23T23:33:32.000Z</time></trkpt>
        <trkpt lat="28.1317015" lon="105.7910745"><ele>1546.7</ele><time>2026-05-23T23:33:38.000Z</time></trkpt>
        <trkpt lat="28.1316782" lon="105.7910219"><ele>1547.44</ele><time>2026-05-23T23:33:42.000Z</time></trkpt>
        <trkpt lat="28.131649" lon="105.7909798"><ele>1548.63</ele><time>2026-05-23T23:33:47.000Z</time></trkpt>
        <trkpt lat="28.1316178" lon="105.790925"><ele>1548.75</ele><time>2026-05-23T23:33:52.000Z</time></trkpt>
        <trkpt lat="28.1315868" lon="105.7908596"><ele>1548.96</ele><time>2026-05-23T23:33:58.000Z</time></trkpt>
        <trkpt lat="28.1315682" lon="105.7908044"><ele>1549.22</ele><time>2026-05-23T23:34:02.000Z</time></trkpt>
        <trkpt lat="28.1315518" lon="105.7907556"><ele>1549.56</ele><time>2026-05-23T23:34:06.000Z</time></trkpt>
        <trkpt lat="28.131534" lon="105.790688"><ele>1550.04</ele><time>2026-05-23T23:34:12.000Z</time></trkpt>
        <trkpt lat="28.1315202" lon="105.790632"><ele>1550.83</ele><time>2026-05-23T23:34:16.000Z</time></trkpt>
        <trkpt lat="28.131485" lon="105.7905752"><ele>1551.01</ele><time>2026-05-23T23:34:22.000Z</time></trkpt>
        <trkpt lat="28.1314378" lon="105.7905213"><ele>1550.81</ele><time>2026-05-23T23:34:28.000Z</time></trkpt>
        <trkpt lat="28.1313788" lon="105.7904784"><ele>1551.62</ele><time>2026-05-23T23:34:34.000Z</time></trkpt>
        <trkpt lat="28.1313278" lon="105.7904604"><ele>1552.25</ele><time>2026-05-23T23:34:38.000Z</time></trkpt>
        <trkpt lat="28.1312766" lon="105.7904563"><ele>1552.55</ele><time>2026-05-23T23:34:42.000Z</time></trkpt>
        <trkpt lat="28.1312167" lon="105.7904495"><ele>1552.95</ele><time>2026-05-23T23:34:48.000Z</time></trkpt>
        <trkpt lat="28.1311694" lon="105.7904728"><ele>1553.42</ele><time>2026-05-23T23:34:52.000Z</time></trkpt>
        <trkpt lat="28.1311403" lon="105.7905186"><ele>1554.22</ele><time>2026-05-23T23:34:56.000Z</time></trkpt>
        <trkpt lat="28.1311215" lon="105.7905899"><ele>1554.65</ele><time>2026-05-23T23:35:02.000Z</time></trkpt>
        <trkpt lat="28.1310948" lon="105.7906431"><ele>1554.18</ele><time>2026-05-23T23:35:06.000Z</time></trkpt>
        <trkpt lat="28.1310561" lon="105.7906782"><ele>1554.1</ele><time>2026-05-23T23:35:10.000Z</time></trkpt>
        <trkpt lat="28.1309967" lon="105.7906799"><ele>1554.82</ele><time>2026-05-23T23:35:16.000Z</time></trkpt>
        <trkpt lat="28.130933" lon="105.7906527"><ele>1553.84</ele><time>2026-05-23T23:35:22.000Z</time></trkpt>
        <trkpt lat="28.1308876" lon="105.7906166"><ele>1553.74</ele><time>2026-05-23T23:35:26.000Z</time></trkpt>
        <trkpt lat="28.1308587" lon="105.7905715"><ele>1553.41</ele><time>2026-05-23T23:35:30.000Z</time></trkpt>
        <trkpt lat="28.1308359" lon="105.7905217"><ele>1553.33</ele><time>2026-05-23T23:35:34.000Z</time></trkpt>
        <trkpt lat="28.1308132" lon="105.7904714"><ele>1553.07</ele><time>2026-05-23T23:35:38.000Z</time></trkpt>
        <trkpt lat="28.13079" lon="105.7904218"><ele>1552.77</ele><time>2026-05-23T23:35:42.000Z</time></trkpt>
        <trkpt lat="28.1307724" lon="105.790373"><ele>1552.3</ele><time>2026-05-23T23:35:46.000Z</time></trkpt>
        <trkpt lat="28.1307718" lon="105.7903161"><ele>1552.08</ele><time>2026-05-23T23:35:52.000Z</time></trkpt>
        <trkpt lat="28.1307497" lon="105.7902725"><ele>1551.72</ele><time>2026-05-23T23:35:56.000Z</time></trkpt>
        <trkpt lat="28.1306958" lon="105.7902644"><ele>1552.3</ele><time>2026-05-23T23:36:00.000Z</time></trkpt>
        <trkpt lat="28.1306356" lon="105.790267"><ele>1552.47</ele><time>2026-05-23T23:36:04.000Z</time></trkpt>
        <trkpt lat="28.1305801" lon="105.7902755"><ele>1551.96</ele><time>2026-05-23T23:36:08.000Z</time></trkpt>
        <trkpt lat="28.1305285" lon="105.7902892"><ele>1551.52</ele><time>2026-05-23T23:36:12.000Z</time></trkpt>
        <trkpt lat="28.1304802" lon="105.7903052"><ele>1551.01</ele><time>2026-05-23T23:36:16.000Z</time></trkpt>
        <trkpt lat="28.1304334" lon="105.7903201"><ele>1550.72</ele><time>2026-05-23T23:36:20.000Z</time></trkpt>
        <trkpt lat="28.1303874" lon="105.7903343"><ele>1550.57</ele><time>2026-05-23T23:36:24.000Z</time></trkpt>
        <trkpt lat="28.1303416" lon="105.7903497"><ele>1550.6</ele><time>2026-05-23T23:36:28.000Z</time></trkpt>
        <trkpt lat="28.1302924" lon="105.7903632"><ele>1550.68</ele><time>2026-05-23T23:36:32.000Z</time></trkpt>
        <trkpt lat="28.1302475" lon="105.7903644"><ele>1550.72</ele><time>2026-05-23T23:36:36.000Z</time></trkpt>
        <trkpt lat="28.1302072" lon="105.7903299"><ele>1551.21</ele><time>2026-05-23T23:36:38.000Z</time></trkpt>
        <trkpt lat="28.1301823" lon="105.790281"><ele>1554.12</ele><time>2026-05-23T23:36:42.000Z</time></trkpt>
        <trkpt lat="28.1301911" lon="105.790216"><ele>1555.61</ele><time>2026-05-23T23:36:46.000Z</time></trkpt>
        <trkpt lat="28.1301961" lon="105.7901462"><ele>1555.18</ele><time>2026-05-23T23:36:50.000Z</time></trkpt>
        <trkpt lat="28.1302015" lon="105.7900857"><ele>1554.13</ele><time>2026-05-23T23:36:54.000Z</time></trkpt>
        <trkpt lat="28.1301904" lon="105.7900172"><ele>1553.22</ele><time>2026-05-23T23:37:00.000Z</time></trkpt>
        <trkpt lat="28.1301671" lon="105.7899498"><ele>1552.3</ele><time>2026-05-23T23:37:06.000Z</time></trkpt>
        <trkpt lat="28.1301294" lon="105.7899053"><ele>1552.62</ele><time>2026-05-23T23:37:10.000Z</time></trkpt>
        <trkpt lat="28.1300816" lon="105.7898878"><ele>1553.01</ele><time>2026-05-23T23:37:14.000Z</time></trkpt>
        <trkpt lat="28.130031" lon="105.7898905"><ele>1552.67</ele><time>2026-05-23T23:37:18.000Z</time></trkpt>
        <trkpt lat="28.1299787" lon="105.7898835"><ele>1552.33</ele><time>2026-05-23T23:37:22.000Z</time></trkpt>
        <trkpt lat="28.1299307" lon="105.7898639"><ele>1552.57</ele><time>2026-05-23T23:37:26.000Z</time></trkpt>
        <trkpt lat="28.1298838" lon="105.7898195"><ele>1552.51</ele><time>2026-05-23T23:37:32.000Z</time></trkpt>
        <trkpt lat="28.1298334" lon="105.7897688"><ele>1552.29</ele><time>2026-05-23T23:37:38.000Z</time></trkpt>
        <trkpt lat="28.1297902" lon="105.7897293"><ele>1550.95</ele><time>2026-05-23T23:37:42.000Z</time></trkpt>
        <trkpt lat="28.1297496" lon="105.7896961"><ele>1549.37</ele><time>2026-05-23T23:37:46.000Z</time></trkpt>
        <trkpt lat="28.1297199" lon="105.7896535"><ele>1548.22</ele><time>2026-05-23T23:37:50.000Z</time></trkpt>
        <trkpt lat="28.1297083" lon="105.7895972"><ele>1548.05</ele><time>2026-05-23T23:37:54.000Z</time></trkpt>
        <trkpt lat="28.1297119" lon="105.7895399"><ele>1548.83</ele><time>2026-05-23T23:37:58.000Z</time></trkpt>
        <trkpt lat="28.1297303" lon="105.7894846"><ele>1549.2</ele><time>2026-05-23T23:38:02.000Z</time></trkpt>
        <trkpt lat="28.1297471" lon="105.7894301"><ele>1549.96</ele><time>2026-05-23T23:38:06.000Z</time></trkpt>
        <trkpt lat="28.1297603" lon="105.7893773"><ele>1550.78</ele><time>2026-05-23T23:38:10.000Z</time></trkpt>
        <trkpt lat="28.1297706" lon="105.7893048"><ele>1550.84</ele><time>2026-05-23T23:38:16.000Z</time></trkpt>
        <trkpt lat="28.129768" lon="105.7892407"><ele>1550.94</ele><time>2026-05-23T23:38:20.000Z</time></trkpt>
        <trkpt lat="28.1297618" lon="105.7891851"><ele>1551.04</ele><time>2026-05-23T23:38:24.000Z</time></trkpt>
        <trkpt lat="28.129737" lon="105.7891414"><ele>1550.84</ele><time>2026-05-23T23:38:28.000Z</time></trkpt>
        <trkpt lat="28.1297012" lon="105.7891078"><ele>1551.41</ele><time>2026-05-23T23:38:32.000Z</time></trkpt>
        <trkpt lat="28.1296376" lon="105.7890631"><ele>1552.19</ele><time>2026-05-23T23:38:38.000Z</time></trkpt>
        <trkpt lat="28.1295816" lon="105.789021"><ele>1554.66</ele><time>2026-05-23T23:38:43.000Z</time></trkpt>
        <trkpt lat="28.1295217" lon="105.788982"><ele>1555.56</ele><time>2026-05-23T23:38:49.000Z</time></trkpt>
        <trkpt lat="28.1294647" lon="105.7889396"><ele>1556.37</ele><time>2026-05-23T23:38:55.000Z</time></trkpt>
        <trkpt lat="28.1294097" lon="105.7888944"><ele>1556.69</ele><time>2026-05-23T23:39:01.000Z</time></trkpt>
        <trkpt lat="28.1293678" lon="105.7888612"><ele>1556.78</ele><time>2026-05-23T23:39:05.000Z</time></trkpt>
        <trkpt lat="28.1293316" lon="105.7888314"><ele>1557.16</ele><time>2026-05-23T23:39:09.000Z</time></trkpt>
        <trkpt lat="28.1292816" lon="105.7888045"><ele>1557.05</ele><time>2026-05-23T23:39:15.000Z</time></trkpt>
        <trkpt lat="28.1292264" lon="105.7887904"><ele>1556.39</ele><time>2026-05-23T23:39:21.000Z</time></trkpt>
        <trkpt lat="28.1291778" lon="105.7887916"><ele>1555.95</ele><time>2026-05-23T23:39:25.000Z</time></trkpt>
        <trkpt lat="28.1291323" lon="105.7887891"><ele>1556.05</ele><time>2026-05-23T23:39:29.000Z</time></trkpt>
        <trkpt lat="28.1290798" lon="105.7887773"><ele>1556.58</ele><time>2026-05-23T23:39:35.000Z</time></trkpt>
        <trkpt lat="28.1290219" lon="105.788774"><ele>1557.17</ele><time>2026-05-23T23:39:39.000Z</time></trkpt>
        <trkpt lat="28.1289621" lon="105.788802"><ele>1558.05</ele><time>2026-05-23T23:39:45.000Z</time></trkpt>
        <trkpt lat="28.1289065" lon="105.7888392"><ele>1558.9</ele><time>2026-05-23T23:39:51.000Z</time></trkpt>
        <trkpt lat="28.128864" lon="105.7888631"><ele>1559.27</ele><time>2026-05-23T23:39:57.000Z</time></trkpt>
        <trkpt lat="28.1288348" lon="105.7889031"><ele>1559.96</ele><time>2026-05-23T23:40:05.000Z</time></trkpt>
        <trkpt lat="28.1288045" lon="105.7889464"><ele>1560.35</ele><time>2026-05-23T23:40:09.000Z</time></trkpt>
        <trkpt lat="28.1287787" lon="105.7890048"><ele>1560.61</ele><time>2026-05-23T23:40:15.000Z</time></trkpt>
        <trkpt lat="28.1288096" lon="105.7890572"><ele>1560.42</ele><time>2026-05-23T23:40:19.000Z</time></trkpt>
        <trkpt lat="28.1288654" lon="105.7890815"><ele>1559.93</ele><time>2026-05-23T23:40:23.000Z</time></trkpt>
        <trkpt lat="28.1289222" lon="105.7890866"><ele>1559.18</ele><time>2026-05-23T23:40:27.000Z</time></trkpt>
        <trkpt lat="28.1289766" lon="105.7890886"><ele>1558.14</ele><time>2026-05-23T23:40:31.000Z</time></trkpt>
        <trkpt lat="28.1290272" lon="105.7891008"><ele>1557.08</ele><time>2026-05-23T23:40:35.000Z</time></trkpt>
        <trkpt lat="28.1290613" lon="105.7891347"><ele>1556.41</ele><time>2026-05-23T23:40:39.000Z</time></trkpt>
        <trkpt lat="28.1290693" lon="105.7891951"><ele>1556.04</ele><time>2026-05-23T23:40:43.000Z</time></trkpt>
        <trkpt lat="28.1290465" lon="105.789248"><ele>1556.97</ele><time>2026-05-23T23:40:47.000Z</time></trkpt>
        <trkpt lat="28.1290097" lon="105.7892901"><ele>1557.55</ele><time>2026-05-23T23:40:51.000Z</time></trkpt>
        <trkpt lat="28.1289779" lon="105.7893406"><ele>1558.33</ele><time>2026-05-23T23:40:55.000Z</time></trkpt>
        <trkpt lat="28.1289625" lon="105.789393"><ele>1558.88</ele><time>2026-05-23T23:40:59.000Z</time></trkpt>
        <trkpt lat="28.1289777" lon="105.7894448"><ele>1559.16</ele><time>2026-05-23T23:41:03.000Z</time></trkpt>
        <trkpt lat="28.1290206" lon="105.7894784"><ele>1558.46</ele><time>2026-05-23T23:41:07.000Z</time></trkpt>
        <trkpt lat="28.1290809" lon="105.7894948"><ele>1557.27</ele><time>2026-05-23T23:41:11.000Z</time></trkpt>
        <trkpt lat="28.1291423" lon="105.7894956"><ele>1555.43</ele><time>2026-05-23T23:41:15.000Z</time></trkpt>
        <trkpt lat="28.1291952" lon="105.7894933"><ele>1554</ele><time>2026-05-23T23:41:18.000Z</time></trkpt>
        <trkpt lat="28.129259" lon="105.7894956"><ele>1552.33</ele><time>2026-05-23T23:41:25.000Z</time></trkpt>
        <trkpt lat="28.129309" lon="105.7895057"><ele>1551.67</ele><time>2026-05-23T23:41:29.000Z</time></trkpt>
        <trkpt lat="28.1293393" lon="105.7895568"><ele>1551.17</ele><time>2026-05-23T23:41:35.000Z</time></trkpt>
        <trkpt lat="28.1293315" lon="105.789613"><ele>1551.05</ele><time>2026-05-23T23:41:39.000Z</time></trkpt>
        <trkpt lat="28.129309" lon="105.7896677"><ele>1551.33</ele><time>2026-05-23T23:41:43.000Z</time></trkpt>
        <trkpt lat="28.1292924" lon="105.7897264"><ele>1551.44</ele><time>2026-05-23T23:41:47.000Z</time></trkpt>
        <trkpt lat="28.1292956" lon="105.7897857"><ele>1551.87</ele><time>2026-05-23T23:41:51.000Z</time></trkpt>
        <trkpt lat="28.1293219" lon="105.7898363"><ele>1551.94</ele><time>2026-05-23T23:41:55.000Z</time></trkpt>
        <trkpt lat="28.1293682" lon="105.7898721"><ele>1551.79</ele><time>2026-05-23T23:42:01.000Z</time></trkpt>
        <trkpt lat="28.1294106" lon="105.7899066"><ele>1552.83</ele><time>2026-05-23T23:42:05.000Z</time></trkpt>
        <trkpt lat="28.1294415" lon="105.7899594"><ele>1554.6</ele><time>2026-05-23T23:42:09.000Z</time></trkpt>
        <trkpt lat="28.1294355" lon="105.7900247"><ele>1555.51</ele><time>2026-05-23T23:42:15.000Z</time></trkpt>
        <trkpt lat="28.1293928" lon="105.7900773"><ele>1556.29</ele><time>2026-05-23T23:42:21.000Z</time></trkpt>
        <trkpt lat="28.1293407" lon="105.7900979"><ele>1555.72</ele><time>2026-05-23T23:42:25.000Z</time></trkpt>
        <trkpt lat="28.129288" lon="105.7901118"><ele>1555.28</ele><time>2026-05-23T23:42:29.000Z</time></trkpt>
        <trkpt lat="28.129251" lon="105.7901517"><ele>1555.01</ele><time>2026-05-23T23:42:33.000Z</time></trkpt>
        <trkpt lat="28.1292113" lon="105.7901957"><ele>1554</ele><time>2026-05-23T23:42:37.000Z</time></trkpt>
        <trkpt lat="28.1291943" lon="105.7902491"><ele>1553.52</ele><time>2026-05-23T23:42:41.000Z</time></trkpt>
        <trkpt lat="28.1291897" lon="105.7903078"><ele>1553.11</ele><time>2026-05-23T23:42:45.000Z</time></trkpt>
        <trkpt lat="28.1291897" lon="105.7903678"><ele>1553.52</ele><time>2026-05-23T23:42:49.000Z</time></trkpt>
        <trkpt lat="28.1291847" lon="105.7904216"><ele>1554.11</ele><time>2026-05-23T23:42:53.000Z</time></trkpt>
        <trkpt lat="28.1291771" lon="105.79048"><ele>1554.44</ele><time>2026-05-23T23:42:57.000Z</time></trkpt>
        <trkpt lat="28.1291775" lon="105.7905415"><ele>1555.23</ele><time>2026-05-23T23:43:01.000Z</time></trkpt>
        <trkpt lat="28.1291855" lon="105.7905994"><ele>1554.71</ele><time>2026-05-23T23:43:05.000Z</time></trkpt>
        <trkpt lat="28.1291918" lon="105.7906533"><ele>1554.08</ele><time>2026-05-23T23:43:09.000Z</time></trkpt>
        <trkpt lat="28.1291822" lon="105.7907111"><ele>1554.17</ele><time>2026-05-23T23:43:13.000Z</time></trkpt>
        <trkpt lat="28.1291757" lon="105.7907666"><ele>1555.14</ele><time>2026-05-23T23:43:17.000Z</time></trkpt>
        <trkpt lat="28.1291689" lon="105.7908211"><ele>1554.76</ele><time>2026-05-23T23:43:21.000Z</time></trkpt>
        <trkpt lat="28.1291694" lon="105.7908768"><ele>1554.27</ele><time>2026-05-23T23:43:25.000Z</time></trkpt>
        <trkpt lat="28.1291722" lon="105.7909318"><ele>1554.2</ele><time>2026-05-23T23:43:29.000Z</time></trkpt>
        <trkpt lat="28.1291787" lon="105.7909871"><ele>1553.99</ele><time>2026-05-23T23:43:33.000Z</time></trkpt>
        <trkpt lat="28.1291961" lon="105.7910402"><ele>1553.57</ele><time>2026-05-23T23:43:37.000Z</time></trkpt>
        <trkpt lat="28.1292138" lon="105.7910914"><ele>1553.36</ele><time>2026-05-23T23:43:41.000Z</time></trkpt>
        <trkpt lat="28.1292284" lon="105.7911472"><ele>1553.15</ele><time>2026-05-23T23:43:45.000Z</time></trkpt>
        <trkpt lat="28.1292457" lon="105.7912126"><ele>1553.77</ele><time>2026-05-23T23:43:51.000Z</time></trkpt>
        <trkpt lat="28.1292668" lon="105.7912723"><ele>1554.95</ele><time>2026-05-23T23:43:57.000Z</time></trkpt>
        <trkpt lat="28.1293004" lon="105.7913235"><ele>1555.59</ele><time>2026-05-23T23:44:03.000Z</time></trkpt>
        <trkpt lat="28.129336" lon="105.7913807"><ele>1556.98</ele><time>2026-05-23T23:44:09.000Z</time></trkpt>
        <trkpt lat="28.129363" lon="105.7914307"><ele>1557.5</ele><time>2026-05-23T23:44:13.000Z</time></trkpt>
        <trkpt lat="28.1293709" lon="105.791482"><ele>1557.9</ele><time>2026-05-23T23:44:17.000Z</time></trkpt>
        <trkpt lat="28.1293713" lon="105.7915519"><ele>1557.53</ele><time>2026-05-23T23:44:23.000Z</time></trkpt>
        <trkpt lat="28.1293779" lon="105.7916084"><ele>1557.28</ele><time>2026-05-23T23:44:27.000Z</time></trkpt>
        <trkpt lat="28.1293818" lon="105.7916806"><ele>1556.74</ele><time>2026-05-23T23:44:33.000Z</time></trkpt>
        <trkpt lat="28.1293957" lon="105.7917392"><ele>1556.52</ele><time>2026-05-23T23:44:37.000Z</time></trkpt>
        <trkpt lat="28.129424" lon="105.791788"><ele>1555.8</ele><time>2026-05-23T23:44:41.000Z</time></trkpt>
        <trkpt lat="28.1294715" lon="105.7918439"><ele>1555.11</ele><time>2026-05-23T23:44:48.000Z</time></trkpt>
        <trkpt lat="28.1295139" lon="105.791883"><ele>1554.19</ele><time>2026-05-23T23:44:51.000Z</time></trkpt>
        <trkpt lat="28.129549" lon="105.79192"><ele>1553.65</ele><time>2026-05-23T23:44:55.000Z</time></trkpt>
        <trkpt lat="28.1295823" lon="105.7919603"><ele>1553.37</ele><time>2026-05-23T23:44:59.000Z</time></trkpt>
        <trkpt lat="28.1296154" lon="105.7920014"><ele>1553.3</ele><time>2026-05-23T23:45:03.000Z</time></trkpt>
        <trkpt lat="28.129635" lon="105.7920154"><ele>1553.49</ele><time>2026-05-23T23:45:05.000Z</time></trkpt>
        <trkpt lat="28.1296732" lon="105.7920536"><ele>1553.88</ele><time>2026-05-23T23:45:11.000Z</time></trkpt>
        <trkpt lat="28.1297127" lon="105.7920907"><ele>1554.02</ele><time>2026-05-23T23:45:15.000Z</time></trkpt>
        <trkpt lat="28.1297491" lon="105.7921295"><ele>1553.94</ele><time>2026-05-23T23:45:19.000Z</time></trkpt>
        <trkpt lat="28.1297777" lon="105.7921733"><ele>1553.9</ele><time>2026-05-23T23:45:23.000Z</time></trkpt>
        <trkpt lat="28.1298029" lon="105.7922171"><ele>1553.68</ele><time>2026-05-23T23:45:27.000Z</time></trkpt>
        <trkpt lat="28.1298376" lon="105.7922704"><ele>1553.47</ele><time>2026-05-23T23:45:33.000Z</time></trkpt>
        <trkpt lat="28.1298696" lon="105.7923142"><ele>1553.25</ele><time>2026-05-23T23:45:37.000Z</time></trkpt>
        <trkpt lat="28.1299119" lon="105.7923648"><ele>1553.02</ele><time>2026-05-23T23:45:43.000Z</time></trkpt>
        <trkpt lat="28.1299485" lon="105.7923761"><ele>1552.86</ele><time>2026-05-23T23:45:49.000Z</time></trkpt>
        <trkpt lat="28.1299557" lon="105.792427"><ele>1552.78</ele><time>2026-05-23T23:46:09.000Z</time></trkpt>
        <trkpt lat="28.1299719" lon="105.7924545"><ele>1552.19</ele><time>2026-05-23T23:46:13.000Z</time></trkpt>
        <trkpt lat="28.1299438" lon="105.7924385"><ele>1552.19</ele><time>2026-05-23T23:46:25.000Z</time></trkpt>
        <trkpt lat="28.129989" lon="105.7924187"><ele>1552.16</ele><time>2026-05-23T23:49:35.000Z</time></trkpt>
        <trkpt lat="28.130026" lon="105.7924621"><ele>1551.89</ele><time>2026-05-23T23:49:39.000Z</time></trkpt>
        <trkpt lat="28.130062" lon="105.7925211"><ele>1552.02</ele><time>2026-05-23T23:49:45.000Z</time></trkpt>
        <trkpt lat="28.1300981" lon="105.7925621"><ele>1553.07</ele><time>2026-05-23T23:49:49.000Z</time></trkpt>
        <trkpt lat="28.1301393" lon="105.7925976"><ele>1553.86</ele><time>2026-05-23T23:49:53.000Z</time></trkpt>
        <trkpt lat="28.1301844" lon="105.7926213"><ele>1554.75</ele><time>2026-05-23T23:49:57.000Z</time></trkpt>
        <trkpt lat="28.1302126" lon="105.7926208"><ele>1554.67</ele><time>2026-05-23T23:50:05.000Z</time></trkpt>
        <trkpt lat="28.1302353" lon="105.7926594"><ele>1551.65</ele><time>2026-05-23T23:50:15.000Z</time></trkpt>
        <trkpt lat="28.1302492" lon="105.7927152"><ele>1549.59</ele><time>2026-05-23T23:50:19.000Z</time></trkpt>
        <trkpt lat="28.1302474" lon="105.7927767"><ele>1547.85</ele><time>2026-05-23T23:50:23.000Z</time></trkpt>
        <trkpt lat="28.1302303" lon="105.7928333"><ele>1547.07</ele><time>2026-05-23T23:50:27.000Z</time></trkpt>
        <trkpt lat="28.1301984" lon="105.792883"><ele>1546.97</ele><time>2026-05-23T23:50:31.000Z</time></trkpt>
        <trkpt lat="28.1301519" lon="105.7929078"><ele>1546.78</ele><time>2026-05-23T23:50:35.000Z</time></trkpt>
        <trkpt lat="28.1300994" lon="105.7929168"><ele>1546.86</ele><time>2026-05-23T23:50:39.000Z</time></trkpt>
        <trkpt lat="28.1300453" lon="105.7929023"><ele>1547.24</ele><time>2026-05-23T23:50:45.000Z</time></trkpt>
        <trkpt lat="28.1299917" lon="105.7928848"><ele>1547.74</ele><time>2026-05-23T23:50:49.000Z</time></trkpt>
        <trkpt lat="28.1299441" lon="105.792864"><ele>1549.11</ele><time>2026-05-23T23:50:53.000Z</time></trkpt>
        <trkpt lat="28.1298947" lon="105.7928331"><ele>1550.11</ele><time>2026-05-23T23:50:59.000Z</time></trkpt>
        <trkpt lat="28.1298453" lon="105.7928017"><ele>1549.58</ele><time>2026-05-23T23:51:09.000Z</time></trkpt>
        <trkpt lat="28.1297954" lon="105.7927743"><ele>1550.65</ele><time>2026-05-23T23:51:14.000Z</time></trkpt>
        <trkpt lat="28.1297476" lon="105.792745"><ele>1551.53</ele><time>2026-05-23T23:51:19.000Z</time></trkpt>
        <trkpt lat="28.1296945" lon="105.7927027"><ele>1552</ele><time>2026-05-23T23:51:24.000Z</time></trkpt>
        <trkpt lat="28.1296478" lon="105.7926779"><ele>1552.34</ele><time>2026-05-23T23:51:28.000Z</time></trkpt>
        <trkpt lat="28.1296038" lon="105.7926423"><ele>1552.7</ele><time>2026-05-23T23:51:34.000Z</time></trkpt>
        <trkpt lat="28.1295622" lon="105.7926136"><ele>1551.66</ele><time>2026-05-23T23:51:38.000Z</time></trkpt>
        <trkpt lat="28.1295098" lon="105.7925831"><ele>1551.7</ele><time>2026-05-23T23:51:42.000Z</time></trkpt>
        <trkpt lat="28.129466" lon="105.7925412"><ele>1551.33</ele><time>2026-05-23T23:51:48.000Z</time></trkpt>
        <trkpt lat="28.1294161" lon="105.7924989"><ele>1550.88</ele><time>2026-05-23T23:51:54.000Z</time></trkpt>
        <trkpt lat="28.1293623" lon="105.7924622"><ele>1551.77</ele><time>2026-05-23T23:51:58.000Z</time></trkpt>
        <trkpt lat="28.1293136" lon="105.792436"><ele>1552.35</ele><time>2026-05-23T23:52:06.000Z</time></trkpt>
        <trkpt lat="28.1292631" lon="105.7923977"><ele>1551.83</ele><time>2026-05-23T23:52:12.000Z</time></trkpt>
        <trkpt lat="28.1292343" lon="105.7923504"><ele>1551.6</ele><time>2026-05-23T23:52:16.000Z</time></trkpt>
        <trkpt lat="28.1292082" lon="105.7923032"><ele>1551.53</ele><time>2026-05-23T23:52:20.000Z</time></trkpt>
        <trkpt lat="28.1291821" lon="105.7922603"><ele>1551.84</ele><time>2026-05-23T23:52:24.000Z</time></trkpt>
        <trkpt lat="28.1291415" lon="105.7922284"><ele>1552.45</ele><time>2026-05-23T23:52:28.000Z</time></trkpt>
        <trkpt lat="28.1291014" lon="105.7921909"><ele>1552.87</ele><time>2026-05-23T23:52:32.000Z</time></trkpt>
        <trkpt lat="28.1290605" lon="105.7921588"><ele>1553.68</ele><time>2026-05-23T23:52:36.000Z</time></trkpt>
        <trkpt lat="28.1290205" lon="105.7921321"><ele>1554.31</ele><time>2026-05-23T23:52:40.000Z</time></trkpt>
        <trkpt lat="28.1289831" lon="105.7920984"><ele>1554.75</ele><time>2026-05-23T23:52:44.000Z</time></trkpt>
        <trkpt lat="28.1289506" lon="105.7920566"><ele>1555.07</ele><time>2026-05-23T23:52:48.000Z</time></trkpt>
        <trkpt lat="28.1289225" lon="105.7919954"><ele>1555.02</ele><time>2026-05-23T23:52:54.000Z</time></trkpt>
        <trkpt lat="28.1289102" lon="105.7919377"><ele>1554.83</ele><time>2026-05-23T23:52:58.000Z</time></trkpt>
        <trkpt lat="28.12888" lon="105.7918884"><ele>1554.63</ele><time>2026-05-23T23:53:02.000Z</time></trkpt>
        <trkpt lat="28.1288857" lon="105.7918827"><ele>1555.25</ele><time>2026-05-23T23:53:08.000Z</time></trkpt>
        <trkpt lat="28.1288697" lon="105.791837"><ele>1555.23</ele><time>2026-05-23T23:53:26.000Z</time></trkpt>
        <trkpt lat="28.1288336" lon="105.7917891"><ele>1555.96</ele><time>2026-05-23T23:53:30.000Z</time></trkpt>
        <trkpt lat="28.1287994" lon="105.7917379"><ele>1556.58</ele><time>2026-05-23T23:53:34.000Z</time></trkpt>
        <trkpt lat="28.1287594" lon="105.791691"><ele>1557.1</ele><time>2026-05-23T23:53:38.000Z</time></trkpt>
        <trkpt lat="28.128723" lon="105.7916454"><ele>1557.42</ele><time>2026-05-23T23:53:42.000Z</time></trkpt>
        <trkpt lat="28.1287015" lon="105.7915906"><ele>1557.63</ele><time>2026-05-23T23:53:46.000Z</time></trkpt>
        <trkpt lat="28.1286904" lon="105.7915192"><ele>1558.62</ele><time>2026-05-23T23:53:52.000Z</time></trkpt>
        <trkpt lat="28.1286659" lon="105.7914483"><ele>1559.08</ele><time>2026-05-23T23:53:58.000Z</time></trkpt>
        <trkpt lat="28.1286361" lon="105.7913984"><ele>1558.55</ele><time>2026-05-23T23:54:02.000Z</time></trkpt>
        <trkpt lat="28.1286" lon="105.7913651"><ele>1559.44</ele><time>2026-05-23T23:54:06.000Z</time></trkpt>
        <trkpt lat="28.1285467" lon="105.7913503"><ele>1559.36</ele><time>2026-05-23T23:54:12.000Z</time></trkpt>
        <trkpt lat="28.128494" lon="105.7913649"><ele>1559.21</ele><time>2026-05-23T23:54:16.000Z</time></trkpt>
        <trkpt lat="28.1284426" lon="105.79137"><ele>1557.79</ele><time>2026-05-23T23:54:20.000Z</time></trkpt>
        <trkpt lat="28.1283967" lon="105.7913583"><ele>1556.78</ele><time>2026-05-23T23:54:24.000Z</time></trkpt>
        <trkpt lat="28.128349" lon="105.7913072"><ele>1556.37</ele><time>2026-05-23T23:54:30.000Z</time></trkpt>
        <trkpt lat="28.1283139" lon="105.791243"><ele>1556.43</ele><time>2026-05-23T23:54:34.000Z</time></trkpt>
        <trkpt lat="28.1282788" lon="105.79119"><ele>1556.54</ele><time>2026-05-23T23:54:38.000Z</time></trkpt>
        <trkpt lat="28.1282375" lon="105.7911454"><ele>1556.91</ele><time>2026-05-23T23:54:42.000Z</time></trkpt>
        <trkpt lat="28.1281877" lon="105.7911302"><ele>1558.61</ele><time>2026-05-23T23:54:46.000Z</time></trkpt>
        <trkpt lat="28.1281355" lon="105.7911452"><ele>1560.23</ele><time>2026-05-23T23:54:50.000Z</time></trkpt>
        <trkpt lat="28.1280815" lon="105.7911682"><ele>1561.53</ele><time>2026-05-23T23:54:54.000Z</time></trkpt>
        <trkpt lat="28.1280326" lon="105.791202"><ele>1563.37</ele><time>2026-05-23T23:54:58.000Z</time></trkpt>
        <trkpt lat="28.1280152" lon="105.7912636"><ele>1564.29</ele><time>2026-05-23T23:55:02.000Z</time></trkpt>
        <trkpt lat="28.1280366" lon="105.7913261"><ele>1565</ele><time>2026-05-23T23:55:06.000Z</time></trkpt>
        <trkpt lat="28.1280832" lon="105.7913757"><ele>1565.22</ele><time>2026-05-23T23:55:10.000Z</time></trkpt>
        <trkpt lat="28.1281325" lon="105.791419"><ele>1565.55</ele><time>2026-05-23T23:55:14.000Z</time></trkpt>
        <trkpt lat="28.1281729" lon="105.7914641"><ele>1566.25</ele><time>2026-05-23T23:55:18.000Z</time></trkpt>
        <trkpt lat="28.1281975" lon="105.7915176"><ele>1565.65</ele><time>2026-05-23T23:55:22.000Z</time></trkpt>
        <trkpt lat="28.1281902" lon="105.7915759"><ele>1565.19</ele><time>2026-05-23T23:55:26.000Z</time></trkpt>
        <trkpt lat="28.1281601" lon="105.7916245"><ele>1565.19</ele><time>2026-05-23T23:55:30.000Z</time></trkpt>
        <trkpt lat="28.1281187" lon="105.791665"><ele>1565.2</ele><time>2026-05-23T23:55:34.000Z</time></trkpt>
        <trkpt lat="28.1280765" lon="105.7917056"><ele>1565.44</ele><time>2026-05-23T23:55:38.000Z</time></trkpt>
        <trkpt lat="28.1280449" lon="105.7917531"><ele>1565.35</ele><time>2026-05-23T23:55:42.000Z</time></trkpt>
        <trkpt lat="28.1280363" lon="105.7918112"><ele>1564.36</ele><time>2026-05-23T23:55:46.000Z</time></trkpt>
        <trkpt lat="28.1280412" lon="105.791875"><ele>1563.39</ele><time>2026-05-23T23:55:50.000Z</time></trkpt>
        <trkpt lat="28.1280435" lon="105.7919381"><ele>1563</ele><time>2026-05-23T23:55:54.000Z</time></trkpt>
        <trkpt lat="28.1280466" lon="105.7919999"><ele>1562.81</ele><time>2026-05-23T23:55:58.000Z</time></trkpt>
        <trkpt lat="28.1280589" lon="105.7920617"><ele>1562.39</ele><time>2026-05-23T23:56:02.000Z</time></trkpt>
        <trkpt lat="28.1280843" lon="105.7921224"><ele>1561.91</ele><time>2026-05-23T23:56:06.000Z</time></trkpt>
        <trkpt lat="28.1281126" lon="105.7921842"><ele>1560.91</ele><time>2026-05-23T23:56:10.000Z</time></trkpt>
        <trkpt lat="28.1281275" lon="105.7922411"><ele>1560.4</ele><time>2026-05-23T23:56:14.000Z</time></trkpt>
        <trkpt lat="28.128123" lon="105.7922928"><ele>1558.47</ele><time>2026-05-23T23:56:18.000Z</time></trkpt>
        <trkpt lat="28.128094" lon="105.7923337"><ele>1556.8</ele><time>2026-05-23T23:56:22.000Z</time></trkpt>
        <trkpt lat="28.1280539" lon="105.7923684"><ele>1556.89</ele><time>2026-05-23T23:56:26.000Z</time></trkpt>
        <trkpt lat="28.1279931" lon="105.7923929"><ele>1558.15</ele><time>2026-05-23T23:56:32.000Z</time></trkpt>
        <trkpt lat="28.1279387" lon="105.7923934"><ele>1557.53</ele><time>2026-05-23T23:56:36.000Z</time></trkpt>
        <trkpt lat="28.1278782" lon="105.792373"><ele>1557.45</ele><time>2026-05-23T23:56:42.000Z</time></trkpt>
        <trkpt lat="28.1278375" lon="105.7923329"><ele>1557.3</ele><time>2026-05-23T23:56:46.000Z</time></trkpt>
        <trkpt lat="28.1278037" lon="105.7922875"><ele>1557.13</ele><time>2026-05-23T23:56:50.000Z</time></trkpt>
        <trkpt lat="28.1277683" lon="105.7922406"><ele>1556.73</ele><time>2026-05-23T23:56:54.000Z</time></trkpt>
        <trkpt lat="28.1277301" lon="105.7921967"><ele>1556.65</ele><time>2026-05-23T23:56:58.000Z</time></trkpt>
        <trkpt lat="28.127695" lon="105.7921579"><ele>1556.9</ele><time>2026-05-23T23:57:02.000Z</time></trkpt>
        <trkpt lat="28.1276583" lon="105.7921192"><ele>1556.62</ele><time>2026-05-23T23:57:06.000Z</time></trkpt>
        <trkpt lat="28.127622" lon="105.7920802"><ele>1556.74</ele><time>2026-05-23T23:57:10.000Z</time></trkpt>
        <trkpt lat="28.1275758" lon="105.7920295"><ele>1556.67</ele><time>2026-05-23T23:57:16.000Z</time></trkpt>
        <trkpt lat="28.1275364" lon="105.791986"><ele>1556.08</ele><time>2026-05-23T23:57:20.000Z</time></trkpt>
        <trkpt lat="28.1274983" lon="105.7919465"><ele>1556.15</ele><time>2026-05-23T23:57:24.000Z</time></trkpt>
        <trkpt lat="28.1274539" lon="105.7919292"><ele>1556.03</ele><time>2026-05-23T23:57:28.000Z</time></trkpt>
        <trkpt lat="28.1274404" lon="105.7919221"><ele>1555.48</ele><time>2026-05-23T23:57:32.000Z</time></trkpt>
        <trkpt lat="28.1274343" lon="105.7918639"><ele>1555.46</ele><time>2026-05-23T23:58:02.000Z</time></trkpt>
        <trkpt lat="28.1274126" lon="105.7917919"><ele>1555.56</ele><time>2026-05-23T23:58:08.000Z</time></trkpt>
        <trkpt lat="28.1273758" lon="105.7917303"><ele>1556.26</ele><time>2026-05-23T23:58:12.000Z</time></trkpt>
        <trkpt lat="28.1273474" lon="105.7916793"><ele>1556.71</ele><time>2026-05-23T23:58:16.000Z</time></trkpt>
        <trkpt lat="28.127319" lon="105.7916154"><ele>1557.29</ele><time>2026-05-23T23:58:22.000Z</time></trkpt>
        <trkpt lat="28.1272969" lon="105.7915587"><ele>1556.91</ele><time>2026-05-23T23:58:26.000Z</time></trkpt>
        <trkpt lat="28.1272626" lon="105.7915029"><ele>1556.7</ele><time>2026-05-23T23:58:32.000Z</time></trkpt>
        <trkpt lat="28.127244" lon="105.7914476"><ele>1556.37</ele><time>2026-05-23T23:58:36.000Z</time></trkpt>
        <trkpt lat="28.1272247" lon="105.7913969"><ele>1556.34</ele><time>2026-05-23T23:58:40.000Z</time></trkpt>
        <trkpt lat="28.1272025" lon="105.7913442"><ele>1556.67</ele><time>2026-05-23T23:58:44.000Z</time></trkpt>
        <trkpt lat="28.1271734" lon="105.7912965"><ele>1557.15</ele><time>2026-05-23T23:58:48.000Z</time></trkpt>
        <trkpt lat="28.1271479" lon="105.7912485"><ele>1557.87</ele><time>2026-05-23T23:58:52.000Z</time></trkpt>
        <trkpt lat="28.1271218" lon="105.7911988"><ele>1558.41</ele><time>2026-05-23T23:58:56.000Z</time></trkpt>
        <trkpt lat="28.1270977" lon="105.7911466"><ele>1558.79</ele><time>2026-05-23T23:59:00.000Z</time></trkpt>
        <trkpt lat="28.1270724" lon="105.7910956"><ele>1558.82</ele><time>2026-05-23T23:59:04.000Z</time></trkpt>
        <trkpt lat="28.1270454" lon="105.7910452"><ele>1559</ele><time>2026-05-23T23:59:08.000Z</time></trkpt>
        <trkpt lat="28.1270205" lon="105.7909911"><ele>1558.99</ele><time>2026-05-23T23:59:12.000Z</time></trkpt>
        <trkpt lat="28.1269993" lon="105.790936"><ele>1559.4</ele><time>2026-05-23T23:59:16.000Z</time></trkpt>
        <trkpt lat="28.1269837" lon="105.7908768"><ele>1559.84</ele><time>2026-05-23T23:59:20.000Z</time></trkpt>
        <trkpt lat="28.1269692" lon="105.7908142"><ele>1560.74</ele><time>2026-05-23T23:59:24.000Z</time></trkpt>
        <trkpt lat="28.1269527" lon="105.7907539"><ele>1561.99</ele><time>2026-05-23T23:59:28.000Z</time></trkpt>
        <trkpt lat="28.1269379" lon="105.7906961"><ele>1562.02</ele><time>2026-05-23T23:59:32.000Z</time></trkpt>
        <trkpt lat="28.1269228" lon="105.7906428"><ele>1562.21</ele><time>2026-05-23T23:59:36.000Z</time></trkpt>
        <trkpt lat="28.1269113" lon="105.7905926"><ele>1562.71</ele><time>2026-05-23T23:59:40.000Z</time></trkpt>
        <trkpt lat="28.1268964" lon="105.7905372"><ele>1562.01</ele><time>2026-05-23T23:59:44.000Z</time></trkpt>
        <trkpt lat="28.1268798" lon="105.7904798"><ele>1561.54</ele><time>2026-05-23T23:59:48.000Z</time></trkpt>
        <trkpt lat="28.1268522" lon="105.7904281"><ele>1560.66</ele><time>2026-05-23T23:59:52.000Z</time></trkpt>
        <trkpt lat="28.1268292" lon="105.7903766"><ele>1559.21</ele><time>2026-05-23T23:59:56.000Z</time></trkpt>
        <trkpt lat="28.1268139" lon="105.7903208"><ele>1558.24</ele><time>2026-05-24T00:00:00.000Z</time></trkpt>
        <trkpt lat="28.1268005" lon="105.7902629"><ele>1558.56</ele><time>2026-05-24T00:00:04.000Z</time></trkpt>
        <trkpt lat="28.1267822" lon="105.7902048"><ele>1559.01</ele><time>2026-05-24T00:00:08.000Z</time></trkpt>
        <trkpt lat="28.1267622" lon="105.7901495"><ele>1560.06</ele><time>2026-05-24T00:00:12.000Z</time></trkpt>
        <trkpt lat="28.1267353" lon="105.7900994"><ele>1561.42</ele><time>2026-05-24T00:00:16.000Z</time></trkpt>
        <trkpt lat="28.1266999" lon="105.7900624"><ele>1561.22</ele><time>2026-05-24T00:00:20.000Z</time></trkpt>
        <trkpt lat="28.1266628" lon="105.7900202"><ele>1561</ele><time>2026-05-24T00:00:24.000Z</time></trkpt>
        <trkpt lat="28.1266214" lon="105.7899793"><ele>1560.35</ele><time>2026-05-24T00:00:28.000Z</time></trkpt>
        <trkpt lat="28.1265817" lon="105.7899388"><ele>1559.2</ele><time>2026-05-24T00:00:32.000Z</time></trkpt>
        <trkpt lat="28.1265491" lon="105.7898967"><ele>1558.25</ele><time>2026-05-24T00:00:36.000Z</time></trkpt>
        <trkpt lat="28.1265152" lon="105.7898528"><ele>1557.52</ele><time>2026-05-24T00:00:40.000Z</time></trkpt>
        <trkpt lat="28.1264738" lon="105.7898185"><ele>1557.18</ele><time>2026-05-24T00:00:44.000Z</time></trkpt>
        <trkpt lat="28.1264206" lon="105.7898014"><ele>1557.01</ele><time>2026-05-24T00:00:48.000Z</time></trkpt>
        <trkpt lat="28.1263581" lon="105.7898118"><ele>1557.02</ele><time>2026-05-24T00:00:52.000Z</time></trkpt>
        <trkpt lat="28.1263055" lon="105.7898441"><ele>1557.28</ele><time>2026-05-24T00:00:56.000Z</time></trkpt>
        <trkpt lat="28.1262717" lon="105.7898932"><ele>1558.28</ele><time>2026-05-24T00:01:00.000Z</time></trkpt>
        <trkpt lat="28.1262668" lon="105.7899503"><ele>1559.54</ele><time>2026-05-24T00:01:04.000Z</time></trkpt>
        <trkpt lat="28.1262761" lon="105.7900092"><ele>1559.99</ele><time>2026-05-24T00:01:08.000Z</time></trkpt>
        <trkpt lat="28.1262922" lon="105.790071"><ele>1559.81</ele><time>2026-05-24T00:01:12.000Z</time></trkpt>
        <trkpt lat="28.1263079" lon="105.7901325"><ele>1559.6</ele><time>2026-05-24T00:01:16.000Z</time></trkpt>
        <trkpt lat="28.1263194" lon="105.7901934"><ele>1559.38</ele><time>2026-05-24T00:01:20.000Z</time></trkpt>
        <trkpt lat="28.1263294" lon="105.7902517"><ele>1559.66</ele><time>2026-05-24T00:01:24.000Z</time></trkpt>
        <trkpt lat="28.1263432" lon="105.7903073"><ele>1559.58</ele><time>2026-05-24T00:01:28.000Z</time></trkpt>
        <trkpt lat="28.1263555" lon="105.7903581"><ele>1559.62</ele><time>2026-05-24T00:01:32.000Z</time></trkpt>
        <trkpt lat="28.1263675" lon="105.7904098"><ele>1559.47</ele><time>2026-05-24T00:01:36.000Z</time></trkpt>
        <trkpt lat="28.1263763" lon="105.7904645"><ele>1558.64</ele><time>2026-05-24T00:01:40.000Z</time></trkpt>
        <trkpt lat="28.1263825" lon="105.7905248"><ele>1557.69</ele><time>2026-05-24T00:01:44.000Z</time></trkpt>
        <trkpt lat="28.1263864" lon="105.7905873"><ele>1556.84</ele><time>2026-05-24T00:01:48.000Z</time></trkpt>
        <trkpt lat="28.1263719" lon="105.7906511"><ele>1556.08</ele><time>2026-05-24T00:01:52.000Z</time></trkpt>
        <trkpt lat="28.1263242" lon="105.790694"><ele>1555.2</ele><time>2026-05-24T00:01:56.000Z</time></trkpt>
        <trkpt lat="28.1262732" lon="105.7907025"><ele>1554.68</ele><time>2026-05-24T00:02:00.000Z</time></trkpt>
        <trkpt lat="28.1262152" lon="105.7906811"><ele>1554.49</ele><time>2026-05-24T00:02:12.000Z</time></trkpt>
        <trkpt lat="28.1261529" lon="105.7906583"><ele>1554.69</ele><time>2026-05-24T00:02:16.000Z</time></trkpt>
        <trkpt lat="28.1260935" lon="105.790656"><ele>1554.89</ele><time>2026-05-24T00:02:20.000Z</time></trkpt>
        <trkpt lat="28.1260443" lon="105.7906753"><ele>1555.47</ele><time>2026-05-24T00:02:24.000Z</time></trkpt>
        <trkpt lat="28.1259976" lon="105.7907012"><ele>1556.12</ele><time>2026-05-24T00:02:28.000Z</time></trkpt>
        <trkpt lat="28.1259583" lon="105.7907375"><ele>1556.33</ele><time>2026-05-24T00:02:32.000Z</time></trkpt>
        <trkpt lat="28.1259248" lon="105.7907811"><ele>1556.68</ele><time>2026-05-24T00:02:36.000Z</time></trkpt>
        <trkpt lat="28.1258962" lon="105.7908292"><ele>1557.1</ele><time>2026-05-24T00:02:40.000Z</time></trkpt>
        <trkpt lat="28.1258685" lon="105.7908769"><ele>1556.97</ele><time>2026-05-24T00:02:44.000Z</time></trkpt>
        <trkpt lat="28.1258411" lon="105.7909227"><ele>1556.67</ele><time>2026-05-24T00:02:48.000Z</time></trkpt>
        <trkpt lat="28.1257998" lon="105.790964"><ele>1555.98</ele><time>2026-05-24T00:02:52.000Z</time></trkpt>
        <trkpt lat="28.1257518" lon="105.7909896"><ele>1555.16</ele><time>2026-05-24T00:02:56.000Z</time></trkpt>
        <trkpt lat="28.1257058" lon="105.7910055"><ele>1554.42</ele><time>2026-05-24T00:03:00.000Z</time></trkpt>
        <trkpt lat="28.1256544" lon="105.7909899"><ele>1553.65</ele><time>2026-05-24T00:03:04.000Z</time></trkpt>
        <trkpt lat="28.1256139" lon="105.7909436"><ele>1552.67</ele><time>2026-05-24T00:03:08.000Z</time></trkpt>
        <trkpt lat="28.1255953" lon="105.7908749"><ele>1551.95</ele><time>2026-05-24T00:03:12.000Z</time></trkpt>
        <trkpt lat="28.1255978" lon="105.7908047"><ele>1551.42</ele><time>2026-05-24T00:03:16.000Z</time></trkpt>
        <trkpt lat="28.1255972" lon="105.790725"><ele>1550.51</ele><time>2026-05-24T00:03:22.000Z</time></trkpt>
        <trkpt lat="28.1256089" lon="105.7906612"><ele>1549.78</ele><time>2026-05-24T00:03:26.000Z</time></trkpt>
        <trkpt lat="28.1256377" lon="105.790603"><ele>1549.49</ele><time>2026-05-24T00:03:30.000Z</time></trkpt>
        <trkpt lat="28.1256617" lon="105.7905498"><ele>1550.37</ele><time>2026-05-24T00:03:34.000Z</time></trkpt>
        <trkpt lat="28.1256831" lon="105.7904979"><ele>1551.6</ele><time>2026-05-24T00:03:38.000Z</time></trkpt>
        <trkpt lat="28.1256982" lon="105.7904438"><ele>1552.97</ele><time>2026-05-24T00:03:42.000Z</time></trkpt>
        <trkpt lat="28.1257088" lon="105.7903855"><ele>1553.77</ele><time>2026-05-24T00:03:46.000Z</time></trkpt>
        <trkpt lat="28.1257199" lon="105.7903272"><ele>1554.12</ele><time>2026-05-24T00:03:50.000Z</time></trkpt>
        <trkpt lat="28.1257336" lon="105.790272"><ele>1553.44</ele><time>2026-05-24T00:03:54.000Z</time></trkpt>
        <trkpt lat="28.1257349" lon="105.7902158"><ele>1552.77</ele><time>2026-05-24T00:03:58.000Z</time></trkpt>
        <trkpt lat="28.1257161" lon="105.7901597"><ele>1552.66</ele><time>2026-05-24T00:04:02.000Z</time></trkpt>
        <trkpt lat="28.1256815" lon="105.7901104"><ele>1552.79</ele><time>2026-05-24T00:04:06.000Z</time></trkpt>
        <trkpt lat="28.1256385" lon="105.7900792"><ele>1552.34</ele><time>2026-05-24T00:04:10.000Z</time></trkpt>
        <trkpt lat="28.1255866" lon="105.7900657"><ele>1551.96</ele><time>2026-05-24T00:04:14.000Z</time></trkpt>
        <trkpt lat="28.1255373" lon="105.7900441"><ele>1552</ele><time>2026-05-24T00:04:18.000Z</time></trkpt>
        <trkpt lat="28.1254944" lon="105.7900109"><ele>1552.57</ele><time>2026-05-24T00:04:22.000Z</time></trkpt>
        <trkpt lat="28.1254524" lon="105.7899817"><ele>1552.01</ele><time>2026-05-24T00:04:26.000Z</time></trkpt>
        <trkpt lat="28.1254455" lon="105.7899766"><ele>1551.78</ele><time>2026-05-24T00:04:28.000Z</time></trkpt>
        <trkpt lat="28.1254529" lon="105.7899275"><ele>1551.57</ele><time>2026-05-24T00:04:45.000Z</time></trkpt>
        <trkpt lat="28.125468" lon="105.7898711"><ele>1550.55</ele><time>2026-05-24T00:04:49.000Z</time></trkpt>
        <trkpt lat="28.1254956" lon="105.7898145"><ele>1550.66</ele><time>2026-05-24T00:04:53.000Z</time></trkpt>
        <trkpt lat="28.1255234" lon="105.789756"><ele>1550.52</ele><time>2026-05-24T00:04:57.000Z</time></trkpt>
        <trkpt lat="28.1255504" lon="105.7896987"><ele>1551.1</ele><time>2026-05-24T00:05:01.000Z</time></trkpt>
        <trkpt lat="28.1255844" lon="105.7896449"><ele>1551.2</ele><time>2026-05-24T00:05:05.000Z</time></trkpt>
        <trkpt lat="28.1256126" lon="105.7895976"><ele>1551.99</ele><time>2026-05-24T00:05:09.000Z</time></trkpt>
        <trkpt lat="28.1256548" lon="105.789557"><ele>1550.86</ele><time>2026-05-24T00:05:13.000Z</time></trkpt>
        <trkpt lat="28.1256951" lon="105.789512"><ele>1550.77</ele><time>2026-05-24T00:05:17.000Z</time></trkpt>
        <trkpt lat="28.1257249" lon="105.7894623"><ele>1550.98</ele><time>2026-05-24T00:05:21.000Z</time></trkpt>
        <trkpt lat="28.1257282" lon="105.7894066"><ele>1551.03</ele><time>2026-05-24T00:05:25.000Z</time></trkpt>
        <trkpt lat="28.1257098" lon="105.7893491"><ele>1550.87</ele><time>2026-05-24T00:05:29.000Z</time></trkpt>
        <trkpt lat="28.125665" lon="105.7893102"><ele>1551.87</ele><time>2026-05-24T00:05:33.000Z</time></trkpt>
        <trkpt lat="28.1256128" lon="105.7892842"><ele>1552.05</ele><time>2026-05-24T00:05:37.000Z</time></trkpt>
        <trkpt lat="28.1255579" lon="105.7892624"><ele>1552.16</ele><time>2026-05-24T00:05:41.000Z</time></trkpt>
        <trkpt lat="28.125507" lon="105.7892487"><ele>1552.74</ele><time>2026-05-24T00:05:45.000Z</time></trkpt>
        <trkpt lat="28.1254554" lon="105.7892284"><ele>1552.56</ele><time>2026-05-24T00:05:49.000Z</time></trkpt>
        <trkpt lat="28.1254082" lon="105.7892021"><ele>1552.87</ele><time>2026-05-24T00:05:53.000Z</time></trkpt>
        <trkpt lat="28.1253594" lon="105.7891772"><ele>1553.4</ele><time>2026-05-24T00:05:57.000Z</time></trkpt>
        <trkpt lat="28.1253106" lon="105.7891527"><ele>1554.17</ele><time>2026-05-24T00:06:01.000Z</time></trkpt>
        <trkpt lat="28.1252612" lon="105.7891337"><ele>1554.47</ele><time>2026-05-24T00:06:05.000Z</time></trkpt>
        <trkpt lat="28.1252118" lon="105.7891173"><ele>1554.86</ele><time>2026-05-24T00:06:09.000Z</time></trkpt>
        <trkpt lat="28.1251575" lon="105.7891119"><ele>1554.07</ele><time>2026-05-24T00:06:13.000Z</time></trkpt>
        <trkpt lat="28.1251039" lon="105.789123"><ele>1553.75</ele><time>2026-05-24T00:06:17.000Z</time></trkpt>
        <trkpt lat="28.1250566" lon="105.7891538"><ele>1554.13</ele><time>2026-05-24T00:06:21.000Z</time></trkpt>
        <trkpt lat="28.1250187" lon="105.7891958"><ele>1553.73</ele><time>2026-05-24T00:06:25.000Z</time></trkpt>
        <trkpt lat="28.1249821" lon="105.7892398"><ele>1552.37</ele><time>2026-05-24T00:06:29.000Z</time></trkpt>
        <trkpt lat="28.124936" lon="105.789267"><ele>1551.95</ele><time>2026-05-24T00:06:33.000Z</time></trkpt>
        <trkpt lat="28.1248852" lon="105.7892456"><ele>1551.42</ele><time>2026-05-24T00:06:37.000Z</time></trkpt>
        <trkpt lat="28.1248455" lon="105.7891942"><ele>1551.35</ele><time>2026-05-24T00:06:41.000Z</time></trkpt>
        <trkpt lat="28.1248126" lon="105.7891348"><ele>1552.19</ele><time>2026-05-24T00:06:45.000Z</time></trkpt>
        <trkpt lat="28.1247787" lon="105.7890779"><ele>1552.75</ele><time>2026-05-24T00:06:49.000Z</time></trkpt>
        <trkpt lat="28.1247464" lon="105.7890243"><ele>1553.18</ele><time>2026-05-24T00:06:53.000Z</time></trkpt>
        <trkpt lat="28.1247133" lon="105.7889754"><ele>1553.59</ele><time>2026-05-24T00:06:57.000Z</time></trkpt>
        <trkpt lat="28.1246815" lon="105.7889264"><ele>1554.27</ele><time>2026-05-24T00:07:01.000Z</time></trkpt>
        <trkpt lat="28.1246468" lon="105.7888776"><ele>1554.58</ele><time>2026-05-24T00:07:05.000Z</time></trkpt>
        <trkpt lat="28.1246171" lon="105.7888273"><ele>1555.33</ele><time>2026-05-24T00:07:09.000Z</time></trkpt>
        <trkpt lat="28.1245867" lon="105.7887774"><ele>1554.96</ele><time>2026-05-24T00:07:13.000Z</time></trkpt>
        <trkpt lat="28.1245615" lon="105.7887258"><ele>1554.93</ele><time>2026-05-24T00:07:17.000Z</time></trkpt>
        <trkpt lat="28.1245305" lon="105.7886761"><ele>1555</ele><time>2026-05-24T00:07:21.000Z</time></trkpt>
        <trkpt lat="28.1244968" lon="105.7886207"><ele>1554.7</ele><time>2026-05-24T00:07:25.000Z</time></trkpt>
        <trkpt lat="28.1244689" lon="105.7885678"><ele>1554.33</ele><time>2026-05-24T00:07:29.000Z</time></trkpt>
        <trkpt lat="28.1244396" lon="105.7885143"><ele>1554.27</ele><time>2026-05-24T00:07:33.000Z</time></trkpt>
        <trkpt lat="28.1244105" lon="105.7884651"><ele>1554.21</ele><time>2026-05-24T00:07:37.000Z</time></trkpt>
        <trkpt lat="28.1243837" lon="105.7884159"><ele>1554</ele><time>2026-05-24T00:07:41.000Z</time></trkpt>
        <trkpt lat="28.1243497" lon="105.7883701"><ele>1553.75</ele><time>2026-05-24T00:07:45.000Z</time></trkpt>
        <trkpt lat="28.1243125" lon="105.7883259"><ele>1553.22</ele><time>2026-05-24T00:07:49.000Z</time></trkpt>
        <trkpt lat="28.1242706" lon="105.7882904"><ele>1553.57</ele><time>2026-05-24T00:07:53.000Z</time></trkpt>
        <trkpt lat="28.124211" lon="105.7882961"><ele>1554.75</ele><time>2026-05-24T00:07:59.000Z</time></trkpt>
        <trkpt lat="28.1241574" lon="105.7883103"><ele>1555.66</ele><time>2026-05-24T00:08:03.000Z</time></trkpt>
        <trkpt lat="28.1241109" lon="105.7883303"><ele>1556.02</ele><time>2026-05-24T00:08:07.000Z</time></trkpt>
        <trkpt lat="28.1240632" lon="105.7883532"><ele>1556.4</ele><time>2026-05-24T00:08:11.000Z</time></trkpt>
        <trkpt lat="28.1240133" lon="105.7883763"><ele>1556.39</ele><time>2026-05-24T00:08:15.000Z</time></trkpt>
        <trkpt lat="28.1239667" lon="105.7883987"><ele>1556.32</ele><time>2026-05-24T00:08:19.000Z</time></trkpt>
        <trkpt lat="28.1239177" lon="105.7884248"><ele>1556.3</ele><time>2026-05-24T00:08:23.000Z</time></trkpt>
        <trkpt lat="28.1238654" lon="105.7884443"><ele>1556.7</ele><time>2026-05-24T00:08:27.000Z</time></trkpt>
        <trkpt lat="28.1238103" lon="105.788458"><ele>1556.67</ele><time>2026-05-24T00:08:31.000Z</time></trkpt>
        <trkpt lat="28.1237596" lon="105.7884804"><ele>1556.67</ele><time>2026-05-24T00:08:35.000Z</time></trkpt>
        <trkpt lat="28.1237104" lon="105.7885018"><ele>1556.86</ele><time>2026-05-24T00:08:39.000Z</time></trkpt>
        <trkpt lat="28.1236714" lon="105.7885332"><ele>1557.1</ele><time>2026-05-24T00:08:43.000Z</time></trkpt>
        <trkpt lat="28.1236449" lon="105.7885814"><ele>1557.39</ele><time>2026-05-24T00:08:47.000Z</time></trkpt>
        <trkpt lat="28.1236256" lon="105.7886402"><ele>1557.1</ele><time>2026-05-24T00:08:51.000Z</time></trkpt>
        <trkpt lat="28.1236061" lon="105.7887005"><ele>1557.13</ele><time>2026-05-24T00:08:55.000Z</time></trkpt>
        <trkpt lat="28.1235917" lon="105.7887655"><ele>1556.48</ele><time>2026-05-24T00:08:59.000Z</time></trkpt>
        <trkpt lat="28.1235696" lon="105.7888225"><ele>1556.22</ele><time>2026-05-24T00:09:03.000Z</time></trkpt>
        <trkpt lat="28.123547" lon="105.7888794"><ele>1556.27</ele><time>2026-05-24T00:09:07.000Z</time></trkpt>
        <trkpt lat="28.1235147" lon="105.7889325"><ele>1556.92</ele><time>2026-05-24T00:09:11.000Z</time></trkpt>
        <trkpt lat="28.1234881" lon="105.7889915"><ele>1555.96</ele><time>2026-05-24T00:09:15.000Z</time></trkpt>
        <trkpt lat="28.1234578" lon="105.7890468"><ele>1554.96</ele><time>2026-05-24T00:09:19.000Z</time></trkpt>
        <trkpt lat="28.1234141" lon="105.7890902"><ele>1553.96</ele><time>2026-05-24T00:09:23.000Z</time></trkpt>
        <trkpt lat="28.1233644" lon="105.7891234"><ele>1553.84</ele><time>2026-05-24T00:09:27.000Z</time></trkpt>
        <trkpt lat="28.1233266" lon="105.7891368"><ele>1553.2</ele><time>2026-05-24T00:09:33.000Z</time></trkpt>
        <trkpt lat="28.1232996" lon="105.7891032"><ele>1552.36</ele><time>2026-05-24T00:09:39.000Z</time></trkpt>
        <trkpt lat="28.1232662" lon="105.7890525"><ele>1551.16</ele><time>2026-05-24T00:09:43.000Z</time></trkpt>
        <trkpt lat="28.1232352" lon="105.7889876"><ele>1550.17</ele><time>2026-05-24T00:09:47.000Z</time></trkpt>
        <trkpt lat="28.1232133" lon="105.7889224"><ele>1549.33</ele><time>2026-05-24T00:09:51.000Z</time></trkpt>
        <trkpt lat="28.1231963" lon="105.7888638"><ele>1549.22</ele><time>2026-05-24T00:09:55.000Z</time></trkpt>
        <trkpt lat="28.1231864" lon="105.7888042"><ele>1549.03</ele><time>2026-05-24T00:09:59.000Z</time></trkpt>
        <trkpt lat="28.1231775" lon="105.7887468"><ele>1549.4</ele><time>2026-05-24T00:10:03.000Z</time></trkpt>
        <trkpt lat="28.1231779" lon="105.7886876"><ele>1549.49</ele><time>2026-05-24T00:10:07.000Z</time></trkpt>
        <trkpt lat="28.1232098" lon="105.7886534"><ele>1549.17</ele><time>2026-05-24T00:10:13.000Z</time></trkpt>
        <trkpt lat="28.123238" lon="105.7885969"><ele>1549.85</ele><time>2026-05-24T00:10:19.000Z</time></trkpt>
        <trkpt lat="28.1232463" lon="105.7885356"><ele>1550.24</ele><time>2026-05-24T00:10:23.000Z</time></trkpt>
        <trkpt lat="28.123261" lon="105.7884837"><ele>1550.21</ele><time>2026-05-24T00:10:27.000Z</time></trkpt>
        <trkpt lat="28.1232824" lon="105.7884303"><ele>1550.58</ele><time>2026-05-24T00:10:31.000Z</time></trkpt>
        <trkpt lat="28.1232873" lon="105.7883772"><ele>1551.31</ele><time>2026-05-24T00:10:34.000Z</time></trkpt>
        <trkpt lat="28.1232938" lon="105.7883191"><ele>1552.83</ele><time>2026-05-24T00:10:38.000Z</time></trkpt>
        <trkpt lat="28.1232964" lon="105.788264"><ele>1554.37</ele><time>2026-05-24T00:10:42.000Z</time></trkpt>
        <trkpt lat="28.123297" lon="105.7882056"><ele>1554.89</ele><time>2026-05-24T00:10:46.000Z</time></trkpt>
        <trkpt lat="28.1233118" lon="105.7881433"><ele>1555.16</ele><time>2026-05-24T00:10:50.000Z</time></trkpt>
        <trkpt lat="28.1233405" lon="105.788085"><ele>1555.11</ele><time>2026-05-24T00:10:54.000Z</time></trkpt>
        <trkpt lat="28.123375" lon="105.7880348"><ele>1554.21</ele><time>2026-05-24T00:10:58.000Z</time></trkpt>
        <trkpt lat="28.123406" lon="105.7879884"><ele>1552.83</ele><time>2026-05-24T00:11:02.000Z</time></trkpt>
        <trkpt lat="28.1234522" lon="105.7879639"><ele>1551.46</ele><time>2026-05-24T00:11:06.000Z</time></trkpt>
        <trkpt lat="28.1235124" lon="105.7879512"><ele>1550.56</ele><time>2026-05-24T00:11:10.000Z</time></trkpt>
        <trkpt lat="28.1235724" lon="105.7879401"><ele>1550.38</ele><time>2026-05-24T00:11:14.000Z</time></trkpt>
        <trkpt lat="28.1236287" lon="105.7879172"><ele>1549.76</ele><time>2026-05-24T00:11:18.000Z</time></trkpt>
        <trkpt lat="28.1236812" lon="105.787893"><ele>1549.31</ele><time>2026-05-24T00:11:22.000Z</time></trkpt>
        <trkpt lat="28.1237285" lon="105.7878599"><ele>1549.32</ele><time>2026-05-24T00:11:26.000Z</time></trkpt>
        <trkpt lat="28.1237717" lon="105.7878171"><ele>1549.17</ele><time>2026-05-24T00:11:30.000Z</time></trkpt>
        <trkpt lat="28.123809" lon="105.787782"><ele>1548.77</ele><time>2026-05-24T00:11:34.000Z</time></trkpt>
        <trkpt lat="28.1238316" lon="105.7877285"><ele>1548.79</ele><time>2026-05-24T00:11:38.000Z</time></trkpt>
        <trkpt lat="28.1238355" lon="105.7876669"><ele>1548.33</ele><time>2026-05-24T00:11:42.000Z</time></trkpt>
        <trkpt lat="28.1238104" lon="105.7876068"><ele>1548.55</ele><time>2026-05-24T00:11:46.000Z</time></trkpt>
        <trkpt lat="28.1237705" lon="105.7875628"><ele>1548.61</ele><time>2026-05-24T00:11:50.000Z</time></trkpt>
        <trkpt lat="28.123723" lon="105.7875339"><ele>1548.56</ele><time>2026-05-24T00:11:54.000Z</time></trkpt>
        <trkpt lat="28.1236679" lon="105.7875171"><ele>1548.33</ele><time>2026-05-24T00:11:58.000Z</time></trkpt>
        <trkpt lat="28.1236105" lon="105.7875035"><ele>1547.84</ele><time>2026-05-24T00:12:02.000Z</time></trkpt>
        <trkpt lat="28.123556" lon="105.7874914"><ele>1547.2</ele><time>2026-05-24T00:12:06.000Z</time></trkpt>
        <trkpt lat="28.1235093" lon="105.7874682"><ele>1546.39</ele><time>2026-05-24T00:12:10.000Z</time></trkpt>
        <trkpt lat="28.1234621" lon="105.7874421"><ele>1546.43</ele><time>2026-05-24T00:12:14.000Z</time></trkpt>
        <trkpt lat="28.1234149" lon="105.7874265"><ele>1546.64</ele><time>2026-05-24T00:12:18.000Z</time></trkpt>
        <trkpt lat="28.1233654" lon="105.7874063"><ele>1547.25</ele><time>2026-05-24T00:12:22.000Z</time></trkpt>
        <trkpt lat="28.1233155" lon="105.7873886"><ele>1548.22</ele><time>2026-05-24T00:12:26.000Z</time></trkpt>
        <trkpt lat="28.1232673" lon="105.7873659"><ele>1548.92</ele><time>2026-05-24T00:12:30.000Z</time></trkpt>
        <trkpt lat="28.1232086" lon="105.7873616"><ele>1549.6</ele><time>2026-05-24T00:12:36.000Z</time></trkpt>
        <trkpt lat="28.1231545" lon="105.7873791"><ele>1550.6</ele><time>2026-05-24T00:12:40.000Z</time></trkpt>
        <trkpt lat="28.1230987" lon="105.7874041"><ele>1551.68</ele><time>2026-05-24T00:12:44.000Z</time></trkpt>
        <trkpt lat="28.1230418" lon="105.7874233"><ele>1551.44</ele><time>2026-05-24T00:12:48.000Z</time></trkpt>
        <trkpt lat="28.1229849" lon="105.7874345"><ele>1551.53</ele><time>2026-05-24T00:12:52.000Z</time></trkpt>
        <trkpt lat="28.1229333" lon="105.7874538"><ele>1552.03</ele><time>2026-05-24T00:12:56.000Z</time></trkpt>
        <trkpt lat="28.1228963" lon="105.7874992"><ele>1551.56</ele><time>2026-05-24T00:13:00.000Z</time></trkpt>
        <trkpt lat="28.1228741" lon="105.7875486"><ele>1552.32</ele><time>2026-05-24T00:13:06.000Z</time></trkpt>
        <trkpt lat="28.1228583" lon="105.7876068"><ele>1553.12</ele><time>2026-05-24T00:13:10.000Z</time></trkpt>
        <trkpt lat="28.1228356" lon="105.787667"><ele>1553.38</ele><time>2026-05-24T00:13:14.000Z</time></trkpt>
        <trkpt lat="28.1228006" lon="105.7877213"><ele>1553.09</ele><time>2026-05-24T00:13:18.000Z</time></trkpt>
        <trkpt lat="28.1227492" lon="105.7877502"><ele>1552.83</ele><time>2026-05-24T00:13:22.000Z</time></trkpt>
        <trkpt lat="28.1226919" lon="105.7877281"><ele>1552.28</ele><time>2026-05-24T00:13:26.000Z</time></trkpt>
        <trkpt lat="28.1226362" lon="105.7876826"><ele>1551.87</ele><time>2026-05-24T00:13:30.000Z</time></trkpt>
        <trkpt lat="28.1225776" lon="105.7876571"><ele>1551.69</ele><time>2026-05-24T00:13:34.000Z</time></trkpt>
        <trkpt lat="28.1225178" lon="105.7876653"><ele>1551.37</ele><time>2026-05-24T00:13:38.000Z</time></trkpt>
        <trkpt lat="28.1224627" lon="105.7876892"><ele>1551.53</ele><time>2026-05-24T00:13:42.000Z</time></trkpt>
        <trkpt lat="28.1224173" lon="105.7877322"><ele>1551.27</ele><time>2026-05-24T00:13:46.000Z</time></trkpt>
        <trkpt lat="28.1223785" lon="105.7877763"><ele>1551.39</ele><time>2026-05-24T00:13:50.000Z</time></trkpt>
        <trkpt lat="28.1223379" lon="105.7878226"><ele>1551.06</ele><time>2026-05-24T00:13:54.000Z</time></trkpt>
        <trkpt lat="28.1223" lon="105.7878617"><ele>1550.37</ele><time>2026-05-24T00:13:58.000Z</time></trkpt>
        <trkpt lat="28.1222623" lon="105.7878978"><ele>1549.77</ele><time>2026-05-24T00:14:02.000Z</time></trkpt>
        <trkpt lat="28.1222174" lon="105.787929"><ele>1548.21</ele><time>2026-05-24T00:14:06.000Z</time></trkpt>
        <trkpt lat="28.1221692" lon="105.7879569"><ele>1547.71</ele><time>2026-05-24T00:14:10.000Z</time></trkpt>
        <trkpt lat="28.1221168" lon="105.7879754"><ele>1547.3</ele><time>2026-05-24T00:14:14.000Z</time></trkpt>
        <trkpt lat="28.1220604" lon="105.7879705"><ele>1546.74</ele><time>2026-05-24T00:14:18.000Z</time></trkpt>
        <trkpt lat="28.12201" lon="105.7879461"><ele>1546.2</ele><time>2026-05-24T00:14:22.000Z</time></trkpt>
        <trkpt lat="28.121967" lon="105.7879"><ele>1545.63</ele><time>2026-05-24T00:14:26.000Z</time></trkpt>
        <trkpt lat="28.1219323" lon="105.7878498"><ele>1545.87</ele><time>2026-05-24T00:14:30.000Z</time></trkpt>
        <trkpt lat="28.1219057" lon="105.787791"><ele>1546.96</ele><time>2026-05-24T00:14:34.000Z</time></trkpt>
        <trkpt lat="28.1218968" lon="105.7877265"><ele>1547.77</ele><time>2026-05-24T00:14:38.000Z</time></trkpt>
        <trkpt lat="28.1218969" lon="105.7876626"><ele>1548.14</ele><time>2026-05-24T00:14:42.000Z</time></trkpt>
        <trkpt lat="28.1219038" lon="105.7876046"><ele>1548.25</ele><time>2026-05-24T00:14:46.000Z</time></trkpt>
        <trkpt lat="28.1219227" lon="105.7875507"><ele>1548.25</ele><time>2026-05-24T00:14:50.000Z</time></trkpt>
        <trkpt lat="28.1219403" lon="105.7874985"><ele>1549.17</ele><time>2026-05-24T00:14:56.000Z</time></trkpt>
        <trkpt lat="28.1219792" lon="105.7874751"><ele>1549.41</ele><time>2026-05-24T00:15:07.000Z</time></trkpt>
        <trkpt lat="28.1220188" lon="105.787434"><ele>1549.55</ele><time>2026-05-24T00:15:11.000Z</time></trkpt>
        <trkpt lat="28.1220519" lon="105.7873878"><ele>1549.51</ele><time>2026-05-24T00:15:15.000Z</time></trkpt>
        <trkpt lat="28.1220858" lon="105.787345"><ele>1549.47</ele><time>2026-05-24T00:15:19.000Z</time></trkpt>
        <trkpt lat="28.1221268" lon="105.7873071"><ele>1549.46</ele><time>2026-05-24T00:15:23.000Z</time></trkpt>
        <trkpt lat="28.1221632" lon="105.7872625"><ele>1549.92</ele><time>2026-05-24T00:15:27.000Z</time></trkpt>
        <trkpt lat="28.1221939" lon="105.787211"><ele>1549.34</ele><time>2026-05-24T00:15:31.000Z</time></trkpt>
        <trkpt lat="28.1222238" lon="105.7871614"><ele>1549</ele><time>2026-05-24T00:15:35.000Z</time></trkpt>
        <trkpt lat="28.1222599" lon="105.7871138"><ele>1549.42</ele><time>2026-05-24T00:15:39.000Z</time></trkpt>
        <trkpt lat="28.1222911" lon="105.7870682"><ele>1550.31</ele><time>2026-05-24T00:15:43.000Z</time></trkpt>
        <trkpt lat="28.1223161" lon="105.787023"><ele>1551.27</ele><time>2026-05-24T00:15:47.000Z</time></trkpt>
        <trkpt lat="28.1223377" lon="105.7869669"><ele>1552.38</ele><time>2026-05-24T00:15:51.000Z</time></trkpt>
        <trkpt lat="28.1223372" lon="105.7868995"><ele>1552.34</ele><time>2026-05-24T00:15:55.000Z</time></trkpt>
        <trkpt lat="28.1223212" lon="105.7868361"><ele>1551.45</ele><time>2026-05-24T00:15:59.000Z</time></trkpt>
        <trkpt lat="28.1222791" lon="105.7868008"><ele>1551.21</ele><time>2026-05-24T00:16:03.000Z</time></trkpt>
        <trkpt lat="28.1222272" lon="105.7867764"><ele>1550.3</ele><time>2026-05-24T00:16:07.000Z</time></trkpt>
        <trkpt lat="28.1221719" lon="105.7867502"><ele>1549.86</ele><time>2026-05-24T00:16:11.000Z</time></trkpt>
        <trkpt lat="28.1221178" lon="105.7867292"><ele>1549.52</ele><time>2026-05-24T00:16:15.000Z</time></trkpt>
        <trkpt lat="28.1220666" lon="105.7867096"><ele>1549.94</ele><time>2026-05-24T00:16:19.000Z</time></trkpt>
        <trkpt lat="28.1220198" lon="105.7866849"><ele>1550.05</ele><time>2026-05-24T00:16:23.000Z</time></trkpt>
        <trkpt lat="28.1219711" lon="105.7866604"><ele>1550.26</ele><time>2026-05-24T00:16:27.000Z</time></trkpt>
        <trkpt lat="28.121921" lon="105.7866449"><ele>1551.03</ele><time>2026-05-24T00:16:31.000Z</time></trkpt>
        <trkpt lat="28.1218676" lon="105.7866293"><ele>1551.62</ele><time>2026-05-24T00:16:35.000Z</time></trkpt>
        <trkpt lat="28.1218169" lon="105.786607"><ele>1551.83</ele><time>2026-05-24T00:16:39.000Z</time></trkpt>
        <trkpt lat="28.1217651" lon="105.7865905"><ele>1551.85</ele><time>2026-05-24T00:16:43.000Z</time></trkpt>
        <trkpt lat="28.1217096" lon="105.7865973"><ele>1552</ele><time>2026-05-24T00:16:47.000Z</time></trkpt>
        <trkpt lat="28.1216606" lon="105.7866223"><ele>1551.67</ele><time>2026-05-24T00:16:51.000Z</time></trkpt>
        <trkpt lat="28.1216097" lon="105.7866527"><ele>1550.8</ele><time>2026-05-24T00:16:59.000Z</time></trkpt>
        <trkpt lat="28.1215623" lon="105.7866987"><ele>1550.64</ele><time>2026-05-24T00:17:05.000Z</time></trkpt>
        <trkpt lat="28.1215204" lon="105.7867354"><ele>1550.36</ele><time>2026-05-24T00:17:09.000Z</time></trkpt>
        <trkpt lat="28.1214742" lon="105.7867476"><ele>1549.57</ele><time>2026-05-24T00:17:13.000Z</time></trkpt>
        <trkpt lat="28.1214264" lon="105.7867368"><ele>1549.54</ele><time>2026-05-24T00:17:17.000Z</time></trkpt>
        <trkpt lat="28.1213791" lon="105.7867131"><ele>1549.76</ele><time>2026-05-24T00:17:21.000Z</time></trkpt>
        <trkpt lat="28.1213293" lon="105.786682"><ele>1550.07</ele><time>2026-05-24T00:17:25.000Z</time></trkpt>
        <trkpt lat="28.1212785" lon="105.7866461"><ele>1550.44</ele><time>2026-05-24T00:17:29.000Z</time></trkpt>
        <trkpt lat="28.121224" lon="105.7866232"><ele>1551.1</ele><time>2026-05-24T00:17:33.000Z</time></trkpt>
        <trkpt lat="28.1211689" lon="105.7866151"><ele>1551.91</ele><time>2026-05-24T00:17:37.000Z</time></trkpt>
        <trkpt lat="28.1211165" lon="105.7866025"><ele>1552.81</ele><time>2026-05-24T00:17:41.000Z</time></trkpt>
        <trkpt lat="28.1210708" lon="105.7865801"><ele>1553.63</ele><time>2026-05-24T00:17:45.000Z</time></trkpt>
        <trkpt lat="28.1210338" lon="105.7865408"><ele>1554.22</ele><time>2026-05-24T00:17:49.000Z</time></trkpt>
        <trkpt lat="28.1210418" lon="105.7864766"><ele>1554.26</ele><time>2026-05-24T00:17:53.000Z</time></trkpt>
        <trkpt lat="28.1210765" lon="105.7864142"><ele>1554.42</ele><time>2026-05-24T00:17:57.000Z</time></trkpt>
        <trkpt lat="28.1211146" lon="105.7863543"><ele>1555.01</ele><time>2026-05-24T00:18:01.000Z</time></trkpt>
        <trkpt lat="28.1211525" lon="105.7863033"><ele>1555.7</ele><time>2026-05-24T00:18:05.000Z</time></trkpt>
        <trkpt lat="28.1211807" lon="105.7862364"><ele>1555.92</ele><time>2026-05-24T00:18:11.000Z</time></trkpt>
        <trkpt lat="28.121199" lon="105.7861717"><ele>1554.71</ele><time>2026-05-24T00:18:15.000Z</time></trkpt>
        <trkpt lat="28.1211938" lon="105.7861082"><ele>1553.44</ele><time>2026-05-24T00:18:19.000Z</time></trkpt>
        <trkpt lat="28.121164" lon="105.7860524"><ele>1554.53</ele><time>2026-05-24T00:18:23.000Z</time></trkpt>
        <trkpt lat="28.1211208" lon="105.7860056"><ele>1555.49</ele><time>2026-05-24T00:18:27.000Z</time></trkpt>
        <trkpt lat="28.1210799" lon="105.7859632"><ele>1555.55</ele><time>2026-05-24T00:18:31.000Z</time></trkpt>
        <trkpt lat="28.1210356" lon="105.785925"><ele>1555.81</ele><time>2026-05-24T00:18:35.000Z</time></trkpt>
        <trkpt lat="28.1209935" lon="105.7858883"><ele>1555.26</ele><time>2026-05-24T00:18:39.000Z</time></trkpt>
        <trkpt lat="28.1209579" lon="105.7858436"><ele>1555.77</ele><time>2026-05-24T00:18:43.000Z</time></trkpt>
        <trkpt lat="28.1209136" lon="105.7858067"><ele>1555.97</ele><time>2026-05-24T00:18:47.000Z</time></trkpt>
        <trkpt lat="28.1208702" lon="105.7857718"><ele>1556.29</ele><time>2026-05-24T00:18:51.000Z</time></trkpt>
        <trkpt lat="28.1208281" lon="105.7857323"><ele>1556.07</ele><time>2026-05-24T00:18:55.000Z</time></trkpt>
        <trkpt lat="28.1207859" lon="105.7856933"><ele>1556.23</ele><time>2026-05-24T00:18:59.000Z</time></trkpt>
        <trkpt lat="28.1207492" lon="105.7856488"><ele>1557.27</ele><time>2026-05-24T00:19:03.000Z</time></trkpt>
        <trkpt lat="28.1207086" lon="105.7856065"><ele>1557.86</ele><time>2026-05-24T00:19:07.000Z</time></trkpt>
        <trkpt lat="28.1206724" lon="105.785564"><ele>1557.43</ele><time>2026-05-24T00:19:11.000Z</time></trkpt>
        <trkpt lat="28.1206336" lon="105.7855228"><ele>1557.35</ele><time>2026-05-24T00:19:15.000Z</time></trkpt>
        <trkpt lat="28.1205992" lon="105.7854792"><ele>1556.61</ele><time>2026-05-24T00:19:19.000Z</time></trkpt>
        <trkpt lat="28.120558" lon="105.7854478"><ele>1556.35</ele><time>2026-05-24T00:19:23.000Z</time></trkpt>
        <trkpt lat="28.1205121" lon="105.7854426"><ele>1556.26</ele><time>2026-05-24T00:19:27.000Z</time></trkpt>
        <trkpt lat="28.1204634" lon="105.7854512"><ele>1555.31</ele><time>2026-05-24T00:19:31.000Z</time></trkpt>
        <trkpt lat="28.1204132" lon="105.7854573"><ele>1554.49</ele><time>2026-05-24T00:19:35.000Z</time></trkpt>
        <trkpt lat="28.1203665" lon="105.7854246"><ele>1553.8</ele><time>2026-05-24T00:19:39.000Z</time></trkpt>
        <trkpt lat="28.1203293" lon="105.7853625"><ele>1553.29</ele><time>2026-05-24T00:19:44.000Z</time></trkpt>
        <trkpt lat="28.1203093" lon="105.785284"><ele>1553.82</ele><time>2026-05-24T00:19:48.000Z</time></trkpt>
        <trkpt lat="28.1202969" lon="105.7852151"><ele>1554.92</ele><time>2026-05-24T00:19:52.000Z</time></trkpt>
        <trkpt lat="28.1202963" lon="105.785155"><ele>1555.77</ele><time>2026-05-24T00:19:58.000Z</time></trkpt>
        <trkpt lat="28.1202718" lon="105.785117"><ele>1556.57</ele><time>2026-05-24T00:20:02.000Z</time></trkpt>
        <trkpt lat="28.1202708" lon="105.7851567"><ele>1557.64</ele><time>2026-05-24T00:20:10.000Z</time></trkpt>
        <trkpt lat="28.1202391" lon="105.7851834"><ele>1557.23</ele><time>2026-05-24T00:20:14.000Z</time></trkpt>
        <trkpt lat="28.1202087" lon="105.7851606"><ele>1556.89</ele><time>2026-05-24T00:20:54.000Z</time></trkpt>
        <trkpt lat="28.1201731" lon="105.7851056"><ele>1557.07</ele><time>2026-05-24T00:21:00.000Z</time></trkpt>
        <trkpt lat="28.1201281" lon="105.7850686"><ele>1557.19</ele><time>2026-05-24T00:21:04.000Z</time></trkpt>
        <trkpt lat="28.1200797" lon="105.7850374"><ele>1556.64</ele><time>2026-05-24T00:21:08.000Z</time></trkpt>
        <trkpt lat="28.1200315" lon="105.785017"><ele>1555.5</ele><time>2026-05-24T00:21:12.000Z</time></trkpt>
        <trkpt lat="28.1199857" lon="105.7849955"><ele>1554.65</ele><time>2026-05-24T00:21:16.000Z</time></trkpt>
        <trkpt lat="28.119938" lon="105.7849792"><ele>1553.72</ele><time>2026-05-24T00:21:20.000Z</time></trkpt>
        <trkpt lat="28.1198878" lon="105.78497"><ele>1552.85</ele><time>2026-05-24T00:21:24.000Z</time></trkpt>
        <trkpt lat="28.1198405" lon="105.7849835"><ele>1552.26</ele><time>2026-05-24T00:21:28.000Z</time></trkpt>
        <trkpt lat="28.1198014" lon="105.7850292"><ele>1551.75</ele><time>2026-05-24T00:21:34.000Z</time></trkpt>
        <trkpt lat="28.1197844" lon="105.7851053"><ele>1551.06</ele><time>2026-05-24T00:21:40.000Z</time></trkpt>
        <trkpt lat="28.1197768" lon="105.7851699"><ele>1550.39</ele><time>2026-05-24T00:21:44.000Z</time></trkpt>
        <trkpt lat="28.1197639" lon="105.7852293"><ele>1549.62</ele><time>2026-05-24T00:21:48.000Z</time></trkpt>
        <trkpt lat="28.1197445" lon="105.7852853"><ele>1549.04</ele><time>2026-05-24T00:21:52.000Z</time></trkpt>
        <trkpt lat="28.1197038" lon="105.785323"><ele>1549.03</ele><time>2026-05-24T00:21:56.000Z</time></trkpt>
        <trkpt lat="28.1196531" lon="105.7853219"><ele>1549.78</ele><time>2026-05-24T00:22:00.000Z</time></trkpt>
        <trkpt lat="28.1196051" lon="105.7852816"><ele>1550.28</ele><time>2026-05-24T00:22:04.000Z</time></trkpt>
        <trkpt lat="28.1195647" lon="105.7852303"><ele>1550.65</ele><time>2026-05-24T00:22:08.000Z</time></trkpt>
        <trkpt lat="28.1195314" lon="105.7851709"><ele>1550.37</ele><time>2026-05-24T00:22:12.000Z</time></trkpt>
        <trkpt lat="28.1195056" lon="105.7851109"><ele>1549.9</ele><time>2026-05-24T00:22:16.000Z</time></trkpt>
        <trkpt lat="28.1194812" lon="105.7850517"><ele>1550</ele><time>2026-05-24T00:22:20.000Z</time></trkpt>
        <trkpt lat="28.1194647" lon="105.7849916"><ele>1550.1</ele><time>2026-05-24T00:22:24.000Z</time></trkpt>
        <trkpt lat="28.1194577" lon="105.7849305"><ele>1550.2</ele><time>2026-05-24T00:22:28.000Z</time></trkpt>
        <trkpt lat="28.1194524" lon="105.7848712"><ele>1550.01</ele><time>2026-05-24T00:22:32.000Z</time></trkpt>
        <trkpt lat="28.119449" lon="105.7848136"><ele>1549.63</ele><time>2026-05-24T00:22:36.000Z</time></trkpt>
        <trkpt lat="28.1194428" lon="105.7847566"><ele>1549.51</ele><time>2026-05-24T00:22:40.000Z</time></trkpt>
        <trkpt lat="28.1194183" lon="105.7847121"><ele>1549.21</ele><time>2026-05-24T00:22:44.000Z</time></trkpt>
        <trkpt lat="28.1193722" lon="105.7846874"><ele>1548.87</ele><time>2026-05-24T00:22:48.000Z</time></trkpt>
        <trkpt lat="28.1193185" lon="105.7846753"><ele>1547.87</ele><time>2026-05-24T00:22:52.000Z</time></trkpt>
        <trkpt lat="28.1192568" lon="105.7846762"><ele>1547.86</ele><time>2026-05-24T00:22:56.000Z</time></trkpt>
        <trkpt lat="28.1191949" lon="105.7846702"><ele>1547.65</ele><time>2026-05-24T00:23:00.000Z</time></trkpt>
        <trkpt lat="28.1191412" lon="105.7846576"><ele>1547.94</ele><time>2026-05-24T00:23:04.000Z</time></trkpt>
        <trkpt lat="28.1190896" lon="105.7846444"><ele>1548.55</ele><time>2026-05-24T00:23:08.000Z</time></trkpt>
        <trkpt lat="28.1190444" lon="105.7846302"><ele>1549.62</ele><time>2026-05-24T00:23:12.000Z</time></trkpt>
        <trkpt lat="28.118998" lon="105.7846184"><ele>1550.82</ele><time>2026-05-24T00:23:16.000Z</time></trkpt>
        <trkpt lat="28.1189451" lon="105.7846408"><ele>1551.72</ele><time>2026-05-24T00:23:20.000Z</time></trkpt>
        <trkpt lat="28.1188931" lon="105.7846428"><ele>1552.02</ele><time>2026-05-24T00:23:24.000Z</time></trkpt>
        <trkpt lat="28.1188428" lon="105.7846347"><ele>1552.31</ele><time>2026-05-24T00:23:28.000Z</time></trkpt>
        <trkpt lat="28.1187935" lon="105.7846262"><ele>1552.86</ele><time>2026-05-24T00:23:32.000Z</time></trkpt>
        <trkpt lat="28.1187447" lon="105.7846179"><ele>1552.77</ele><time>2026-05-24T00:23:36.000Z</time></trkpt>
        <trkpt lat="28.1186948" lon="105.7846094"><ele>1552.64</ele><time>2026-05-24T00:23:40.000Z</time></trkpt>
        <trkpt lat="28.1186448" lon="105.7846014"><ele>1552.53</ele><time>2026-05-24T00:23:44.000Z</time></trkpt>
        <trkpt lat="28.1185933" lon="105.7845974"><ele>1552.5</ele><time>2026-05-24T00:23:48.000Z</time></trkpt>
        <trkpt lat="28.1185403" lon="105.7845899"><ele>1552.64</ele><time>2026-05-24T00:23:52.000Z</time></trkpt>
        <trkpt lat="28.1184862" lon="105.7845882"><ele>1552.06</ele><time>2026-05-24T00:23:56.000Z</time></trkpt>
        <trkpt lat="28.1184337" lon="105.7845934"><ele>1551.56</ele><time>2026-05-24T00:24:00.000Z</time></trkpt>
        <trkpt lat="28.1183812" lon="105.7845979"><ele>1550.93</ele><time>2026-05-24T00:24:04.000Z</time></trkpt>
        <trkpt lat="28.1183276" lon="105.7845851"><ele>1550.44</ele><time>2026-05-24T00:24:08.000Z</time></trkpt>
        <trkpt lat="28.1182794" lon="105.7845549"><ele>1549.88</ele><time>2026-05-24T00:24:12.000Z</time></trkpt>
        <trkpt lat="28.1182364" lon="105.7845144"><ele>1549.59</ele><time>2026-05-24T00:24:16.000Z</time></trkpt>
        <trkpt lat="28.1182035" lon="105.7844575"><ele>1549.51</ele><time>2026-05-24T00:24:20.000Z</time></trkpt>
        <trkpt lat="28.1181758" lon="105.7843968"><ele>1549.09</ele><time>2026-05-24T00:24:24.000Z</time></trkpt>
        <trkpt lat="28.118156" lon="105.7843431"><ele>1548.98</ele><time>2026-05-24T00:24:28.000Z</time></trkpt>
        <trkpt lat="28.1181201" lon="105.7842843"><ele>1548.8</ele><time>2026-05-24T00:24:42.000Z</time></trkpt>
        <trkpt lat="28.1180922" lon="105.7842327"><ele>1548.13</ele><time>2026-05-24T00:24:46.000Z</time></trkpt>
        <trkpt lat="28.1180755" lon="105.7841783"><ele>1547.89</ele><time>2026-05-24T00:24:50.000Z</time></trkpt>
        <trkpt lat="28.118057" lon="105.7841264"><ele>1547.67</ele><time>2026-05-24T00:24:54.000Z</time></trkpt>
        <trkpt lat="28.118028" lon="105.7840652"><ele>1547.36</ele><time>2026-05-24T00:25:00.000Z</time></trkpt>
        <trkpt lat="28.1180139" lon="105.784009"><ele>1547.14</ele><time>2026-05-24T00:25:04.000Z</time></trkpt>
        <trkpt lat="28.1180105" lon="105.7839557"><ele>1546.81</ele><time>2026-05-24T00:25:08.000Z</time></trkpt>
        <trkpt lat="28.1180105" lon="105.7839557"><ele>1546.81</ele><time>2026-05-24T00:25:10.000Z</time></trkpt>
      </trkseg>
  </trk>
</gpx>